<?xml version='1.0' encoding='UTF-8'?><gpx version="1.1" creator="JPX - https://github.com/jenetics/jpx" xmlns="http://www.topografix.com/GPX/1/1"><trk><trkseg><trkpt lat="41.4810381" lon="12.8908174"><ele>16.999999999999996</ele><time>2026-04-05T05:14:57.286Z</time></trkpt><trkpt lat="41.4810056" lon="12.8908994"><ele>17.0</ele><time>2026-04-05T05:15:02.286Z</time></trkpt><trkpt lat="41.4809833" lon="12.8909936"><ele>17.0</ele><time>2026-04-05T05:15:07.286Z</time></trkpt><trkpt lat="41.4809586" lon="12.8910988"><ele>17.0</ele><time>2026-04-05T05:15:11.286Z</time></trkpt><trkpt lat="41.4809275" lon="12.8912008"><ele>17.0</ele><time>2026-04-05T05:15:15.286Z</time></trkpt><trkpt lat="41.4809138" lon="12.8912837"><ele>16.999999999999996</ele><time>2026-04-05T05:15:18.285Z</time></trkpt><trkpt lat="41.4808591" lon="12.891343"><ele>17.0</ele><time>2026-04-05T05:15:21.286Z</time></trkpt><trkpt lat="41.4807898" lon="12.8913503"><ele>17.333333333333336</ele><time>2026-04-05T05:15:23.286Z</time></trkpt><trkpt lat="41.4807128" lon="12.8913531"><ele>17.666666666666668</ele><time>2026-04-05T05:15:25.286Z</time></trkpt><trkpt lat="41.4806296" lon="12.8913499"><ele>18.0</ele><time>2026-04-05T05:15:27.286Z</time></trkpt><trkpt lat="41.4805417" lon="12.8913512"><ele>18.333333333333332</ele><time>2026-04-05T05:15:29.286Z</time></trkpt><trkpt lat="41.4804494" lon="12.8913484"><ele>18.666666666666664</ele><time>2026-04-05T05:15:31.285Z</time></trkpt><trkpt lat="41.4803546" lon="12.8913534"><ele>19.0</ele><time>2026-04-05T05:15:33.286Z</time></trkpt><trkpt lat="41.4802582" lon="12.8913518"><ele>19.0</ele><time>2026-04-05T05:15:35.285Z</time></trkpt><trkpt lat="41.4801565" lon="12.8913499"><ele>19.0</ele><time>2026-04-05T05:15:37.286Z</time></trkpt><trkpt lat="41.4800564" lon="12.8913556"><ele>19.0</ele><time>2026-04-05T05:15:39.286Z</time></trkpt><trkpt lat="41.479957" lon="12.8913546"><ele>19.0</ele><time>2026-04-05T05:15:41.286Z</time></trkpt><trkpt lat="41.4798517" lon="12.8913509"><ele>19.0</ele><time>2026-04-05T05:15:43.285Z</time></trkpt><trkpt lat="41.4797519" lon="12.8913505"><ele>19.0</ele><time>2026-04-05T05:15:45.286Z</time></trkpt><trkpt lat="41.479653" lon="12.891354"><ele>19.0</ele><time>2026-04-05T05:15:47.285Z</time></trkpt><trkpt lat="41.4795591" lon="12.8913578"><ele>19.0</ele><time>2026-04-05T05:15:49.286Z</time></trkpt><trkpt lat="41.4794769" lon="12.8913581"><ele>19.0</ele><time>2026-04-05T05:15:51.285Z</time></trkpt><trkpt lat="41.4793925" lon="12.8913649"><ele>19.0</ele><time>2026-04-05T05:15:53.286Z</time></trkpt><trkpt lat="41.4793042" lon="12.8913699"><ele>19.0</ele><time>2026-04-05T05:15:55.286Z</time></trkpt><trkpt lat="41.4792147" lon="12.8913738"><ele>19.0</ele><time>2026-04-05T05:15:57.286Z</time></trkpt><trkpt lat="41.479118" lon="12.8913796"><ele>19.0</ele><time>2026-04-05T05:15:59.286Z</time></trkpt><trkpt lat="41.4790218" lon="12.8913838"><ele>19.0</ele><time>2026-04-05T05:16:01.286Z</time></trkpt><trkpt lat="41.4789269" lon="12.8913864"><ele>19.0</ele><time>2026-04-05T05:16:03.285Z</time></trkpt><trkpt lat="41.4788335" lon="12.8913929"><ele>19.0</ele><time>2026-04-05T05:16:05.286Z</time></trkpt><trkpt lat="41.4787394" lon="12.8913997"><ele>19.0</ele><time>2026-04-05T05:16:07.286Z</time></trkpt><trkpt lat="41.4786472" lon="12.8913963"><ele>19.0</ele><time>2026-04-05T05:16:09.285Z</time></trkpt><trkpt lat="41.4785575" lon="12.8913894"><ele>19.0</ele><time>2026-04-05T05:16:11.286Z</time></trkpt><trkpt lat="41.4784697" lon="12.8913933"><ele>19.0</ele><time>2026-04-05T05:16:13.285Z</time></trkpt><trkpt lat="41.4783877" lon="12.8913874"><ele>19.0</ele><time>2026-04-05T05:16:15.286Z</time></trkpt><trkpt lat="41.4783048" lon="12.8913955"><ele>19.0</ele><time>2026-04-05T05:16:17.286Z</time></trkpt><trkpt lat="41.4782262" lon="12.8914002"><ele>19.0</ele><time>2026-04-05T05:16:19.286Z</time></trkpt><trkpt lat="41.4781506" lon="12.8914004"><ele>19.0</ele><time>2026-04-05T05:16:21.285Z</time></trkpt><trkpt lat="41.4780799" lon="12.891399"><ele>19.0</ele><time>2026-04-05T05:16:23.285Z</time></trkpt><trkpt lat="41.4780069" lon="12.8913883"><ele>19.0</ele><time>2026-04-05T05:16:25.286Z</time></trkpt><trkpt lat="41.4779288" lon="12.8913786"><ele>19.0</ele><time>2026-04-05T05:16:27.286Z</time></trkpt><trkpt lat="41.4778529" lon="12.8913578"><ele>19.0</ele><time>2026-04-05T05:16:29.286Z</time></trkpt><trkpt lat="41.4777835" lon="12.8913225"><ele>19.142857142857142</ele><time>2026-04-05T05:16:31.286Z</time></trkpt><trkpt lat="41.4777122" lon="12.891285"><ele>19.28571428571429</ele><time>2026-04-05T05:16:33.285Z</time></trkpt><trkpt lat="41.4776454" lon="12.89124"><ele>19.42857142857143</ele><time>2026-04-05T05:16:35.286Z</time></trkpt><trkpt lat="41.47758" lon="12.8911934"><ele>19.57142857142857</ele><time>2026-04-05T05:16:37.286Z</time></trkpt><trkpt lat="41.4775137" lon="12.8911508"><ele>19.714285714285715</ele><time>2026-04-05T05:16:39.286Z</time></trkpt><trkpt lat="41.47745" lon="12.89111"><ele>19.857142857142858</ele><time>2026-04-05T05:16:41.286Z</time></trkpt><trkpt lat="41.4773805" lon="12.8910673"><ele>20.0</ele><time>2026-04-05T05:16:43.286Z</time></trkpt><trkpt lat="41.4773119" lon="12.8910209"><ele>20.0</ele><time>2026-04-05T05:16:45.285Z</time></trkpt><trkpt lat="41.4772421" lon="12.890977"><ele>20.0</ele><time>2026-04-05T05:16:47.286Z</time></trkpt><trkpt lat="41.47717" lon="12.8909375"><ele>20.0</ele><time>2026-04-05T05:16:49.286Z</time></trkpt><trkpt lat="41.4770995" lon="12.8908902"><ele>20.0</ele><time>2026-04-05T05:16:51.286Z</time></trkpt><trkpt lat="41.4770295" lon="12.8908399"><ele>20.0</ele><time>2026-04-05T05:16:53.286Z</time></trkpt><trkpt lat="41.4769569" lon="12.8907855"><ele>20.0</ele><time>2026-04-05T05:16:55.286Z</time></trkpt><trkpt lat="41.4768781" lon="12.8907298"><ele>20.6</ele><time>2026-04-05T05:16:57.286Z</time></trkpt><trkpt lat="41.4767974" lon="12.8906796"><ele>21.2</ele><time>2026-04-05T05:16:59.286Z</time></trkpt><trkpt lat="41.4767158" lon="12.8906213"><ele>21.799999999999997</ele><time>2026-04-05T05:17:01.286Z</time></trkpt><trkpt lat="41.4766309" lon="12.8905645"><ele>22.4</ele><time>2026-04-05T05:17:03.286Z</time></trkpt><trkpt lat="41.4765425" lon="12.8905116"><ele>23.0</ele><time>2026-04-05T05:17:05.286Z</time></trkpt><trkpt lat="41.4764573" lon="12.8904497"><ele>23.0</ele><time>2026-04-05T05:17:07.286Z</time></trkpt><trkpt lat="41.4763743" lon="12.8904009"><ele>23.0</ele><time>2026-04-05T05:17:09.286Z</time></trkpt><trkpt lat="41.4762772" lon="12.8903623"><ele>23.0</ele><time>2026-04-05T05:17:11.286Z</time></trkpt><trkpt lat="41.4761907" lon="12.8903066"><ele>23.0</ele><time>2026-04-05T05:17:13.286Z</time></trkpt><trkpt lat="41.4761102" lon="12.890235"><ele>23.0</ele><time>2026-04-05T05:17:15.286Z</time></trkpt><trkpt lat="41.4760262" lon="12.8901653"><ele>23.0</ele><time>2026-04-05T05:17:17.286Z</time></trkpt><trkpt lat="41.4759405" lon="12.8901085"><ele>23.0</ele><time>2026-04-05T05:17:19.285Z</time></trkpt><trkpt lat="41.4758505" lon="12.89005"><ele>23.0</ele><time>2026-04-05T05:17:21.286Z</time></trkpt><trkpt lat="41.4757596" lon="12.8899976"><ele>23.0</ele><time>2026-04-05T05:17:23.285Z</time></trkpt><trkpt lat="41.4756716" lon="12.8899382"><ele>23.0</ele><time>2026-04-05T05:17:25.286Z</time></trkpt><trkpt lat="41.4755825" lon="12.8898826"><ele>23.2</ele><time>2026-04-05T05:17:27.286Z</time></trkpt><trkpt lat="41.4754944" lon="12.8898156"><ele>23.4</ele><time>2026-04-05T05:17:29.285Z</time></trkpt><trkpt lat="41.4754068" lon="12.8897562"><ele>23.599999999999998</ele><time>2026-04-05T05:17:31.286Z</time></trkpt><trkpt lat="41.4753185" lon="12.8896975"><ele>23.799999999999997</ele><time>2026-04-05T05:17:33.286Z</time></trkpt><trkpt lat="41.475233" lon="12.889638"><ele>24.0</ele><time>2026-04-05T05:17:35.286Z</time></trkpt><trkpt lat="41.4751463" lon="12.8895863"><ele>24.0</ele><time>2026-04-05T05:17:37.286Z</time></trkpt><trkpt lat="41.4750518" lon="12.8895385"><ele>24.0</ele><time>2026-04-05T05:17:39.286Z</time></trkpt><trkpt lat="41.4749661" lon="12.8894765"><ele>24.0</ele><time>2026-04-05T05:17:41.285Z</time></trkpt><trkpt lat="41.4748823" lon="12.8894097"><ele>24.0</ele><time>2026-04-05T05:17:43.286Z</time></trkpt><trkpt lat="41.4747944" lon="12.8893438"><ele>24.0</ele><time>2026-04-05T05:17:45.286Z</time></trkpt><trkpt lat="41.4747123" lon="12.8892823"><ele>24.0</ele><time>2026-04-05T05:17:47.286Z</time></trkpt><trkpt lat="41.4746317" lon="12.8892176"><ele>24.0</ele><time>2026-04-05T05:17:49.285Z</time></trkpt><trkpt lat="41.4745431" lon="12.8891746"><ele>24.0</ele><time>2026-04-05T05:17:51.286Z</time></trkpt><trkpt lat="41.4744637" lon="12.8891273"><ele>24.0</ele><time>2026-04-05T05:17:53.286Z</time></trkpt><trkpt lat="41.4743819" lon="12.8890761"><ele>24.0</ele><time>2026-04-05T05:17:55.285Z</time></trkpt><trkpt lat="41.4743066" lon="12.8890165"><ele>24.0</ele><time>2026-04-05T05:17:57.285Z</time></trkpt><trkpt lat="41.4742259" lon="12.8889771"><ele>24.0</ele><time>2026-04-05T05:17:59.286Z</time></trkpt><trkpt lat="41.474146" lon="12.8889269"><ele>24.0</ele><time>2026-04-05T05:18:01.286Z</time></trkpt><trkpt lat="41.4740598" lon="12.8888822"><ele>24.0</ele><time>2026-04-05T05:18:03.286Z</time></trkpt><trkpt lat="41.473982" lon="12.8888301"><ele>24.0</ele><time>2026-04-05T05:18:05.285Z</time></trkpt><trkpt lat="41.4738908" lon="12.8887753"><ele>24.0</ele><time>2026-04-05T05:18:07.285Z</time></trkpt><trkpt lat="41.4738053" lon="12.8887216"><ele>24.0</ele><time>2026-04-05T05:18:09.285Z</time></trkpt><trkpt lat="41.4737268" lon="12.8886605"><ele>24.0</ele><time>2026-04-05T05:18:11.285Z</time></trkpt><trkpt lat="41.4736439" lon="12.8886072"><ele>24.0</ele><time>2026-04-05T05:18:13.286Z</time></trkpt><trkpt lat="41.4735605" lon="12.8885479"><ele>24.0</ele><time>2026-04-05T05:18:15.286Z</time></trkpt><trkpt lat="41.4734754" lon="12.8884881"><ele>24.0</ele><time>2026-04-05T05:18:17.286Z</time></trkpt><trkpt lat="41.4733864" lon="12.8884312"><ele>24.0</ele><time>2026-04-05T05:18:19.286Z</time></trkpt><trkpt lat="41.4732957" lon="12.8883682"><ele>24.0</ele><time>2026-04-05T05:18:21.285Z</time></trkpt><trkpt lat="41.4732073" lon="12.8883071"><ele>24.0</ele><time>2026-04-05T05:18:23.286Z</time></trkpt><trkpt lat="41.4731373" lon="12.8882447"><ele>24.0</ele><time>2026-04-05T05:18:25.286Z</time></trkpt><trkpt lat="41.4730631" lon="12.8881794"><ele>23.999999999999996</ele><time>2026-04-05T05:18:28.286Z</time></trkpt><trkpt lat="41.4730066" lon="12.8881385"><ele>24.0</ele><time>2026-04-05T05:18:30.286Z</time></trkpt><trkpt lat="41.4729408" lon="12.8881334"><ele>24.0</ele><time>2026-04-05T05:18:32.285Z</time></trkpt><trkpt lat="41.4728714" lon="12.888176"><ele>24.0</ele><time>2026-04-05T05:18:34.286Z</time></trkpt><trkpt lat="41.4728308" lon="12.8882669"><ele>24.0</ele><time>2026-04-05T05:18:36.286Z</time></trkpt><trkpt lat="41.4727953" lon="12.8883645"><ele>23.999999999999996</ele><time>2026-04-05T05:18:38.286Z</time></trkpt><trkpt lat="41.4727678" lon="12.8884651"><ele>24.0</ele><time>2026-04-05T05:18:40.286Z</time></trkpt><trkpt lat="41.4727068" lon="12.8885348"><ele>23.666666666666668</ele><time>2026-04-05T05:18:43.286Z</time></trkpt><trkpt lat="41.4726255" lon="12.8885289"><ele>23.333333333333332</ele><time>2026-04-05T05:18:46.286Z</time></trkpt><trkpt lat="41.4725453" lon="12.8884842"><ele>23.0</ele><time>2026-04-05T05:18:49.286Z</time></trkpt><trkpt lat="41.472468" lon="12.8884384"><ele>22.666666666666664</ele><time>2026-04-05T05:18:52.286Z</time></trkpt><trkpt lat="41.4723932" lon="12.888393"><ele>22.333333333333332</ele><time>2026-04-05T05:18:55.286Z</time></trkpt><trkpt lat="41.472322" lon="12.88834"><ele>22.0</ele><time>2026-04-05T05:18:58.285Z</time></trkpt><trkpt lat="41.4722445" lon="12.8882818"><ele>22.0</ele><time>2026-04-05T05:19:01.286Z</time></trkpt><trkpt lat="41.4721894" lon="12.8882298"><ele>22.0</ele><time>2026-04-05T05:19:03.286Z</time></trkpt><trkpt lat="41.4721325" lon="12.8881774"><ele>22.0</ele><time>2026-04-05T05:19:05.286Z</time></trkpt><trkpt lat="41.4720778" lon="12.8881219"><ele>22.0</ele><time>2026-04-05T05:19:07.286Z</time></trkpt><trkpt lat="41.4720144" lon="12.8880809"><ele>22.0</ele><time>2026-04-05T05:19:09.286Z</time></trkpt><trkpt lat="41.4719538" lon="12.8880298"><ele>22.0</ele><time>2026-04-05T05:19:11.286Z</time></trkpt><trkpt lat="41.4718926" lon="12.8879813"><ele>22.0</ele><time>2026-04-05T05:19:13.286Z</time></trkpt><trkpt lat="41.4718321" lon="12.8879301"><ele>21.833333333333332</ele><time>2026-04-05T05:19:15.286Z</time></trkpt><trkpt lat="41.4717694" lon="12.8878841"><ele>21.666666666666664</ele><time>2026-04-05T05:19:17.285Z</time></trkpt><trkpt lat="41.4717095" lon="12.8878392"><ele>21.5</ele><time>2026-04-05T05:19:19.286Z</time></trkpt><trkpt lat="41.471637" lon="12.8877731"><ele>21.333333333333332</ele><time>2026-04-05T05:19:22.286Z</time></trkpt><trkpt lat="41.4715571" lon="12.8877024"><ele>21.166666666666668</ele><time>2026-04-05T05:19:25.286Z</time></trkpt><trkpt lat="41.4714942" lon="12.887662"><ele>21.0</ele><time>2026-04-05T05:19:27.286Z</time></trkpt><trkpt lat="41.4714321" lon="12.8876178"><ele>21.333333333333332</ele><time>2026-04-05T05:19:29.286Z</time></trkpt><trkpt lat="41.4713676" lon="12.8875728"><ele>21.666666666666668</ele><time>2026-04-05T05:19:31.286Z</time></trkpt><trkpt lat="41.4713068" lon="12.8875193"><ele>22.0</ele><time>2026-04-05T05:19:33.286Z</time></trkpt><trkpt lat="41.4712391" lon="12.8874765"><ele>22.333333333333336</ele><time>2026-04-05T05:19:35.286Z</time></trkpt><trkpt lat="41.471172" lon="12.8874299"><ele>22.666666666666668</ele><time>2026-04-05T05:19:37.286Z</time></trkpt><trkpt lat="41.471105" lon="12.8873758"><ele>23.0</ele><time>2026-04-05T05:19:39.286Z</time></trkpt><trkpt lat="41.4710378" lon="12.8873197"><ele>23.0</ele><time>2026-04-05T05:19:41.286Z</time></trkpt><trkpt lat="41.4709653" lon="12.8872725"><ele>23.0</ele><time>2026-04-05T05:19:43.286Z</time></trkpt><trkpt lat="41.4708933" lon="12.8872204"><ele>23.0</ele><time>2026-04-05T05:19:45.286Z</time></trkpt><trkpt lat="41.4708227" lon="12.8871594"><ele>23.0</ele><time>2026-04-05T05:19:47.286Z</time></trkpt><trkpt lat="41.4707527" lon="12.8870962"><ele>23.0</ele><time>2026-04-05T05:19:49.286Z</time></trkpt><trkpt lat="41.4706798" lon="12.887044"><ele>23.0</ele><time>2026-04-05T05:19:51.286Z</time></trkpt><trkpt lat="41.4706069" lon="12.8869919"><ele>23.0</ele><time>2026-04-05T05:19:53.286Z</time></trkpt><trkpt lat="41.4705341" lon="12.8869316"><ele>23.0</ele><time>2026-04-05T05:19:55.286Z</time></trkpt><trkpt lat="41.4704629" lon="12.8868736"><ele>23.0</ele><time>2026-04-05T05:19:57.286Z</time></trkpt><trkpt lat="41.4703995" lon="12.8868166"><ele>23.0</ele><time>2026-04-05T05:19:59.286Z</time></trkpt><trkpt lat="41.4703362" lon="12.8867666"><ele>23.0</ele><time>2026-04-05T05:20:01.286Z</time></trkpt><trkpt lat="41.4702769" lon="12.886719"><ele>23.0</ele><time>2026-04-05T05:20:03.286Z</time></trkpt><trkpt lat="41.4702263" lon="12.8866628"><ele>23.0</ele><time>2026-04-05T05:20:05.286Z</time></trkpt><trkpt lat="41.4701651" lon="12.8866089"><ele>23.0</ele><time>2026-04-05T05:20:07.286Z</time></trkpt><trkpt lat="41.470082" lon="12.8865532"><ele>23.0</ele><time>2026-04-05T05:20:09.285Z</time></trkpt><trkpt lat="41.4699882" lon="12.8864875"><ele>23.0</ele><time>2026-04-05T05:20:11.286Z</time></trkpt><trkpt lat="41.4698914" lon="12.886406"><ele>23.0</ele><time>2026-04-05T05:20:13.286Z</time></trkpt><trkpt lat="41.469796" lon="12.8863304"><ele>23.0</ele><time>2026-04-05T05:20:15.285Z</time></trkpt><trkpt lat="41.4696995" lon="12.8862573"><ele>23.0</ele><time>2026-04-05T05:20:17.286Z</time></trkpt><trkpt lat="41.4696097" lon="12.8861939"><ele>23.0</ele><time>2026-04-05T05:20:19.286Z</time></trkpt><trkpt lat="41.4695231" lon="12.8861222"><ele>23.0</ele><time>2026-04-05T05:20:21.286Z</time></trkpt><trkpt lat="41.469436" lon="12.8860588"><ele>23.0</ele><time>2026-04-05T05:20:23.286Z</time></trkpt><trkpt lat="41.4693506" lon="12.8859817"><ele>23.2</ele><time>2026-04-05T05:20:25.285Z</time></trkpt><trkpt lat="41.4692641" lon="12.8859153"><ele>23.4</ele><time>2026-04-05T05:20:27.286Z</time></trkpt><trkpt lat="41.4691757" lon="12.8858561"><ele>23.599999999999998</ele><time>2026-04-05T05:20:29.286Z</time></trkpt><trkpt lat="41.4690898" lon="12.8857907"><ele>23.799999999999997</ele><time>2026-04-05T05:20:31.285Z</time></trkpt><trkpt lat="41.4690051" lon="12.8857325"><ele>24.0</ele><time>2026-04-05T05:20:33.286Z</time></trkpt><trkpt lat="41.4689193" lon="12.8856727"><ele>24.0</ele><time>2026-04-05T05:20:35.286Z</time></trkpt><trkpt lat="41.4688344" lon="12.8856092"><ele>24.0</ele><time>2026-04-05T05:20:37.285Z</time></trkpt><trkpt lat="41.4687514" lon="12.8855464"><ele>24.0</ele><time>2026-04-05T05:20:39.286Z</time></trkpt><trkpt lat="41.4686739" lon="12.885493"><ele>24.0</ele><time>2026-04-05T05:20:41.285Z</time></trkpt><trkpt lat="41.4685932" lon="12.8854258"><ele>24.0</ele><time>2026-04-05T05:20:43.286Z</time></trkpt><trkpt lat="41.4685099" lon="12.8853652"><ele>24.0</ele><time>2026-04-05T05:20:45.285Z</time></trkpt><trkpt lat="41.4684326" lon="12.8852905"><ele>24.0</ele><time>2026-04-05T05:20:47.285Z</time></trkpt><trkpt lat="41.4683493" lon="12.8852267"><ele>24.0</ele><time>2026-04-05T05:20:49.285Z</time></trkpt><trkpt lat="41.4682706" lon="12.8851537"><ele>24.0</ele><time>2026-04-05T05:20:51.286Z</time></trkpt><trkpt lat="41.4681928" lon="12.8850905"><ele>24.0</ele><time>2026-04-05T05:20:53.286Z</time></trkpt><trkpt lat="41.4681112" lon="12.8850243"><ele>23.799999999999997</ele><time>2026-04-05T05:20:55.285Z</time></trkpt><trkpt lat="41.4680289" lon="12.8849658"><ele>23.599999999999998</ele><time>2026-04-05T05:20:57.285Z</time></trkpt><trkpt lat="41.4679451" lon="12.8849055"><ele>23.4</ele><time>2026-04-05T05:20:59.285Z</time></trkpt><trkpt lat="41.4678649" lon="12.8848456"><ele>23.2</ele><time>2026-04-05T05:21:01.286Z</time></trkpt><trkpt lat="41.4677875" lon="12.8847818"><ele>23.0</ele><time>2026-04-05T05:21:03.286Z</time></trkpt><trkpt lat="41.4677163" lon="12.8847236"><ele>23.666666666666668</ele><time>2026-04-05T05:21:05.286Z</time></trkpt><trkpt lat="41.4676572" lon="12.8846693"><ele>24.333333333333336</ele><time>2026-04-05T05:21:07.286Z</time></trkpt><trkpt lat="41.4675973" lon="12.8846072"><ele>25.0</ele><time>2026-04-05T05:21:09.286Z</time></trkpt><trkpt lat="41.4675325" lon="12.8845537"><ele>25.666666666666668</ele><time>2026-04-05T05:21:11.286Z</time></trkpt><trkpt lat="41.467461" lon="12.8845086"><ele>26.333333333333332</ele><time>2026-04-05T05:21:13.286Z</time></trkpt><trkpt lat="41.4673893" lon="12.8844622"><ele>27.0</ele><time>2026-04-05T05:21:15.286Z</time></trkpt><trkpt lat="41.4673134" lon="12.8844205"><ele>27.0</ele><time>2026-04-05T05:21:17.286Z</time></trkpt><trkpt lat="41.4672465" lon="12.8843663"><ele>27.0</ele><time>2026-04-05T05:21:19.285Z</time></trkpt><trkpt lat="41.467179" lon="12.8843127"><ele>27.0</ele><time>2026-04-05T05:21:21.286Z</time></trkpt><trkpt lat="41.4671103" lon="12.8842601"><ele>27.0</ele><time>2026-04-05T05:21:23.286Z</time></trkpt><trkpt lat="41.4670382" lon="12.8842047"><ele>27.0</ele><time>2026-04-05T05:21:25.286Z</time></trkpt><trkpt lat="41.466967" lon="12.8841428"><ele>27.0</ele><time>2026-04-05T05:21:27.285Z</time></trkpt><trkpt lat="41.4668935" lon="12.8840891"><ele>27.0</ele><time>2026-04-05T05:21:29.286Z</time></trkpt><trkpt lat="41.466821" lon="12.8840357"><ele>27.0</ele><time>2026-04-05T05:21:31.286Z</time></trkpt><trkpt lat="41.4667576" lon="12.8839706"><ele>27.0</ele><time>2026-04-05T05:21:33.285Z</time></trkpt><trkpt lat="41.466692" lon="12.8839099"><ele>27.0</ele><time>2026-04-05T05:21:35.286Z</time></trkpt><trkpt lat="41.466626" lon="12.8838484"><ele>27.0</ele><time>2026-04-05T05:21:37.286Z</time></trkpt><trkpt lat="41.4665585" lon="12.8837877"><ele>27.0</ele><time>2026-04-05T05:21:39.286Z</time></trkpt><trkpt lat="41.4664874" lon="12.8837322"><ele>27.0</ele><time>2026-04-05T05:21:41.285Z</time></trkpt><trkpt lat="41.4664158" lon="12.8836783"><ele>27.0</ele><time>2026-04-05T05:21:43.286Z</time></trkpt><trkpt lat="41.4663459" lon="12.8836274"><ele>27.0</ele><time>2026-04-05T05:21:45.286Z</time></trkpt><trkpt lat="41.4662752" lon="12.8835732"><ele>27.0</ele><time>2026-04-05T05:21:47.286Z</time></trkpt><trkpt lat="41.4662053" lon="12.8835149"><ele>27.0</ele><time>2026-04-05T05:21:49.285Z</time></trkpt><trkpt lat="41.4661358" lon="12.883461"><ele>27.0</ele><time>2026-04-05T05:21:51.286Z</time></trkpt><trkpt lat="41.4660681" lon="12.8834013"><ele>26.833333333333332</ele><time>2026-04-05T05:21:53.286Z</time></trkpt><trkpt lat="41.4659962" lon="12.8833496"><ele>26.666666666666664</ele><time>2026-04-05T05:21:55.286Z</time></trkpt><trkpt lat="41.4659247" lon="12.8832933"><ele>26.5</ele><time>2026-04-05T05:21:57.286Z</time></trkpt><trkpt lat="41.4658555" lon="12.8832459"><ele>26.333333333333332</ele><time>2026-04-05T05:21:59.285Z</time></trkpt><trkpt lat="41.4657862" lon="12.8832142"><ele>26.166666666666664</ele><time>2026-04-05T05:22:01.286Z</time></trkpt><trkpt lat="41.4657127" lon="12.8832255"><ele>26.0</ele><time>2026-04-05T05:22:03.285Z</time></trkpt><trkpt lat="41.4656564" lon="12.8833006"><ele>25.999999999999996</ele><time>2026-04-05T05:22:05.286Z</time></trkpt><trkpt lat="41.4656228" lon="12.8834096"><ele>26.0</ele><time>2026-04-05T05:22:07.286Z</time></trkpt><trkpt lat="41.4655774" lon="12.8835114"><ele>26.0</ele><time>2026-04-05T05:22:09.286Z</time></trkpt><trkpt lat="41.4655224" lon="12.8836032"><ele>26.0</ele><time>2026-04-05T05:22:11.286Z</time></trkpt><trkpt lat="41.4654763" lon="12.8837036"><ele>25.999999999999996</ele><time>2026-04-05T05:22:13.286Z</time></trkpt><trkpt lat="41.4654232" lon="12.8838012"><ele>26.0</ele><time>2026-04-05T05:22:15.286Z</time></trkpt><trkpt lat="41.4653742" lon="12.8839049"><ele>26.6</ele><time>2026-04-05T05:22:17.286Z</time></trkpt><trkpt lat="41.4653251" lon="12.8840101"><ele>27.200000000000003</ele><time>2026-04-05T05:22:19.286Z</time></trkpt><trkpt lat="41.4652685" lon="12.884115"><ele>27.799999999999997</ele><time>2026-04-05T05:22:21.286Z</time></trkpt><trkpt lat="41.4652165" lon="12.8842195"><ele>28.4</ele><time>2026-04-05T05:22:23.286Z</time></trkpt><trkpt lat="41.4651597" lon="12.8843265"><ele>29.0</ele><time>2026-04-05T05:22:25.286Z</time></trkpt><trkpt lat="41.465099" lon="12.8844266"><ele>29.0</ele><time>2026-04-05T05:22:27.286Z</time></trkpt><trkpt lat="41.4650354" lon="12.8845199"><ele>29.0</ele><time>2026-04-05T05:22:29.286Z</time></trkpt><trkpt lat="41.4649735" lon="12.8846176"><ele>29.0</ele><time>2026-04-05T05:22:31.286Z</time></trkpt><trkpt lat="41.4649122" lon="12.8847166"><ele>29.0</ele><time>2026-04-05T05:22:33.286Z</time></trkpt><trkpt lat="41.4648576" lon="12.8848212"><ele>29.0</ele><time>2026-04-05T05:22:35.286Z</time></trkpt><trkpt lat="41.4648056" lon="12.8849159"><ele>28.999999999999996</ele><time>2026-04-05T05:22:37.286Z</time></trkpt><trkpt lat="41.46475" lon="12.8850008"><ele>29.0</ele><time>2026-04-05T05:22:39.286Z</time></trkpt><trkpt lat="41.4646891" lon="12.8850865"><ele>29.0</ele><time>2026-04-05T05:22:41.285Z</time></trkpt><trkpt lat="41.4646366" lon="12.8851818"><ele>29.0</ele><time>2026-04-05T05:22:43.286Z</time></trkpt><trkpt lat="41.464597" lon="12.885286"><ele>28.999999999999996</ele><time>2026-04-05T05:22:45.286Z</time></trkpt><trkpt lat="41.4645605" lon="12.8853942"><ele>29.0</ele><time>2026-04-05T05:22:47.286Z</time></trkpt><trkpt lat="41.4645331" lon="12.8855074"><ele>29.0</ele><time>2026-04-05T05:22:49.286Z</time></trkpt><trkpt lat="41.4645129" lon="12.8856186"><ele>29.0</ele><time>2026-04-05T05:22:51.286Z</time></trkpt><trkpt lat="41.4644999" lon="12.8857326"><ele>29.0</ele><time>2026-04-05T05:22:53.286Z</time></trkpt><trkpt lat="41.4644859" lon="12.8858539"><ele>29.0</ele><time>2026-04-05T05:22:55.286Z</time></trkpt><trkpt lat="41.4644722" lon="12.8859845"><ele>29.0</ele><time>2026-04-05T05:22:57.285Z</time></trkpt><trkpt lat="41.464456" lon="12.8861192"><ele>28.25</ele><time>2026-04-05T05:22:59.286Z</time></trkpt><trkpt lat="41.4644351" lon="12.8862638"><ele>27.5</ele><time>2026-04-05T05:23:01.286Z</time></trkpt><trkpt lat="41.4644082" lon="12.8864136"><ele>26.75</ele><time>2026-04-05T05:23:03.286Z</time></trkpt><trkpt lat="41.4643437" lon="12.8865491"><ele>26.0</ele><time>2026-04-05T05:23:05.286Z</time></trkpt><trkpt lat="41.464267" lon="12.8866733"><ele>26.0</ele><time>2026-04-05T05:23:07.286Z</time></trkpt><trkpt lat="41.464223" lon="12.8867356"><ele>26.0</ele><time>2026-04-05T05:23:08.286Z</time></trkpt><trkpt lat="41.4641465" lon="12.886861"><ele>26.0</ele><time>2026-04-05T05:23:10.286Z</time></trkpt><trkpt lat="41.464105" lon="12.8870027"><ele>26.0</ele><time>2026-04-05T05:23:12.286Z</time></trkpt><trkpt lat="41.4640878" lon="12.8871543"><ele>26.0</ele><time>2026-04-05T05:23:14.286Z</time></trkpt><trkpt lat="41.4640834" lon="12.8873033"><ele>25.8</ele><time>2026-04-05T05:23:16.286Z</time></trkpt><trkpt lat="41.4640853" lon="12.8874531"><ele>25.6</ele><time>2026-04-05T05:23:18.286Z</time></trkpt><trkpt lat="41.4640804" lon="12.8876036"><ele>25.4</ele><time>2026-04-05T05:23:20.285Z</time></trkpt><trkpt lat="41.4640664" lon="12.8877593"><ele>25.2</ele><time>2026-04-05T05:23:22.285Z</time></trkpt><trkpt lat="41.4640568" lon="12.8878426"><ele>25.0</ele><time>2026-04-05T05:23:23.285Z</time></trkpt><trkpt lat="41.4640118" lon="12.8879937"><ele>25.25</ele><time>2026-04-05T05:23:25.286Z</time></trkpt><trkpt lat="41.4639585" lon="12.8881358"><ele>25.5</ele><time>2026-04-05T05:23:27.285Z</time></trkpt><trkpt lat="41.4639095" lon="12.8882805"><ele>25.75</ele><time>2026-04-05T05:23:29.285Z</time></trkpt><trkpt lat="41.4638551" lon="12.8884214"><ele>26.0</ele><time>2026-04-05T05:23:31.286Z</time></trkpt><trkpt lat="41.4637955" lon="12.8885621"><ele>25.25</ele><time>2026-04-05T05:23:33.286Z</time></trkpt><trkpt lat="41.4637467" lon="12.8887127"><ele>24.5</ele><time>2026-04-05T05:23:35.286Z</time></trkpt><trkpt lat="41.4637033" lon="12.8888605"><ele>23.75</ele><time>2026-04-05T05:23:37.286Z</time></trkpt><trkpt lat="41.463655" lon="12.8890013"><ele>23.0</ele><time>2026-04-05T05:23:39.285Z</time></trkpt><trkpt lat="41.4636145" lon="12.8891468"><ele>23.25</ele><time>2026-04-05T05:23:41.286Z</time></trkpt><trkpt lat="41.4635713" lon="12.8892899"><ele>23.5</ele><time>2026-04-05T05:23:43.286Z</time></trkpt><trkpt lat="41.463524" lon="12.8894365"><ele>23.75</ele><time>2026-04-05T05:23:45.286Z</time></trkpt><trkpt lat="41.4634701" lon="12.8895792"><ele>24.0</ele><time>2026-04-05T05:23:47.286Z</time></trkpt><trkpt lat="41.4634136" lon="12.889717"><ele>24.0</ele><time>2026-04-05T05:23:49.286Z</time></trkpt><trkpt lat="41.4633395" lon="12.8898369"><ele>24.0</ele><time>2026-04-05T05:23:51.286Z</time></trkpt><trkpt lat="41.463245" lon="12.8899257"><ele>24.0</ele><time>2026-04-05T05:23:53.286Z</time></trkpt><trkpt lat="41.463145" lon="12.889999"><ele>24.0</ele><time>2026-04-05T05:23:55.286Z</time></trkpt><trkpt lat="41.4630592" lon="12.890093"><ele>24.5</ele><time>2026-04-05T05:23:57.285Z</time></trkpt><trkpt lat="41.4629932" lon="12.8902209"><ele>25.0</ele><time>2026-04-05T05:23:59.286Z</time></trkpt><trkpt lat="41.4629707" lon="12.8903665"><ele>25.5</ele><time>2026-04-05T05:24:01.286Z</time></trkpt><trkpt lat="41.4629902" lon="12.8905181"><ele>26.0</ele><time>2026-04-05T05:24:03.286Z</time></trkpt><trkpt lat="41.4630271" lon="12.8906657"><ele>26.0</ele><time>2026-04-05T05:24:05.286Z</time></trkpt><trkpt lat="41.4630318" lon="12.8908184"><ele>26.0</ele><time>2026-04-05T05:24:07.285Z</time></trkpt><trkpt lat="41.4630136" lon="12.8909687"><ele>26.0</ele><time>2026-04-05T05:24:09.285Z</time></trkpt><trkpt lat="41.4629792" lon="12.8911017"><ele>26.0</ele><time>2026-04-05T05:24:11.285Z</time></trkpt><trkpt lat="41.4629299" lon="12.8912243"><ele>26.0</ele><time>2026-04-05T05:24:13.286Z</time></trkpt><trkpt lat="41.4628955" lon="12.8913501"><ele>26.200000000000003</ele><time>2026-04-05T05:24:15.285Z</time></trkpt><trkpt lat="41.4628617" lon="12.8914688"><ele>26.400000000000002</ele><time>2026-04-05T05:24:17.286Z</time></trkpt><trkpt lat="41.4628221" lon="12.8915806"><ele>26.6</ele><time>2026-04-05T05:24:19.286Z</time></trkpt><trkpt lat="41.4627844" lon="12.8916913"><ele>26.8</ele><time>2026-04-05T05:24:21.285Z</time></trkpt><trkpt lat="41.4627445" lon="12.8917973"><ele>27.0</ele><time>2026-04-05T05:24:23.286Z</time></trkpt><trkpt lat="41.4627038" lon="12.8918979"><ele>27.200000000000003</ele><time>2026-04-05T05:24:25.286Z</time></trkpt><trkpt lat="41.4626729" lon="12.8920159"><ele>27.400000000000002</ele><time>2026-04-05T05:24:27.286Z</time></trkpt><trkpt lat="41.4626447" lon="12.8921372"><ele>27.599999999999998</ele><time>2026-04-05T05:24:29.286Z</time></trkpt><trkpt lat="41.4626083" lon="12.8922437"><ele>27.799999999999997</ele><time>2026-04-05T05:24:31.286Z</time></trkpt><trkpt lat="41.4625563" lon="12.8923526"><ele>28.0</ele><time>2026-04-05T05:24:33.286Z</time></trkpt><trkpt lat="41.4624878" lon="12.8924391"><ele>28.0</ele><time>2026-04-05T05:24:35.286Z</time></trkpt><trkpt lat="41.4624162" lon="12.8925203"><ele>27.999999999999996</ele><time>2026-04-05T05:24:37.285Z</time></trkpt><trkpt lat="41.4623464" lon="12.8926036"><ele>27.999999999999996</ele><time>2026-04-05T05:24:39.286Z</time></trkpt><trkpt lat="41.4622647" lon="12.8926575"><ele>28.0</ele><time>2026-04-05T05:24:41.286Z</time></trkpt><trkpt lat="41.4621806" lon="12.8927072"><ele>28.0</ele><time>2026-04-05T05:24:43.285Z</time></trkpt><trkpt lat="41.4620924" lon="12.892725"><ele>28.2</ele><time>2026-04-05T05:24:45.286Z</time></trkpt><trkpt lat="41.4619917" lon="12.8927168"><ele>28.4</ele><time>2026-04-05T05:24:47.286Z</time></trkpt><trkpt lat="41.4619009" lon="12.8927189"><ele>28.599999999999998</ele><time>2026-04-05T05:24:49.285Z</time></trkpt><trkpt lat="41.4618036" lon="12.8927231"><ele>28.799999999999997</ele><time>2026-04-05T05:24:51.286Z</time></trkpt><trkpt lat="41.4617135" lon="12.8927343"><ele>29.0</ele><time>2026-04-05T05:24:53.286Z</time></trkpt><trkpt lat="41.4616276" lon="12.8927277"><ele>29.0</ele><time>2026-04-05T05:24:55.286Z</time></trkpt><trkpt lat="41.4615434" lon="12.892737"><ele>29.0</ele><time>2026-04-05T05:24:57.286Z</time></trkpt><trkpt lat="41.4614521" lon="12.8927364"><ele>29.0</ele><time>2026-04-05T05:24:59.286Z</time></trkpt><trkpt lat="41.4613611" lon="12.8927374"><ele>29.0</ele><time>2026-04-05T05:25:01.286Z</time></trkpt><trkpt lat="41.4612703" lon="12.8927459"><ele>29.0</ele><time>2026-04-05T05:25:03.286Z</time></trkpt><trkpt lat="41.4611754" lon="12.8927499"><ele>29.0</ele><time>2026-04-05T05:25:05.286Z</time></trkpt><trkpt lat="41.4610861" lon="12.8927294"><ele>29.0</ele><time>2026-04-05T05:25:07.285Z</time></trkpt><trkpt lat="41.4609998" lon="12.8926851"><ele>29.0</ele><time>2026-04-05T05:25:09.286Z</time></trkpt><trkpt lat="41.4609132" lon="12.8926734"><ele>29.0</ele><time>2026-04-05T05:25:11.285Z</time></trkpt><trkpt lat="41.4608191" lon="12.8926684"><ele>29.0</ele><time>2026-04-05T05:25:13.286Z</time></trkpt><trkpt lat="41.4607187" lon="12.8926606"><ele>29.0</ele><time>2026-04-05T05:25:15.286Z</time></trkpt><trkpt lat="41.460633" lon="12.8926708"><ele>29.0</ele><time>2026-04-05T05:25:17.286Z</time></trkpt><trkpt lat="41.4605297" lon="12.892669"><ele>29.0</ele><time>2026-04-05T05:25:19.286Z</time></trkpt><trkpt lat="41.4604418" lon="12.8926834"><ele>29.0</ele><time>2026-04-05T05:25:21.285Z</time></trkpt><trkpt lat="41.4603546" lon="12.8926987"><ele>29.0</ele><time>2026-04-05T05:25:23.286Z</time></trkpt><trkpt lat="41.4602696" lon="12.8926904"><ele>28.4</ele><time>2026-04-05T05:25:25.286Z</time></trkpt><trkpt lat="41.4601784" lon="12.8926936"><ele>27.799999999999997</ele><time>2026-04-05T05:25:27.286Z</time></trkpt><trkpt lat="41.460088" lon="12.8926945"><ele>27.200000000000003</ele><time>2026-04-05T05:25:29.286Z</time></trkpt><trkpt lat="41.4599883" lon="12.8926943"><ele>26.6</ele><time>2026-04-05T05:25:31.286Z</time></trkpt><trkpt lat="41.4598916" lon="12.8927054"><ele>26.0</ele><time>2026-04-05T05:25:33.285Z</time></trkpt><trkpt lat="41.4597898" lon="12.8927077"><ele>26.0</ele><time>2026-04-05T05:25:35.286Z</time></trkpt><trkpt lat="41.4596838" lon="12.8927111"><ele>26.0</ele><time>2026-04-05T05:25:37.286Z</time></trkpt><trkpt lat="41.4595793" lon="12.892707"><ele>26.0</ele><time>2026-04-05T05:25:39.286Z</time></trkpt><trkpt lat="41.4594759" lon="12.8927098"><ele>26.0</ele><time>2026-04-05T05:25:41.285Z</time></trkpt><trkpt lat="41.4593798" lon="12.8927476"><ele>26.0</ele><time>2026-04-05T05:25:43.286Z</time></trkpt><trkpt lat="41.4592795" lon="12.8927895"><ele>26.4</ele><time>2026-04-05T05:25:45.286Z</time></trkpt><trkpt lat="41.4591788" lon="12.8928368"><ele>26.8</ele><time>2026-04-05T05:25:47.286Z</time></trkpt><trkpt lat="41.4590827" lon="12.8928652"><ele>27.199999999999996</ele><time>2026-04-05T05:25:49.286Z</time></trkpt><trkpt lat="41.4589824" lon="12.8929018"><ele>27.599999999999998</ele><time>2026-04-05T05:25:51.286Z</time></trkpt><trkpt lat="41.4588828" lon="12.8929484"><ele>28.0</ele><time>2026-04-05T05:25:53.286Z</time></trkpt><trkpt lat="41.4587888" lon="12.8929884"><ele>27.599999999999998</ele><time>2026-04-05T05:25:55.286Z</time></trkpt><trkpt lat="41.4586902" lon="12.8930132"><ele>27.199999999999996</ele><time>2026-04-05T05:25:57.286Z</time></trkpt><trkpt lat="41.4585916" lon="12.893051"><ele>26.8</ele><time>2026-04-05T05:25:59.286Z</time></trkpt><trkpt lat="41.4584922" lon="12.8930423"><ele>26.4</ele><time>2026-04-05T05:26:01.286Z</time></trkpt><trkpt lat="41.4583922" lon="12.8930331"><ele>26.0</ele><time>2026-04-05T05:26:03.286Z</time></trkpt><trkpt lat="41.4582937" lon="12.8929945"><ele>25.999999999999996</ele><time>2026-04-05T05:26:05.286Z</time></trkpt><trkpt lat="41.4582085" lon="12.8929467"><ele>26.0</ele><time>2026-04-05T05:26:07.286Z</time></trkpt><trkpt lat="41.4581338" lon="12.8928924"><ele>26.0</ele><time>2026-04-05T05:26:09.286Z</time></trkpt><trkpt lat="41.4580731" lon="12.8928246"><ele>26.0</ele><time>2026-04-05T05:26:11.286Z</time></trkpt><trkpt lat="41.4580276" lon="12.8927447"><ele>25.999999999999996</ele><time>2026-04-05T05:26:13.286Z</time></trkpt><trkpt lat="41.4579981" lon="12.8926435"><ele>26.0</ele><time>2026-04-05T05:26:15.286Z</time></trkpt><trkpt lat="41.4579873" lon="12.8925391"><ele>25.999999999999996</ele><time>2026-04-05T05:26:17.286Z</time></trkpt><trkpt lat="41.4579494" lon="12.8924598"><ele>26.0</ele><time>2026-04-05T05:26:19.286Z</time></trkpt><trkpt lat="41.4578804" lon="12.8924601"><ele>26.0</ele><time>2026-04-05T05:26:21.285Z</time></trkpt><trkpt lat="41.4578149" lon="12.8924915"><ele>26.0</ele><time>2026-04-05T05:26:23.285Z</time></trkpt><trkpt lat="41.457758" lon="12.8925723"><ele>25.999999999999996</ele><time>2026-04-05T05:26:25.285Z</time></trkpt><trkpt lat="41.4577049" lon="12.8926656"><ele>26.0</ele><time>2026-04-05T05:26:27.285Z</time></trkpt><trkpt lat="41.4576639" lon="12.8927787"><ele>26.0</ele><time>2026-04-05T05:26:29.286Z</time></trkpt><trkpt lat="41.4576272" lon="12.8928996"><ele>26.0</ele><time>2026-04-05T05:26:31.286Z</time></trkpt><trkpt lat="41.4575896" lon="12.8930203"><ele>26.0</ele><time>2026-04-05T05:26:33.286Z</time></trkpt><trkpt lat="41.4575439" lon="12.8931362"><ele>26.0</ele><time>2026-04-05T05:26:35.285Z</time></trkpt><trkpt lat="41.4574905" lon="12.8932518"><ele>26.0</ele><time>2026-04-05T05:26:37.286Z</time></trkpt><trkpt lat="41.4574386" lon="12.8933668"><ele>26.0</ele><time>2026-04-05T05:26:39.286Z</time></trkpt><trkpt lat="41.4573892" lon="12.8934811"><ele>26.0</ele><time>2026-04-05T05:26:41.286Z</time></trkpt><trkpt lat="41.4573378" lon="12.8935958"><ele>26.0</ele><time>2026-04-05T05:26:43.285Z</time></trkpt><trkpt lat="41.4572806" lon="12.8937138"><ele>26.0</ele><time>2026-04-05T05:26:45.286Z</time></trkpt><trkpt lat="41.4572247" lon="12.8938262"><ele>26.0</ele><time>2026-04-05T05:26:47.286Z</time></trkpt><trkpt lat="41.4571634" lon="12.8939347"><ele>26.0</ele><time>2026-04-05T05:26:49.285Z</time></trkpt><trkpt lat="41.457088" lon="12.8940275"><ele>26.0</ele><time>2026-04-05T05:26:51.286Z</time></trkpt><trkpt lat="41.4570247" lon="12.8941308"><ele>26.0</ele><time>2026-04-05T05:26:53.286Z</time></trkpt><trkpt lat="41.4569607" lon="12.8942371"><ele>26.0</ele><time>2026-04-05T05:26:55.286Z</time></trkpt><trkpt lat="41.456872" lon="12.8943074"><ele>26.0</ele><time>2026-04-05T05:26:57.286Z</time></trkpt><trkpt lat="41.4567699" lon="12.8943363"><ele>26.0</ele><time>2026-04-05T05:26:59.286Z</time></trkpt><trkpt lat="41.4566632" lon="12.8943236"><ele>26.0</ele><time>2026-04-05T05:27:01.286Z</time></trkpt><trkpt lat="41.4565573" lon="12.8943082"><ele>26.0</ele><time>2026-04-05T05:27:03.286Z</time></trkpt><trkpt lat="41.4564563" lon="12.894267"><ele>26.0</ele><time>2026-04-05T05:27:05.286Z</time></trkpt><trkpt lat="41.4563639" lon="12.894207"><ele>26.0</ele><time>2026-04-05T05:27:07.286Z</time></trkpt><trkpt lat="41.4562756" lon="12.8941524"><ele>25.8</ele><time>2026-04-05T05:27:09.286Z</time></trkpt><trkpt lat="41.4561842" lon="12.8941043"><ele>25.6</ele><time>2026-04-05T05:27:11.286Z</time></trkpt><trkpt lat="41.4560935" lon="12.8940525"><ele>25.4</ele><time>2026-04-05T05:27:13.286Z</time></trkpt><trkpt lat="41.4560007" lon="12.8940065"><ele>25.2</ele><time>2026-04-05T05:27:15.286Z</time></trkpt><trkpt lat="41.4559043" lon="12.8939534"><ele>25.0</ele><time>2026-04-05T05:27:17.286Z</time></trkpt><trkpt lat="41.4558006" lon="12.8939074"><ele>25.0</ele><time>2026-04-05T05:27:19.286Z</time></trkpt><trkpt lat="41.4557026" lon="12.8938506"><ele>25.0</ele><time>2026-04-05T05:27:21.286Z</time></trkpt><trkpt lat="41.4556041" lon="12.8937919"><ele>25.0</ele><time>2026-04-05T05:27:23.286Z</time></trkpt><trkpt lat="41.4555054" lon="12.8937372"><ele>25.0</ele><time>2026-04-05T05:27:25.286Z</time></trkpt><trkpt lat="41.455412" lon="12.8936773"><ele>25.0</ele><time>2026-04-05T05:27:27.286Z</time></trkpt><trkpt lat="41.4553171" lon="12.8936278"><ele>24.8</ele><time>2026-04-05T05:27:29.285Z</time></trkpt><trkpt lat="41.4552246" lon="12.8935696"><ele>24.6</ele><time>2026-04-05T05:27:31.286Z</time></trkpt><trkpt lat="41.4551345" lon="12.8934939"><ele>24.4</ele><time>2026-04-05T05:27:33.286Z</time></trkpt><trkpt lat="41.4550377" lon="12.8934399"><ele>24.2</ele><time>2026-04-05T05:27:35.286Z</time></trkpt><trkpt lat="41.4549417" lon="12.8933839"><ele>24.0</ele><time>2026-04-05T05:27:37.286Z</time></trkpt><trkpt lat="41.4548441" lon="12.8933328"><ele>24.0</ele><time>2026-04-05T05:27:39.286Z</time></trkpt><trkpt lat="41.4547442" lon="12.8932892"><ele>24.0</ele><time>2026-04-05T05:27:41.285Z</time></trkpt><trkpt lat="41.4546453" lon="12.89323"><ele>24.0</ele><time>2026-04-05T05:27:43.286Z</time></trkpt><trkpt lat="41.454553" lon="12.8931719"><ele>24.0</ele><time>2026-04-05T05:27:45.286Z</time></trkpt><trkpt lat="41.4544602" lon="12.8931204"><ele>24.0</ele><time>2026-04-05T05:27:47.285Z</time></trkpt><trkpt lat="41.4543733" lon="12.8930609"><ele>24.0</ele><time>2026-04-05T05:27:49.286Z</time></trkpt><trkpt lat="41.4542863" lon="12.8929945"><ele>24.0</ele><time>2026-04-05T05:27:51.286Z</time></trkpt><trkpt lat="41.454198" lon="12.8929416"><ele>24.0</ele><time>2026-04-05T05:27:53.285Z</time></trkpt><trkpt lat="41.4541033" lon="12.8928859"><ele>24.0</ele><time>2026-04-05T05:27:55.286Z</time></trkpt><trkpt lat="41.454011" lon="12.8928385"><ele>24.0</ele><time>2026-04-05T05:27:57.286Z</time></trkpt><trkpt lat="41.4539215" lon="12.8927959"><ele>24.0</ele><time>2026-04-05T05:27:59.286Z</time></trkpt><trkpt lat="41.4538374" lon="12.8927459"><ele>24.0</ele><time>2026-04-05T05:28:01.286Z</time></trkpt><trkpt lat="41.4537598" lon="12.8926896"><ele>24.0</ele><time>2026-04-05T05:28:03.286Z</time></trkpt><trkpt lat="41.4536853" lon="12.8926502"><ele>24.0</ele><time>2026-04-05T05:28:05.286Z</time></trkpt><trkpt lat="41.4536062" lon="12.8926172"><ele>24.0</ele><time>2026-04-05T05:28:07.286Z</time></trkpt><trkpt lat="41.4535294" lon="12.8925736"><ele>24.0</ele><time>2026-04-05T05:28:09.286Z</time></trkpt><trkpt lat="41.4534507" lon="12.8925225"><ele>24.2</ele><time>2026-04-05T05:28:11.286Z</time></trkpt><trkpt lat="41.4533649" lon="12.8924757"><ele>24.4</ele><time>2026-04-05T05:28:13.286Z</time></trkpt><trkpt lat="41.4532816" lon="12.8924212"><ele>24.6</ele><time>2026-04-05T05:28:15.286Z</time></trkpt><trkpt lat="41.4531883" lon="12.8923815"><ele>24.8</ele><time>2026-04-05T05:28:17.286Z</time></trkpt><trkpt lat="41.4531039" lon="12.8923287"><ele>25.0</ele><time>2026-04-05T05:28:19.286Z</time></trkpt><trkpt lat="41.453024" lon="12.8922841"><ele>24.666666666666668</ele><time>2026-04-05T05:28:21.286Z</time></trkpt><trkpt lat="41.4529433" lon="12.8922331"><ele>24.333333333333336</ele><time>2026-04-05T05:28:24.286Z</time></trkpt><trkpt lat="41.4528665" lon="12.8921987"><ele>24.0</ele><time>2026-04-05T05:28:27.286Z</time></trkpt><trkpt lat="41.4527853" lon="12.8921564"><ele>23.666666666666668</ele><time>2026-04-05T05:28:30.285Z</time></trkpt><trkpt lat="41.452726" lon="12.8921245"><ele>23.333333333333336</ele><time>2026-04-05T05:28:32.286Z</time></trkpt><trkpt lat="41.4526599" lon="12.8920865"><ele>23.0</ele><time>2026-04-05T05:28:34.286Z</time></trkpt><trkpt lat="41.4525902" lon="12.8920433"><ele>23.0</ele><time>2026-04-05T05:28:36.285Z</time></trkpt><trkpt lat="41.452518" lon="12.8920038"><ele>23.0</ele><time>2026-04-05T05:28:38.286Z</time></trkpt><trkpt lat="41.452446" lon="12.8919618"><ele>23.0</ele><time>2026-04-05T05:28:40.286Z</time></trkpt><trkpt lat="41.4523731" lon="12.8919139"><ele>23.0</ele><time>2026-04-05T05:28:42.286Z</time></trkpt><trkpt lat="41.4523" lon="12.8918671"><ele>23.0</ele><time>2026-04-05T05:28:44.286Z</time></trkpt><trkpt lat="41.4522303" lon="12.891823"><ele>23.0</ele><time>2026-04-05T05:28:46.285Z</time></trkpt><trkpt lat="41.4521632" lon="12.8917871"><ele>23.166666666666668</ele><time>2026-04-05T05:28:48.286Z</time></trkpt><trkpt lat="41.4521042" lon="12.8917532"><ele>23.333333333333336</ele><time>2026-04-05T05:28:50.286Z</time></trkpt><trkpt lat="41.4520425" lon="12.8917119"><ele>23.5</ele><time>2026-04-05T05:28:52.286Z</time></trkpt><trkpt lat="41.4519761" lon="12.891683"><ele>23.666666666666668</ele><time>2026-04-05T05:28:54.286Z</time></trkpt><trkpt lat="41.4519022" lon="12.8916435"><ele>23.833333333333332</ele><time>2026-04-05T05:28:56.286Z</time></trkpt><trkpt lat="41.4518246" lon="12.8916"><ele>24.0</ele><time>2026-04-05T05:28:58.285Z</time></trkpt><trkpt lat="41.4517459" lon="12.8915508"><ele>24.0</ele><time>2026-04-05T05:29:00.286Z</time></trkpt><trkpt lat="41.4516686" lon="12.8915011"><ele>24.0</ele><time>2026-04-05T05:29:02.286Z</time></trkpt><trkpt lat="41.4515867" lon="12.8914539"><ele>24.0</ele><time>2026-04-05T05:29:04.286Z</time></trkpt><trkpt lat="41.4515033" lon="12.8914104"><ele>24.0</ele><time>2026-04-05T05:29:06.286Z</time></trkpt><trkpt lat="41.4514244" lon="12.8913581"><ele>24.0</ele><time>2026-04-05T05:29:08.285Z</time></trkpt><trkpt lat="41.4513503" lon="12.8912946"><ele>24.0</ele><time>2026-04-05T05:29:10.285Z</time></trkpt><trkpt lat="41.4512712" lon="12.8912467"><ele>24.0</ele><time>2026-04-05T05:29:12.286Z</time></trkpt><trkpt lat="41.4511865" lon="12.8912189"><ele>24.0</ele><time>2026-04-05T05:29:14.286Z</time></trkpt><trkpt lat="41.451111" lon="12.8911776"><ele>24.0</ele><time>2026-04-05T05:29:16.286Z</time></trkpt><trkpt lat="41.4510354" lon="12.8911284"><ele>24.0</ele><time>2026-04-05T05:29:18.286Z</time></trkpt><trkpt lat="41.4509579" lon="12.8910732"><ele>24.0</ele><time>2026-04-05T05:29:20.286Z</time></trkpt><trkpt lat="41.4508758" lon="12.8910246"><ele>24.0</ele><time>2026-04-05T05:29:22.286Z</time></trkpt><trkpt lat="41.4507874" lon="12.8909803"><ele>24.0</ele><time>2026-04-05T05:29:24.286Z</time></trkpt><trkpt lat="41.4507036" lon="12.8909233"><ele>24.0</ele><time>2026-04-05T05:29:26.286Z</time></trkpt><trkpt lat="41.4506157" lon="12.8908711"><ele>24.0</ele><time>2026-04-05T05:29:28.285Z</time></trkpt><trkpt lat="41.4505261" lon="12.8908279"><ele>24.0</ele><time>2026-04-05T05:29:30.285Z</time></trkpt><trkpt lat="41.4504409" lon="12.8907928"><ele>24.0</ele><time>2026-04-05T05:29:32.286Z</time></trkpt><trkpt lat="41.4503537" lon="12.8907474"><ele>23.833333333333332</ele><time>2026-04-05T05:29:34.286Z</time></trkpt><trkpt lat="41.4502728" lon="12.8907033"><ele>23.666666666666668</ele><time>2026-04-05T05:29:36.286Z</time></trkpt><trkpt lat="41.4501928" lon="12.8906596"><ele>23.5</ele><time>2026-04-05T05:29:38.286Z</time></trkpt><trkpt lat="41.4501142" lon="12.8906133"><ele>23.333333333333336</ele><time>2026-04-05T05:29:40.286Z</time></trkpt><trkpt lat="41.4500355" lon="12.8905647"><ele>23.166666666666668</ele><time>2026-04-05T05:29:42.286Z</time></trkpt><trkpt lat="41.4499485" lon="12.8905153"><ele>23.0</ele><time>2026-04-05T05:29:44.286Z</time></trkpt><trkpt lat="41.4498721" lon="12.8904649"><ele>23.0</ele><time>2026-04-05T05:29:46.286Z</time></trkpt><trkpt lat="41.4497998" lon="12.8904127"><ele>23.0</ele><time>2026-04-05T05:29:48.286Z</time></trkpt><trkpt lat="41.4497229" lon="12.890367"><ele>23.0</ele><time>2026-04-05T05:29:50.286Z</time></trkpt><trkpt lat="41.4496499" lon="12.890318"><ele>23.0</ele><time>2026-04-05T05:29:52.286Z</time></trkpt><trkpt lat="41.4495778" lon="12.8902687"><ele>23.0</ele><time>2026-04-05T05:29:54.286Z</time></trkpt><trkpt lat="41.4495084" lon="12.8902216"><ele>23.0</ele><time>2026-04-05T05:29:56.286Z</time></trkpt><trkpt lat="41.4494361" lon="12.8901936"><ele>23.0</ele><time>2026-04-05T05:29:58.286Z</time></trkpt><trkpt lat="41.4493694" lon="12.8901559"><ele>23.0</ele><time>2026-04-05T05:30:00.286Z</time></trkpt><trkpt lat="41.4492995" lon="12.89012"><ele>23.0</ele><time>2026-04-05T05:30:02.286Z</time></trkpt><trkpt lat="41.4492293" lon="12.8900772"><ele>23.0</ele><time>2026-04-05T05:30:04.286Z</time></trkpt><trkpt lat="41.4491673" lon="12.8900477"><ele>23.0</ele><time>2026-04-05T05:30:06.286Z</time></trkpt><trkpt lat="41.4491056" lon="12.890019"><ele>23.0</ele><time>2026-04-05T05:30:08.286Z</time></trkpt><trkpt lat="41.4490436" lon="12.8899767"><ele>23.0</ele><time>2026-04-05T05:30:10.286Z</time></trkpt><trkpt lat="41.4489773" lon="12.8899386"><ele>23.0</ele><time>2026-04-05T05:30:12.286Z</time></trkpt><trkpt lat="41.4489073" lon="12.8898983"><ele>23.0</ele><time>2026-04-05T05:30:14.286Z</time></trkpt><trkpt lat="41.4488342" lon="12.8898607"><ele>23.0</ele><time>2026-04-05T05:30:16.285Z</time></trkpt><trkpt lat="41.4487612" lon="12.8898165"><ele>23.0</ele><time>2026-04-05T05:30:18.286Z</time></trkpt><trkpt lat="41.4486835" lon="12.8897775"><ele>23.0</ele><time>2026-04-05T05:30:20.286Z</time></trkpt><trkpt lat="41.4486086" lon="12.8897366"><ele>23.0</ele><time>2026-04-05T05:30:22.286Z</time></trkpt><trkpt lat="41.4485327" lon="12.8896949"><ele>23.166666666666668</ele><time>2026-04-05T05:30:24.286Z</time></trkpt><trkpt lat="41.4484512" lon="12.8896623"><ele>23.333333333333336</ele><time>2026-04-05T05:30:26.286Z</time></trkpt><trkpt lat="41.44837" lon="12.8896206"><ele>23.5</ele><time>2026-04-05T05:30:28.286Z</time></trkpt><trkpt lat="41.4482903" lon="12.889574"><ele>23.666666666666668</ele><time>2026-04-05T05:30:30.286Z</time></trkpt><trkpt lat="41.4482117" lon="12.8895268"><ele>23.833333333333332</ele><time>2026-04-05T05:30:32.286Z</time></trkpt><trkpt lat="41.4481348" lon="12.8894827"><ele>24.0</ele><time>2026-04-05T05:30:34.286Z</time></trkpt><trkpt lat="41.4480593" lon="12.889437"><ele>24.0</ele><time>2026-04-05T05:30:36.286Z</time></trkpt><trkpt lat="41.4479837" lon="12.8893915"><ele>24.0</ele><time>2026-04-05T05:30:38.286Z</time></trkpt><trkpt lat="41.447912" lon="12.8893441"><ele>24.0</ele><time>2026-04-05T05:30:40.286Z</time></trkpt><trkpt lat="41.4478546" lon="12.8892869"><ele>24.0</ele><time>2026-04-05T05:30:42.286Z</time></trkpt><trkpt lat="41.4477906" lon="12.8892249"><ele>24.0</ele><time>2026-04-05T05:30:44.286Z</time></trkpt><trkpt lat="41.4477341" lon="12.8891565"><ele>24.0</ele><time>2026-04-05T05:30:46.286Z</time></trkpt><trkpt lat="41.4476937" lon="12.889068"><ele>23.666666666666668</ele><time>2026-04-05T05:30:48.286Z</time></trkpt><trkpt lat="41.4476509" lon="12.8889718"><ele>23.333333333333332</ele><time>2026-04-05T05:30:50.286Z</time></trkpt><trkpt lat="41.4475953" lon="12.8888834"><ele>23.0</ele><time>2026-04-05T05:30:52.286Z</time></trkpt><trkpt lat="41.447503" lon="12.8888378"><ele>22.666666666666664</ele><time>2026-04-05T05:30:54.286Z</time></trkpt><trkpt lat="41.4474119" lon="12.8888316"><ele>22.333333333333332</ele><time>2026-04-05T05:30:56.286Z</time></trkpt><trkpt lat="41.4473241" lon="12.8888406"><ele>22.0</ele><time>2026-04-05T05:30:58.286Z</time></trkpt><trkpt lat="41.4472411" lon="12.888863"><ele>22.0</ele><time>2026-04-05T05:31:00.286Z</time></trkpt><trkpt lat="41.4471504" lon="12.8888722"><ele>22.0</ele><time>2026-04-05T05:31:02.286Z</time></trkpt><trkpt lat="41.4470549" lon="12.8888614"><ele>22.0</ele><time>2026-04-05T05:31:04.286Z</time></trkpt><trkpt lat="41.446958" lon="12.8888359"><ele>22.0</ele><time>2026-04-05T05:31:06.286Z</time></trkpt><trkpt lat="41.4468695" lon="12.8887871"><ele>22.0</ele><time>2026-04-05T05:31:08.286Z</time></trkpt><trkpt lat="41.4467861" lon="12.8887222"><ele>22.0</ele><time>2026-04-05T05:31:10.286Z</time></trkpt><trkpt lat="41.4467032" lon="12.8886774"><ele>22.0</ele><time>2026-04-05T05:31:12.286Z</time></trkpt><trkpt lat="41.4466225" lon="12.8886273"><ele>22.0</ele><time>2026-04-05T05:31:14.285Z</time></trkpt><trkpt lat="41.4465359" lon="12.8885705"><ele>22.0</ele><time>2026-04-05T05:31:16.286Z</time></trkpt><trkpt lat="41.4464545" lon="12.8885169"><ele>22.0</ele><time>2026-04-05T05:31:18.286Z</time></trkpt><trkpt lat="41.4463816" lon="12.8884576"><ele>21.833333333333332</ele><time>2026-04-05T05:31:20.285Z</time></trkpt><trkpt lat="41.4463306" lon="12.8883763"><ele>21.666666666666664</ele><time>2026-04-05T05:31:22.286Z</time></trkpt><trkpt lat="41.446312" lon="12.88828"><ele>21.5</ele><time>2026-04-05T05:31:24.286Z</time></trkpt><trkpt lat="41.4463213" lon="12.8881911"><ele>21.333333333333332</ele><time>2026-04-05T05:31:26.286Z</time></trkpt><trkpt lat="41.4463074" lon="12.888083"><ele>21.166666666666668</ele><time>2026-04-05T05:31:29.286Z</time></trkpt><trkpt lat="41.4462157" lon="12.888085"><ele>21.0</ele><time>2026-04-05T05:31:32.285Z</time></trkpt><trkpt lat="41.4461809" lon="12.8881668"><ele>21.5</ele><time>2026-04-05T05:31:34.286Z</time></trkpt><trkpt lat="41.4461303" lon="12.88824"><ele>22.0</ele><time>2026-04-05T05:31:36.286Z</time></trkpt><trkpt lat="41.4460553" lon="12.8882679"><ele>22.5</ele><time>2026-04-05T05:31:38.286Z</time></trkpt><trkpt lat="41.4459744" lon="12.8882521"><ele>23.0</ele><time>2026-04-05T05:31:40.286Z</time></trkpt><trkpt lat="41.4459006" lon="12.888201"><ele>23.5</ele><time>2026-04-05T05:31:42.285Z</time></trkpt><trkpt lat="41.4458241" lon="12.8881559"><ele>24.0</ele><time>2026-04-05T05:31:44.286Z</time></trkpt><trkpt lat="41.4457465" lon="12.8881162"><ele>24.0</ele><time>2026-04-05T05:31:46.286Z</time></trkpt><trkpt lat="41.4456744" lon="12.8880654"><ele>24.0</ele><time>2026-04-05T05:31:48.286Z</time></trkpt><trkpt lat="41.4456199" lon="12.8879874"><ele>24.0</ele><time>2026-04-05T05:31:50.286Z</time></trkpt><trkpt lat="41.4455473" lon="12.8879355"><ele>24.0</ele><time>2026-04-05T05:31:52.286Z</time></trkpt><trkpt lat="41.4454649" lon="12.8879176"><ele>24.0</ele><time>2026-04-05T05:31:54.286Z</time></trkpt><trkpt lat="41.4453787" lon="12.8879057"><ele>24.0</ele><time>2026-04-05T05:31:56.286Z</time></trkpt><trkpt lat="41.4452969" lon="12.8878493"><ele>23.666666666666668</ele><time>2026-04-05T05:31:58.286Z</time></trkpt><trkpt lat="41.4452175" lon="12.8878012"><ele>23.333333333333332</ele><time>2026-04-05T05:32:00.286Z</time></trkpt><trkpt lat="41.4451368" lon="12.8877545"><ele>23.0</ele><time>2026-04-05T05:32:02.286Z</time></trkpt><trkpt lat="41.4450597" lon="12.8877033"><ele>22.666666666666664</ele><time>2026-04-05T05:32:04.286Z</time></trkpt><trkpt lat="41.4449792" lon="12.8876562"><ele>22.333333333333332</ele><time>2026-04-05T05:32:06.286Z</time></trkpt><trkpt lat="41.44489" lon="12.8876051"><ele>22.0</ele><time>2026-04-05T05:32:08.286Z</time></trkpt><trkpt lat="41.444809" lon="12.887545"><ele>22.0</ele><time>2026-04-05T05:32:10.286Z</time></trkpt><trkpt lat="41.4447208" lon="12.8875016"><ele>22.0</ele><time>2026-04-05T05:32:12.286Z</time></trkpt><trkpt lat="41.4446351" lon="12.887454"><ele>22.0</ele><time>2026-04-05T05:32:14.286Z</time></trkpt><trkpt lat="41.4445479" lon="12.887403"><ele>22.0</ele><time>2026-04-05T05:32:16.286Z</time></trkpt><trkpt lat="41.4444605" lon="12.8873521"><ele>22.0</ele><time>2026-04-05T05:32:18.286Z</time></trkpt><trkpt lat="41.4443746" lon="12.8872975"><ele>22.200000000000003</ele><time>2026-04-05T05:32:20.286Z</time></trkpt><trkpt lat="41.4442875" lon="12.8872448"><ele>22.4</ele><time>2026-04-05T05:32:22.286Z</time></trkpt><trkpt lat="41.4442007" lon="12.8871941"><ele>22.6</ele><time>2026-04-05T05:32:24.286Z</time></trkpt><trkpt lat="41.4441168" lon="12.8871367"><ele>22.799999999999997</ele><time>2026-04-05T05:32:26.286Z</time></trkpt><trkpt lat="41.4440285" lon="12.8870908"><ele>23.0</ele><time>2026-04-05T05:32:28.286Z</time></trkpt><trkpt lat="41.4439367" lon="12.8870386"><ele>23.0</ele><time>2026-04-05T05:32:30.286Z</time></trkpt><trkpt lat="41.4438464" lon="12.8869875"><ele>23.0</ele><time>2026-04-05T05:32:32.285Z</time></trkpt><trkpt lat="41.4437573" lon="12.886932"><ele>23.0</ele><time>2026-04-05T05:32:34.286Z</time></trkpt><trkpt lat="41.4436654" lon="12.8868824"><ele>23.0</ele><time>2026-04-05T05:32:36.286Z</time></trkpt><trkpt lat="41.4435718" lon="12.8868283"><ele>23.0</ele><time>2026-04-05T05:32:38.286Z</time></trkpt><trkpt lat="41.4434774" lon="12.8867631"><ele>23.2</ele><time>2026-04-05T05:32:40.286Z</time></trkpt><trkpt lat="41.4433811" lon="12.8867039"><ele>23.4</ele><time>2026-04-05T05:32:42.286Z</time></trkpt><trkpt lat="41.443283" lon="12.8866472"><ele>23.599999999999998</ele><time>2026-04-05T05:32:44.286Z</time></trkpt><trkpt lat="41.4431889" lon="12.8865883"><ele>23.799999999999997</ele><time>2026-04-05T05:32:46.286Z</time></trkpt><trkpt lat="41.4430921" lon="12.8865336"><ele>24.0</ele><time>2026-04-05T05:32:48.286Z</time></trkpt><trkpt lat="41.4429946" lon="12.8864796"><ele>23.799999999999997</ele><time>2026-04-05T05:32:50.286Z</time></trkpt><trkpt lat="41.442898" lon="12.8864162"><ele>23.599999999999998</ele><time>2026-04-05T05:32:52.286Z</time></trkpt><trkpt lat="41.4428" lon="12.8863569"><ele>23.4</ele><time>2026-04-05T05:32:54.286Z</time></trkpt><trkpt lat="41.4427031" lon="12.8862975"><ele>23.2</ele><time>2026-04-05T05:32:56.286Z</time></trkpt><trkpt lat="41.4426036" lon="12.8862377"><ele>23.0</ele><time>2026-04-05T05:32:58.286Z</time></trkpt><trkpt lat="41.4425022" lon="12.8861767"><ele>23.0</ele><time>2026-04-05T05:33:00.286Z</time></trkpt><trkpt lat="41.4423963" lon="12.8861125"><ele>23.0</ele><time>2026-04-05T05:33:02.286Z</time></trkpt><trkpt lat="41.4422922" lon="12.886048"><ele>23.0</ele><time>2026-04-05T05:33:04.286Z</time></trkpt><trkpt lat="41.4421866" lon="12.8859881"><ele>23.0</ele><time>2026-04-05T05:33:06.286Z</time></trkpt><trkpt lat="41.4420749" lon="12.8859193"><ele>22.5</ele><time>2026-04-05T05:33:08.286Z</time></trkpt><trkpt lat="41.4419696" lon="12.8858616"><ele>22.0</ele><time>2026-04-05T05:33:10.285Z</time></trkpt><trkpt lat="41.4418653" lon="12.8857925"><ele>21.5</ele><time>2026-04-05T05:33:12.286Z</time></trkpt><trkpt lat="41.4417614" lon="12.8857264"><ele>21.0</ele><time>2026-04-05T05:33:14.286Z</time></trkpt><trkpt lat="41.4416545" lon="12.8856696"><ele>21.0</ele><time>2026-04-05T05:33:16.286Z</time></trkpt><trkpt lat="41.4415456" lon="12.8856079"><ele>21.0</ele><time>2026-04-05T05:33:18.286Z</time></trkpt><trkpt lat="41.4414412" lon="12.8855393"><ele>21.0</ele><time>2026-04-05T05:33:20.286Z</time></trkpt><trkpt lat="41.4413376" lon="12.8854694"><ele>21.0</ele><time>2026-04-05T05:33:22.286Z</time></trkpt><trkpt lat="41.4412283" lon="12.8854097"><ele>20.5</ele><time>2026-04-05T05:33:24.286Z</time></trkpt><trkpt lat="41.4411137" lon="12.8853407"><ele>20.0</ele><time>2026-04-05T05:33:26.285Z</time></trkpt><trkpt lat="41.4409974" lon="12.8852762"><ele>19.5</ele><time>2026-04-05T05:33:28.286Z</time></trkpt><trkpt lat="41.4408848" lon="12.8852087"><ele>19.0</ele><time>2026-04-05T05:33:30.286Z</time></trkpt><trkpt lat="41.4407735" lon="12.8851474"><ele>19.0</ele><time>2026-04-05T05:33:32.285Z</time></trkpt><trkpt lat="41.4407155" lon="12.8851143"><ele>19.0</ele><time>2026-04-05T05:33:33.286Z</time></trkpt><trkpt lat="41.4406579" lon="12.8850792"><ele>19.0</ele><time>2026-04-05T05:33:34.286Z</time></trkpt><trkpt lat="41.4405986" lon="12.8850466"><ele>19.0</ele><time>2026-04-05T05:33:35.286Z</time></trkpt><trkpt lat="41.4404864" lon="12.8849837"><ele>19.0</ele><time>2026-04-05T05:33:37.286Z</time></trkpt><trkpt lat="41.4403787" lon="12.8849107"><ele>19.0</ele><time>2026-04-05T05:33:39.285Z</time></trkpt><trkpt lat="41.4402876" lon="12.8848032"><ele>19.4</ele><time>2026-04-05T05:33:41.286Z</time></trkpt><trkpt lat="41.4401711" lon="12.8847626"><ele>19.799999999999997</ele><time>2026-04-05T05:33:43.286Z</time></trkpt><trkpt lat="41.4400555" lon="12.884717"><ele>20.200000000000003</ele><time>2026-04-05T05:33:45.286Z</time></trkpt><trkpt lat="41.4399972" lon="12.8846843"><ele>20.6</ele><time>2026-04-05T05:33:46.286Z</time></trkpt><trkpt lat="41.4398831" lon="12.8846176"><ele>21.0</ele><time>2026-04-05T05:33:48.286Z</time></trkpt><trkpt lat="41.4397773" lon="12.8845338"><ele>21.0</ele><time>2026-04-05T05:33:50.286Z</time></trkpt><trkpt lat="41.4396804" lon="12.8844322"><ele>21.0</ele><time>2026-04-05T05:33:52.286Z</time></trkpt><trkpt lat="41.4396233" lon="12.884313"><ele>21.0</ele><time>2026-04-05T05:33:54.286Z</time></trkpt><trkpt lat="41.4395981" lon="12.8842244"><ele>21.0</ele><time>2026-04-05T05:33:56.286Z</time></trkpt><trkpt lat="41.4395328" lon="12.8841875"><ele>21.0</ele><time>2026-04-05T05:33:58.286Z</time></trkpt><trkpt lat="41.4394523" lon="12.8841797"><ele>20.2</ele><time>2026-04-05T05:34:00.286Z</time></trkpt><trkpt lat="41.4393614" lon="12.8841985"><ele>19.400000000000002</ele><time>2026-04-05T05:34:02.286Z</time></trkpt><trkpt lat="41.439261" lon="12.8842049"><ele>18.6</ele><time>2026-04-05T05:34:04.286Z</time></trkpt><trkpt lat="41.4391604" lon="12.8841735"><ele>17.8</ele><time>2026-04-05T05:34:06.285Z</time></trkpt><trkpt lat="41.4390618" lon="12.884122"><ele>17.0</ele><time>2026-04-05T05:34:08.286Z</time></trkpt><trkpt lat="41.4389625" lon="12.8840606"><ele>17.0</ele><time>2026-04-05T05:34:10.286Z</time></trkpt><trkpt lat="41.4388533" lon="12.8839966"><ele>17.0</ele><time>2026-04-05T05:34:12.286Z</time></trkpt><trkpt lat="41.4387396" lon="12.8839342"><ele>17.0</ele><time>2026-04-05T05:34:14.285Z</time></trkpt><trkpt lat="41.4386812" lon="12.8838984"><ele>17.0</ele><time>2026-04-05T05:34:15.285Z</time></trkpt><trkpt lat="41.4386224" lon="12.883863"><ele>17.0</ele><time>2026-04-05T05:34:16.286Z</time></trkpt><trkpt lat="41.4385613" lon="12.883831"><ele>17.0</ele><time>2026-04-05T05:34:17.285Z</time></trkpt><trkpt lat="41.4385003" lon="12.8837949"><ele>16.57142857142857</ele><time>2026-04-05T05:34:18.286Z</time></trkpt><trkpt lat="41.4384387" lon="12.883756"><ele>16.142857142857142</ele><time>2026-04-05T05:34:19.286Z</time></trkpt><trkpt lat="41.4383768" lon="12.8837154"><ele>15.714285714285714</ele><time>2026-04-05T05:34:20.285Z</time></trkpt><trkpt lat="41.4383113" lon="12.8836746"><ele>15.285714285714285</ele><time>2026-04-05T05:34:21.286Z</time></trkpt><trkpt lat="41.4382454" lon="12.8836384"><ele>14.857142857142858</ele><time>2026-04-05T05:34:22.286Z</time></trkpt><trkpt lat="41.4381802" lon="12.8835978"><ele>14.428571428571429</ele><time>2026-04-05T05:34:23.286Z</time></trkpt><trkpt lat="41.4381134" lon="12.8835575"><ele>14.0</ele><time>2026-04-05T05:34:24.286Z</time></trkpt><trkpt lat="41.4380505" lon="12.8835152"><ele>14.000000000000002</ele><time>2026-04-05T05:34:25.286Z</time></trkpt><trkpt lat="41.4379827" lon="12.8834733"><ele>14.0</ele><time>2026-04-05T05:34:26.285Z</time></trkpt><trkpt lat="41.4379146" lon="12.8834301"><ele>14.0</ele><time>2026-04-05T05:34:27.286Z</time></trkpt><trkpt lat="41.4378453" lon="12.88339"><ele>14.0</ele><time>2026-04-05T05:34:28.286Z</time></trkpt><trkpt lat="41.4377768" lon="12.883352"><ele>14.000000000000002</ele><time>2026-04-05T05:34:29.285Z</time></trkpt><trkpt lat="41.437708" lon="12.8833121"><ele>14.0</ele><time>2026-04-05T05:34:30.286Z</time></trkpt><trkpt lat="41.4376381" lon="12.8832682"><ele>13.666666666666668</ele><time>2026-04-05T05:34:31.286Z</time></trkpt><trkpt lat="41.4375713" lon="12.8832219"><ele>13.333333333333334</ele><time>2026-04-05T05:34:32.286Z</time></trkpt><trkpt lat="41.4375019" lon="12.8831815"><ele>13.0</ele><time>2026-04-05T05:34:33.286Z</time></trkpt><trkpt lat="41.4374317" lon="12.8831398"><ele>12.666666666666668</ele><time>2026-04-05T05:34:34.286Z</time></trkpt><trkpt lat="41.4373615" lon="12.8831009"><ele>12.333333333333334</ele><time>2026-04-05T05:34:35.285Z</time></trkpt><trkpt lat="41.4372924" lon="12.88306"><ele>12.0</ele><time>2026-04-05T05:34:36.285Z</time></trkpt><trkpt lat="41.4372249" lon="12.883022"><ele>12.0</ele><time>2026-04-05T05:34:37.286Z</time></trkpt><trkpt lat="41.437156" lon="12.8829846"><ele>12.0</ele><time>2026-04-05T05:34:38.286Z</time></trkpt><trkpt lat="41.4370876" lon="12.882946"><ele>12.0</ele><time>2026-04-05T05:34:39.286Z</time></trkpt><trkpt lat="41.4370179" lon="12.8829115"><ele>12.0</ele><time>2026-04-05T05:34:40.286Z</time></trkpt><trkpt lat="41.436946" lon="12.8828732"><ele>12.0</ele><time>2026-04-05T05:34:41.286Z</time></trkpt><trkpt lat="41.4368764" lon="12.8828334"><ele>12.0</ele><time>2026-04-05T05:34:42.286Z</time></trkpt><trkpt lat="41.4368043" lon="12.8827926"><ele>11.833333333333334</ele><time>2026-04-05T05:34:43.286Z</time></trkpt><trkpt lat="41.4367324" lon="12.8827503"><ele>11.666666666666666</ele><time>2026-04-05T05:34:44.286Z</time></trkpt><trkpt lat="41.4366571" lon="12.8827088"><ele>11.5</ele><time>2026-04-05T05:34:45.286Z</time></trkpt><trkpt lat="41.4365804" lon="12.8826723"><ele>11.333333333333332</ele><time>2026-04-05T05:34:46.286Z</time></trkpt><trkpt lat="41.4365029" lon="12.8826343"><ele>11.166666666666666</ele><time>2026-04-05T05:34:47.286Z</time></trkpt><trkpt lat="41.4364258" lon="12.882596"><ele>11.0</ele><time>2026-04-05T05:34:48.286Z</time></trkpt><trkpt lat="41.436351" lon="12.8825596"><ele>10.166666666666666</ele><time>2026-04-05T05:34:49.286Z</time></trkpt><trkpt lat="41.4362764" lon="12.8825192"><ele>9.333333333333332</ele><time>2026-04-05T05:34:50.286Z</time></trkpt><trkpt lat="41.4362063" lon="12.8824828"><ele>8.5</ele><time>2026-04-05T05:34:51.286Z</time></trkpt><trkpt lat="41.436136" lon="12.8824436"><ele>7.666666666666666</ele><time>2026-04-05T05:34:52.286Z</time></trkpt><trkpt lat="41.4360648" lon="12.8824079"><ele>6.833333333333333</ele><time>2026-04-05T05:34:53.286Z</time></trkpt><trkpt lat="41.4359954" lon="12.8823735"><ele>6.0</ele><time>2026-04-05T05:34:54.286Z</time></trkpt><trkpt lat="41.4359333" lon="12.8823281"><ele>5.999999999999999</ele><time>2026-04-05T05:34:55.286Z</time></trkpt><trkpt lat="41.4358719" lon="12.8822755"><ele>6.0</ele><time>2026-04-05T05:34:56.286Z</time></trkpt><trkpt lat="41.4358081" lon="12.8822452"><ele>6.0</ele><time>2026-04-05T05:34:57.286Z</time></trkpt><trkpt lat="41.4357409" lon="12.8822341"><ele>6.0</ele><time>2026-04-05T05:34:58.285Z</time></trkpt><trkpt lat="41.4356732" lon="12.8822267"><ele>6.0</ele><time>2026-04-05T05:34:59.285Z</time></trkpt><trkpt lat="41.4356067" lon="12.8822028"><ele>5.999999999999999</ele><time>2026-04-05T05:35:00.284Z</time></trkpt><trkpt lat="41.4355374" lon="12.8821761"><ele>6.0</ele><time>2026-04-05T05:35:01.285Z</time></trkpt><trkpt lat="41.4354651" lon="12.8821479"><ele>5.666666666666667</ele><time>2026-04-05T05:35:02.285Z</time></trkpt><trkpt lat="41.4353889" lon="12.8821198"><ele>5.333333333333333</ele><time>2026-04-05T05:35:03.286Z</time></trkpt><trkpt lat="41.4353104" lon="12.8820899"><ele>5.0</ele><time>2026-04-05T05:35:04.286Z</time></trkpt><trkpt lat="41.4352305" lon="12.8820558"><ele>4.666666666666666</ele><time>2026-04-05T05:35:05.286Z</time></trkpt><trkpt lat="41.4351489" lon="12.8820317"><ele>4.333333333333333</ele><time>2026-04-05T05:35:06.286Z</time></trkpt><trkpt lat="41.4350642" lon="12.8820082"><ele>4.0</ele><time>2026-04-05T05:35:07.286Z</time></trkpt><trkpt lat="41.4349827" lon="12.8819811"><ele>3.9999999999999996</ele><time>2026-04-05T05:35:08.286Z</time></trkpt><trkpt lat="41.434901" lon="12.8819496"><ele>4.0</ele><time>2026-04-05T05:35:09.286Z</time></trkpt><trkpt lat="41.4348199" lon="12.8819216"><ele>4.0</ele><time>2026-04-05T05:35:10.286Z</time></trkpt><trkpt lat="41.4347386" lon="12.8818929"><ele>4.0</ele><time>2026-04-05T05:35:11.286Z</time></trkpt><trkpt lat="41.4346582" lon="12.8818641"><ele>3.9999999999999996</ele><time>2026-04-05T05:35:12.286Z</time></trkpt><trkpt lat="41.434579" lon="12.8818375"><ele>4.0</ele><time>2026-04-05T05:35:13.286Z</time></trkpt><trkpt lat="41.4345" lon="12.8818116"><ele>4.166666666666666</ele><time>2026-04-05T05:35:14.285Z</time></trkpt><trkpt lat="41.434422" lon="12.8817853"><ele>4.333333333333333</ele><time>2026-04-05T05:35:15.285Z</time></trkpt><trkpt lat="41.4343456" lon="12.8817596"><ele>4.5</ele><time>2026-04-05T05:35:16.286Z</time></trkpt><trkpt lat="41.4342697" lon="12.8817374"><ele>4.666666666666667</ele><time>2026-04-05T05:35:17.285Z</time></trkpt><trkpt lat="41.4341953" lon="12.8817145"><ele>4.833333333333334</ele><time>2026-04-05T05:35:18.287Z</time></trkpt><trkpt lat="41.4341202" lon="12.8816892"><ele>5.0</ele><time>2026-04-05T05:35:19.285Z</time></trkpt><trkpt lat="41.4340447" lon="12.8816649"><ele>5.166666666666667</ele><time>2026-04-05T05:35:20.287Z</time></trkpt><trkpt lat="41.4339685" lon="12.8816468"><ele>5.333333333333334</ele><time>2026-04-05T05:35:21.286Z</time></trkpt><trkpt lat="41.433892" lon="12.8816258"><ele>5.5</ele><time>2026-04-05T05:35:22.287Z</time></trkpt><trkpt lat="41.4338167" lon="12.8816012"><ele>5.666666666666667</ele><time>2026-04-05T05:35:23.287Z</time></trkpt><trkpt lat="41.4337433" lon="12.881577"><ele>5.833333333333333</ele><time>2026-04-05T05:35:24.286Z</time></trkpt><trkpt lat="41.4336717" lon="12.8815539"><ele>6.0</ele><time>2026-04-05T05:35:25.287Z</time></trkpt><trkpt lat="41.4336005" lon="12.8815369"><ele>6.285714285714285</ele><time>2026-04-05T05:35:26.287Z</time></trkpt><trkpt lat="41.433528" lon="12.8815216"><ele>6.571428571428571</ele><time>2026-04-05T05:35:27.286Z</time></trkpt><trkpt lat="41.4334583" lon="12.8815045"><ele>6.857142857142857</ele><time>2026-04-05T05:35:28.287Z</time></trkpt><trkpt lat="41.4333896" lon="12.8814887"><ele>7.142857142857142</ele><time>2026-04-05T05:35:29.287Z</time></trkpt><trkpt lat="41.4333209" lon="12.881468"><ele>7.428571428571428</ele><time>2026-04-05T05:35:30.286Z</time></trkpt><trkpt lat="41.4332562" lon="12.881452"><ele>7.7142857142857135</ele><time>2026-04-05T05:35:31.287Z</time></trkpt><trkpt lat="41.4331872" lon="12.8814405"><ele>8.0</ele><time>2026-04-05T05:35:32.287Z</time></trkpt><trkpt lat="41.4331226" lon="12.8814267"><ele>7.999999999999999</ele><time>2026-04-05T05:35:33.287Z</time></trkpt><trkpt lat="41.4330602" lon="12.8814123"><ele>8.0</ele><time>2026-04-05T05:35:34.287Z</time></trkpt><trkpt lat="41.4329982" lon="12.881397"><ele>8.0</ele><time>2026-04-05T05:35:35.287Z</time></trkpt><trkpt lat="41.4329353" lon="12.8813846"><ele>8.0</ele><time>2026-04-05T05:35:36.287Z</time></trkpt><trkpt lat="41.4328132" lon="12.8813632"><ele>7.999999999999999</ele><time>2026-04-05T05:35:38.287Z</time></trkpt><trkpt lat="41.4326964" lon="12.8813401"><ele>8.0</ele><time>2026-04-05T05:35:40.287Z</time></trkpt><trkpt lat="41.4325841" lon="12.8813138"><ele>8.200000000000001</ele><time>2026-04-05T05:35:42.287Z</time></trkpt><trkpt lat="41.4324737" lon="12.8813075"><ele>8.4</ele><time>2026-04-05T05:35:44.287Z</time></trkpt><trkpt lat="41.4323681" lon="12.8812872"><ele>8.600000000000001</ele><time>2026-04-05T05:35:46.287Z</time></trkpt><trkpt lat="41.4322662" lon="12.8812617"><ele>8.8</ele><time>2026-04-05T05:35:48.287Z</time></trkpt><trkpt lat="41.4321649" lon="12.8812457"><ele>9.0</ele><time>2026-04-05T05:35:50.287Z</time></trkpt><trkpt lat="41.4320651" lon="12.8812247"><ele>9.2</ele><time>2026-04-05T05:35:52.287Z</time></trkpt><trkpt lat="41.4319679" lon="12.8812092"><ele>9.4</ele><time>2026-04-05T05:35:54.287Z</time></trkpt><trkpt lat="41.4318698" lon="12.8811877"><ele>9.6</ele><time>2026-04-05T05:35:56.287Z</time></trkpt><trkpt lat="41.4317688" lon="12.8811699"><ele>9.8</ele><time>2026-04-05T05:35:58.286Z</time></trkpt><trkpt lat="41.4316716" lon="12.8811499"><ele>10.0</ele><time>2026-04-05T05:36:00.287Z</time></trkpt><trkpt lat="41.4315765" lon="12.8811227"><ele>10.0</ele><time>2026-04-05T05:36:02.287Z</time></trkpt><trkpt lat="41.4314771" lon="12.8810974"><ele>10.0</ele><time>2026-04-05T05:36:04.287Z</time></trkpt><trkpt lat="41.4313763" lon="12.8810861"><ele>10.0</ele><time>2026-04-05T05:36:06.287Z</time></trkpt><trkpt lat="41.4312752" lon="12.8810714"><ele>10.0</ele><time>2026-04-05T05:36:08.287Z</time></trkpt><trkpt lat="41.4311732" lon="12.8810518"><ele>10.0</ele><time>2026-04-05T05:36:10.287Z</time></trkpt><trkpt lat="41.4310728" lon="12.8810316"><ele>10.0</ele><time>2026-04-05T05:36:12.287Z</time></trkpt><trkpt lat="41.4309663" lon="12.8810165"><ele>10.0</ele><time>2026-04-05T05:36:14.287Z</time></trkpt><trkpt lat="41.4308588" lon="12.8809949"><ele>10.0</ele><time>2026-04-05T05:36:16.286Z</time></trkpt><trkpt lat="41.4307487" lon="12.8809743"><ele>10.0</ele><time>2026-04-05T05:36:18.287Z</time></trkpt><trkpt lat="41.4306426" lon="12.8809501"><ele>10.0</ele><time>2026-04-05T05:36:20.287Z</time></trkpt><trkpt lat="41.4305289" lon="12.8809263"><ele>10.4</ele><time>2026-04-05T05:36:22.287Z</time></trkpt><trkpt lat="41.4304131" lon="12.8809097"><ele>10.8</ele><time>2026-04-05T05:36:24.287Z</time></trkpt><trkpt lat="41.4303016" lon="12.880891"><ele>11.2</ele><time>2026-04-05T05:36:26.287Z</time></trkpt><trkpt lat="41.4301937" lon="12.8808705"><ele>11.6</ele><time>2026-04-05T05:36:28.286Z</time></trkpt><trkpt lat="41.4300833" lon="12.8808498"><ele>12.0</ele><time>2026-04-05T05:36:30.287Z</time></trkpt><trkpt lat="41.4299764" lon="12.8808305"><ele>12.0</ele><time>2026-04-05T05:36:32.287Z</time></trkpt><trkpt lat="41.4298655" lon="12.8808113"><ele>12.0</ele><time>2026-04-05T05:36:34.287Z</time></trkpt><trkpt lat="41.4297491" lon="12.8807844"><ele>12.0</ele><time>2026-04-05T05:36:36.286Z</time></trkpt><trkpt lat="41.4296311" lon="12.880754"><ele>12.0</ele><time>2026-04-05T05:36:38.287Z</time></trkpt><trkpt lat="41.4295138" lon="12.8807335"><ele>12.25</ele><time>2026-04-05T05:36:40.287Z</time></trkpt><trkpt lat="41.4293937" lon="12.8807147"><ele>12.5</ele><time>2026-04-05T05:36:42.286Z</time></trkpt><trkpt lat="41.42927" lon="12.8806955"><ele>12.75</ele><time>2026-04-05T05:36:44.287Z</time></trkpt><trkpt lat="41.4291487" lon="12.8806687"><ele>13.0</ele><time>2026-04-05T05:36:46.287Z</time></trkpt><trkpt lat="41.4290291" lon="12.8806463"><ele>13.0</ele><time>2026-04-05T05:36:48.287Z</time></trkpt><trkpt lat="41.4289084" lon="12.8806247"><ele>13.0</ele><time>2026-04-05T05:36:50.287Z</time></trkpt><trkpt lat="41.4287873" lon="12.8806008"><ele>13.0</ele><time>2026-04-05T05:36:52.287Z</time></trkpt><trkpt lat="41.4286803" lon="12.8805642"><ele>13.0</ele><time>2026-04-05T05:36:54.287Z</time></trkpt><trkpt lat="41.4285807" lon="12.8805116"><ele>13.0</ele><time>2026-04-05T05:36:56.287Z</time></trkpt><trkpt lat="41.4284772" lon="12.8805262"><ele>13.0</ele><time>2026-04-05T05:36:58.287Z</time></trkpt><trkpt lat="41.4283753" lon="12.8805201"><ele>13.0</ele><time>2026-04-05T05:37:00.287Z</time></trkpt><trkpt lat="41.4282631" lon="12.8805029"><ele>13.0</ele><time>2026-04-05T05:37:02.287Z</time></trkpt><trkpt lat="41.4281417" lon="12.8804795"><ele>13.0</ele><time>2026-04-05T05:37:04.287Z</time></trkpt><trkpt lat="41.4280801" lon="12.880462"><ele>12.200000000000001</ele><time>2026-04-05T05:37:05.287Z</time></trkpt><trkpt lat="41.4279563" lon="12.88043"><ele>11.4</ele><time>2026-04-05T05:37:07.286Z</time></trkpt><trkpt lat="41.4278931" lon="12.8804185"><ele>10.600000000000001</ele><time>2026-04-05T05:37:08.287Z</time></trkpt><trkpt lat="41.4277715" lon="12.8803976"><ele>9.8</ele><time>2026-04-05T05:37:10.287Z</time></trkpt><trkpt lat="41.427706" lon="12.8803895"><ele>9.0</ele><time>2026-04-05T05:37:11.286Z</time></trkpt><trkpt lat="41.42759" lon="12.8803197"><ele>9.0</ele><time>2026-04-05T05:37:13.287Z</time></trkpt><trkpt lat="41.4274714" lon="12.8802788"><ele>9.0</ele><time>2026-04-05T05:37:15.287Z</time></trkpt><trkpt lat="41.4274073" lon="12.8802836"><ele>9.0</ele><time>2026-04-05T05:37:16.287Z</time></trkpt><trkpt lat="41.4273444" lon="12.8802915"><ele>9.0</ele><time>2026-04-05T05:37:17.287Z</time></trkpt><trkpt lat="41.4272205" lon="12.8802996"><ele>9.0</ele><time>2026-04-05T05:37:19.287Z</time></trkpt><trkpt lat="41.427099" lon="12.880281"><ele>8.5</ele><time>2026-04-05T05:37:21.287Z</time></trkpt><trkpt lat="41.4270363" lon="12.880268"><ele>8.0</ele><time>2026-04-05T05:37:22.287Z</time></trkpt><trkpt lat="41.4269726" lon="12.8802541"><ele>7.5</ele><time>2026-04-05T05:37:23.287Z</time></trkpt><trkpt lat="41.4269084" lon="12.8802449"><ele>7.0</ele><time>2026-04-05T05:37:24.287Z</time></trkpt><trkpt lat="41.4267822" lon="12.8802258"><ele>6.5</ele><time>2026-04-05T05:37:26.287Z</time></trkpt><trkpt lat="41.4267183" lon="12.8802103"><ele>6.0</ele><time>2026-04-05T05:37:27.286Z</time></trkpt><trkpt lat="41.4265947" lon="12.880174"><ele>5.999999999999999</ele><time>2026-04-05T05:37:29.287Z</time></trkpt><trkpt lat="41.426531" lon="12.8801647"><ele>6.0</ele><time>2026-04-05T05:37:30.287Z</time></trkpt><trkpt lat="41.4264656" lon="12.8801581"><ele>6.0</ele><time>2026-04-05T05:37:31.287Z</time></trkpt><trkpt lat="41.4264019" lon="12.8801475"><ele>6.0</ele><time>2026-04-05T05:37:32.287Z</time></trkpt><trkpt lat="41.426337" lon="12.8801345"><ele>6.0</ele><time>2026-04-05T05:37:33.287Z</time></trkpt><trkpt lat="41.4262724" lon="12.8801185"><ele>5.999999999999999</ele><time>2026-04-05T05:37:34.287Z</time></trkpt><trkpt lat="41.4262074" lon="12.8801045"><ele>6.0</ele><time>2026-04-05T05:37:35.286Z</time></trkpt><trkpt lat="41.4261406" lon="12.8800857"><ele>6.285714285714285</ele><time>2026-04-05T05:37:36.287Z</time></trkpt><trkpt lat="41.426074" lon="12.8800686"><ele>6.571428571428571</ele><time>2026-04-05T05:37:37.287Z</time></trkpt><trkpt lat="41.426006" lon="12.8800526"><ele>6.857142857142857</ele><time>2026-04-05T05:37:38.287Z</time></trkpt><trkpt lat="41.4259396" lon="12.8800334"><ele>7.142857142857142</ele><time>2026-04-05T05:37:39.287Z</time></trkpt><trkpt lat="41.4258719" lon="12.880016"><ele>7.428571428571428</ele><time>2026-04-05T05:37:40.286Z</time></trkpt><trkpt lat="41.4258043" lon="12.880003"><ele>7.7142857142857135</ele><time>2026-04-05T05:37:41.286Z</time></trkpt><trkpt lat="41.4257358" lon="12.8799863"><ele>8.0</ele><time>2026-04-05T05:37:42.287Z</time></trkpt><trkpt lat="41.4256687" lon="12.8799668"><ele>8.0</ele><time>2026-04-05T05:37:43.287Z</time></trkpt><trkpt lat="41.4255996" lon="12.8799521"><ele>7.999999999999999</ele><time>2026-04-05T05:37:44.287Z</time></trkpt><trkpt lat="41.4255329" lon="12.87993"><ele>8.0</ele><time>2026-04-05T05:37:45.287Z</time></trkpt><trkpt lat="41.4254657" lon="12.8799117"><ele>8.0</ele><time>2026-04-05T05:37:46.287Z</time></trkpt><trkpt lat="41.4253997" lon="12.8798953"><ele>7.999999999999999</ele><time>2026-04-05T05:37:47.287Z</time></trkpt><trkpt lat="41.4253316" lon="12.8798753"><ele>8.0</ele><time>2026-04-05T05:37:48.287Z</time></trkpt><trkpt lat="41.425263" lon="12.8798573"><ele>8.0</ele><time>2026-04-05T05:37:49.287Z</time></trkpt><trkpt lat="41.4251958" lon="12.8798372"><ele>7.571428571428571</ele><time>2026-04-05T05:37:50.287Z</time></trkpt><trkpt lat="41.4251306" lon="12.8798177"><ele>7.142857142857142</ele><time>2026-04-05T05:37:51.287Z</time></trkpt><trkpt lat="41.4250648" lon="12.8797977"><ele>6.7142857142857135</ele><time>2026-04-05T05:37:52.287Z</time></trkpt><trkpt lat="41.4249996" lon="12.8797771"><ele>6.285714285714286</ele><time>2026-04-05T05:37:53.287Z</time></trkpt><trkpt lat="41.4249339" lon="12.8797561"><ele>5.857142857142858</ele><time>2026-04-05T05:37:54.287Z</time></trkpt><trkpt lat="41.4248678" lon="12.879737"><ele>5.428571428571429</ele><time>2026-04-05T05:37:55.287Z</time></trkpt><trkpt lat="41.4248038" lon="12.8797142"><ele>5.0</ele><time>2026-04-05T05:37:56.286Z</time></trkpt><trkpt lat="41.4247403" lon="12.8796947"><ele>5.0</ele><time>2026-04-05T05:37:57.287Z</time></trkpt><trkpt lat="41.4246786" lon="12.8796755"><ele>5.0</ele><time>2026-04-05T05:37:58.287Z</time></trkpt><trkpt lat="41.4246145" lon="12.8796562"><ele>5.0</ele><time>2026-04-05T05:37:59.287Z</time></trkpt><trkpt lat="41.4245513" lon="12.8796358"><ele>5.0</ele><time>2026-04-05T05:38:00.286Z</time></trkpt><trkpt lat="41.4244863" lon="12.8796209"><ele>5.0</ele><time>2026-04-05T05:38:01.287Z</time></trkpt><trkpt lat="41.4244239" lon="12.8796067"><ele>5.0</ele><time>2026-04-05T05:38:02.287Z</time></trkpt><trkpt lat="41.4242988" lon="12.8795681"><ele>5.0</ele><time>2026-04-05T05:38:04.286Z</time></trkpt><trkpt lat="41.4242367" lon="12.8795472"><ele>5.0</ele><time>2026-04-05T05:38:05.287Z</time></trkpt><trkpt lat="41.4241744" lon="12.8795263"><ele>5.0</ele><time>2026-04-05T05:38:06.287Z</time></trkpt><trkpt lat="41.4241108" lon="12.879509"><ele>5.0</ele><time>2026-04-05T05:38:07.287Z</time></trkpt><trkpt lat="41.4240465" lon="12.879488"><ele>5.0</ele><time>2026-04-05T05:38:08.287Z</time></trkpt><trkpt lat="41.4239838" lon="12.8794659"><ele>5.0</ele><time>2026-04-05T05:38:09.287Z</time></trkpt><trkpt lat="41.4239182" lon="12.8794478"><ele>5.0</ele><time>2026-04-05T05:38:10.287Z</time></trkpt><trkpt lat="41.4238542" lon="12.8794254"><ele>5.0</ele><time>2026-04-05T05:38:11.287Z</time></trkpt><trkpt lat="41.423792" lon="12.8794061"><ele>5.0</ele><time>2026-04-05T05:38:12.287Z</time></trkpt><trkpt lat="41.4237264" lon="12.8793839"><ele>5.0</ele><time>2026-04-05T05:38:13.287Z</time></trkpt><trkpt lat="41.4236644" lon="12.8793605"><ele>5.0</ele><time>2026-04-05T05:38:14.287Z</time></trkpt><trkpt lat="41.4235977" lon="12.8793407"><ele>5.0</ele><time>2026-04-05T05:38:15.287Z</time></trkpt><trkpt lat="41.42353" lon="12.8793162"><ele>5.0</ele><time>2026-04-05T05:38:16.286Z</time></trkpt><trkpt lat="41.4234644" lon="12.879294"><ele>5.0</ele><time>2026-04-05T05:38:17.287Z</time></trkpt><trkpt lat="41.4234016" lon="12.8792713"><ele>5.0</ele><time>2026-04-05T05:38:18.287Z</time></trkpt><trkpt lat="41.4233384" lon="12.8792503"><ele>5.0</ele><time>2026-04-05T05:38:19.286Z</time></trkpt><trkpt lat="41.4232754" lon="12.8792244"><ele>5.0</ele><time>2026-04-05T05:38:20.287Z</time></trkpt><trkpt lat="41.4232135" lon="12.8792"><ele>5.0</ele><time>2026-04-05T05:38:21.287Z</time></trkpt><trkpt lat="41.423149" lon="12.8791781"><ele>5.0</ele><time>2026-04-05T05:38:22.287Z</time></trkpt><trkpt lat="41.4230846" lon="12.8791543"><ele>5.0</ele><time>2026-04-05T05:38:23.286Z</time></trkpt><trkpt lat="41.4230195" lon="12.8791254"><ele>5.0</ele><time>2026-04-05T05:38:24.286Z</time></trkpt><trkpt lat="41.422957" lon="12.8791005"><ele>4.833333333333334</ele><time>2026-04-05T05:38:25.287Z</time></trkpt><trkpt lat="41.4228939" lon="12.8790761"><ele>4.666666666666667</ele><time>2026-04-05T05:38:26.287Z</time></trkpt><trkpt lat="41.4228297" lon="12.8790513"><ele>4.5</ele><time>2026-04-05T05:38:27.286Z</time></trkpt><trkpt lat="41.4227094" lon="12.8790008"><ele>4.333333333333333</ele><time>2026-04-05T05:38:29.287Z</time></trkpt><trkpt lat="41.4225903" lon="12.8789476"><ele>4.166666666666666</ele><time>2026-04-05T05:38:31.287Z</time></trkpt><trkpt lat="41.4225348" lon="12.8789048"><ele>4.0</ele><time>2026-04-05T05:38:32.287Z</time></trkpt><trkpt lat="41.4224774" lon="12.8788633"><ele>4.0</ele><time>2026-04-05T05:38:33.286Z</time></trkpt><trkpt lat="41.4224173" lon="12.8788361"><ele>4.0</ele><time>2026-04-05T05:38:34.287Z</time></trkpt><trkpt lat="41.422354" lon="12.8788298"><ele>4.0</ele><time>2026-04-05T05:38:35.287Z</time></trkpt><trkpt lat="41.4222309" lon="12.8788004"><ele>4.0</ele><time>2026-04-05T05:38:37.287Z</time></trkpt><trkpt lat="41.4221123" lon="12.8787462"><ele>4.0</ele><time>2026-04-05T05:38:39.287Z</time></trkpt><trkpt lat="41.4219971" lon="12.8786935"><ele>4.2</ele><time>2026-04-05T05:38:41.286Z</time></trkpt><trkpt lat="41.4219354" lon="12.8786684"><ele>4.4</ele><time>2026-04-05T05:38:42.287Z</time></trkpt><trkpt lat="41.4218178" lon="12.8786166"><ele>4.6</ele><time>2026-04-05T05:38:44.287Z</time></trkpt><trkpt lat="41.4217571" lon="12.8785915"><ele>4.8</ele><time>2026-04-05T05:38:45.287Z</time></trkpt><trkpt lat="41.4216386" lon="12.8785392"><ele>5.0</ele><time>2026-04-05T05:38:47.286Z</time></trkpt><trkpt lat="41.4215261" lon="12.8784854"><ele>5.0</ele><time>2026-04-05T05:38:49.287Z</time></trkpt><trkpt lat="41.4214079" lon="12.8784416"><ele>5.0</ele><time>2026-04-05T05:38:51.287Z</time></trkpt><trkpt lat="41.4212907" lon="12.8783905"><ele>5.0</ele><time>2026-04-05T05:38:53.286Z</time></trkpt><trkpt lat="41.4211734" lon="12.8783362"><ele>5.0</ele><time>2026-04-05T05:38:55.286Z</time></trkpt><trkpt lat="41.4210575" lon="12.8782823"><ele>4.6</ele><time>2026-04-05T05:38:57.287Z</time></trkpt><trkpt lat="41.4209476" lon="12.8782328"><ele>4.2</ele><time>2026-04-05T05:38:59.287Z</time></trkpt><trkpt lat="41.4208369" lon="12.878185"><ele>3.8</ele><time>2026-04-05T05:39:01.287Z</time></trkpt><trkpt lat="41.4207385" lon="12.8781264"><ele>3.4</ele><time>2026-04-05T05:39:03.287Z</time></trkpt><trkpt lat="41.4206408" lon="12.878086"><ele>3.0</ele><time>2026-04-05T05:39:05.287Z</time></trkpt><trkpt lat="41.42055" lon="12.8780452"><ele>2.6</ele><time>2026-04-05T05:39:07.287Z</time></trkpt><trkpt lat="41.4204581" lon="12.8780007"><ele>2.1999999999999997</ele><time>2026-04-05T05:39:09.287Z</time></trkpt><trkpt lat="41.4203902" lon="12.8779056"><ele>1.8</ele><time>2026-04-05T05:39:11.287Z</time></trkpt><trkpt lat="41.4203549" lon="12.8777894"><ele>1.4</ele><time>2026-04-05T05:39:13.287Z</time></trkpt><trkpt lat="41.4202828" lon="12.877753"><ele>1.0</ele><time>2026-04-05T05:39:15.287Z</time></trkpt><trkpt lat="41.4201952" lon="12.8777156"><ele>1.0</ele><time>2026-04-05T05:39:17.287Z</time></trkpt><trkpt lat="41.420095" lon="12.8777457"><ele>1.0</ele><time>2026-04-05T05:39:19.286Z</time></trkpt><trkpt lat="41.419984" lon="12.8777503"><ele>1.0</ele><time>2026-04-05T05:39:21.286Z</time></trkpt><trkpt lat="41.4198724" lon="12.8777079"><ele>1.0</ele><time>2026-04-05T05:39:23.286Z</time></trkpt><trkpt lat="41.4197545" lon="12.8776638"><ele>1.2000000000000002</ele><time>2026-04-05T05:39:25.287Z</time></trkpt><trkpt lat="41.419635" lon="12.8776159"><ele>1.4000000000000001</ele><time>2026-04-05T05:39:27.287Z</time></trkpt><trkpt lat="41.419515" lon="12.8775636"><ele>1.6</ele><time>2026-04-05T05:39:29.287Z</time></trkpt><trkpt lat="41.4194541" lon="12.8775381"><ele>1.8</ele><time>2026-04-05T05:39:30.287Z</time></trkpt><trkpt lat="41.4193353" lon="12.8774849"><ele>2.0</ele><time>2026-04-05T05:39:32.287Z</time></trkpt><trkpt lat="41.4192188" lon="12.8774278"><ele>1.9999999999999998</ele><time>2026-04-05T05:39:34.286Z</time></trkpt><trkpt lat="41.4191597" lon="12.8773988"><ele>2.0</ele><time>2026-04-05T05:39:35.287Z</time></trkpt><trkpt lat="41.4190994" lon="12.8773734"><ele>2.0</ele><time>2026-04-05T05:39:36.287Z</time></trkpt><trkpt lat="41.4189786" lon="12.8773223"><ele>2.0</ele><time>2026-04-05T05:39:38.287Z</time></trkpt><trkpt lat="41.4189164" lon="12.8772981"><ele>1.9999999999999998</ele><time>2026-04-05T05:39:39.286Z</time></trkpt><trkpt lat="41.4187999" lon="12.8772432"><ele>2.0</ele><time>2026-04-05T05:39:41.287Z</time></trkpt><trkpt lat="41.4186818" lon="12.8771915"><ele>2.0</ele><time>2026-04-05T05:39:43.287Z</time></trkpt><trkpt lat="41.418568" lon="12.8771411"><ele>2.0</ele><time>2026-04-05T05:39:45.287Z</time></trkpt><trkpt lat="41.4184542" lon="12.8770891"><ele>2.0</ele><time>2026-04-05T05:39:47.286Z</time></trkpt><trkpt lat="41.4183405" lon="12.8770314"><ele>2.0</ele><time>2026-04-05T05:39:49.287Z</time></trkpt><trkpt lat="41.4182303" lon="12.8769811"><ele>2.0</ele><time>2026-04-05T05:39:51.287Z</time></trkpt><trkpt lat="41.4181119" lon="12.8769312"><ele>2.0</ele><time>2026-04-05T05:39:53.287Z</time></trkpt><trkpt lat="41.4180503" lon="12.8768977"><ele>2.0</ele><time>2026-04-05T05:39:54.287Z</time></trkpt><trkpt lat="41.4179294" lon="12.8768409"><ele>2.0</ele><time>2026-04-05T05:39:56.286Z</time></trkpt><trkpt lat="41.4178656" lon="12.8768108"><ele>2.0</ele><time>2026-04-05T05:39:57.287Z</time></trkpt><trkpt lat="41.4178013" lon="12.876781"><ele>1.857142857142857</ele><time>2026-04-05T05:39:58.287Z</time></trkpt><trkpt lat="41.417739" lon="12.8767542"><ele>1.714285714285714</ele><time>2026-04-05T05:39:59.287Z</time></trkpt><trkpt lat="41.4176742" lon="12.8767275"><ele>1.5714285714285714</ele><time>2026-04-05T05:40:00.287Z</time></trkpt><trkpt lat="41.4176094" lon="12.876697"><ele>1.4285714285714284</ele><time>2026-04-05T05:40:01.287Z</time></trkpt><trkpt lat="41.4175434" lon="12.8766693"><ele>1.2857142857142856</ele><time>2026-04-05T05:40:02.287Z</time></trkpt><trkpt lat="41.4174797" lon="12.8766374"><ele>1.1428571428571428</ele><time>2026-04-05T05:40:03.287Z</time></trkpt><trkpt lat="41.4174153" lon="12.8766066"><ele>1.0</ele><time>2026-04-05T05:40:04.287Z</time></trkpt><trkpt lat="41.4173515" lon="12.8765777"><ele>1.0</ele><time>2026-04-05T05:40:05.287Z</time></trkpt><trkpt lat="41.4172901" lon="12.8765502"><ele>0.9999999999999999</ele><time>2026-04-05T05:40:06.287Z</time></trkpt><trkpt lat="41.4172281" lon="12.8765235"><ele>1.0</ele><time>2026-04-05T05:40:07.287Z</time></trkpt><trkpt lat="41.4171667" lon="12.8764961"><ele>1.0</ele><time>2026-04-05T05:40:08.287Z</time></trkpt><trkpt lat="41.4171035" lon="12.8764676"><ele>0.9999999999999999</ele><time>2026-04-05T05:40:09.286Z</time></trkpt><trkpt lat="41.4170431" lon="12.8764395"><ele>1.0</ele><time>2026-04-05T05:40:10.287Z</time></trkpt><trkpt lat="41.4169837" lon="12.876411"><ele>1.0</ele><time>2026-04-05T05:40:11.287Z</time></trkpt><trkpt lat="41.4168655" lon="12.8763587"><ele>1.2000000000000002</ele><time>2026-04-05T05:40:13.287Z</time></trkpt><trkpt lat="41.4168055" lon="12.8763312"><ele>1.4000000000000001</ele><time>2026-04-05T05:40:14.287Z</time></trkpt><trkpt lat="41.4166894" lon="12.8762811"><ele>1.6</ele><time>2026-04-05T05:40:16.287Z</time></trkpt><trkpt lat="41.4165759" lon="12.8762306"><ele>1.8</ele><time>2026-04-05T05:40:18.287Z</time></trkpt><trkpt lat="41.4164642" lon="12.876179"><ele>2.0</ele><time>2026-04-05T05:40:20.286Z</time></trkpt><trkpt lat="41.4163491" lon="12.8761307"><ele>1.75</ele><time>2026-04-05T05:40:22.287Z</time></trkpt><trkpt lat="41.4162378" lon="12.8760742"><ele>1.5</ele><time>2026-04-05T05:40:24.287Z</time></trkpt><trkpt lat="41.4161227" lon="12.8760209"><ele>1.25</ele><time>2026-04-05T05:40:26.286Z</time></trkpt><trkpt lat="41.416011" lon="12.8759751"><ele>1.0</ele><time>2026-04-05T05:40:28.287Z</time></trkpt><trkpt lat="41.4158985" lon="12.8759281"><ele>1.0</ele><time>2026-04-05T05:40:30.286Z</time></trkpt><trkpt lat="41.4157887" lon="12.8758775"><ele>1.0</ele><time>2026-04-05T05:40:32.287Z</time></trkpt><trkpt lat="41.4156816" lon="12.8758196"><ele>1.0</ele><time>2026-04-05T05:40:34.286Z</time></trkpt><trkpt lat="41.4155757" lon="12.8757673"><ele>1.0</ele><time>2026-04-05T05:40:36.287Z</time></trkpt><trkpt lat="41.4154654" lon="12.8757198"><ele>0.75</ele><time>2026-04-05T05:40:38.287Z</time></trkpt><trkpt lat="41.4153597" lon="12.8756707"><ele>0.5</ele><time>2026-04-05T05:40:40.287Z</time></trkpt><trkpt lat="41.4152499" lon="12.8756181"><ele>0.25</ele><time>2026-04-05T05:40:42.286Z</time></trkpt><trkpt lat="41.4151416" lon="12.8755721"><ele>0.0</ele><time>2026-04-05T05:40:44.287Z</time></trkpt><trkpt lat="41.4150341" lon="12.8755259"><ele>0.0</ele><time>2026-04-05T05:40:46.287Z</time></trkpt><trkpt lat="41.4149341" lon="12.87546"><ele>0.0</ele><time>2026-04-05T05:40:48.287Z</time></trkpt><trkpt lat="41.4148331" lon="12.8753976"><ele>0.0</ele><time>2026-04-05T05:40:50.287Z</time></trkpt><trkpt lat="41.4147256" lon="12.8753787"><ele>0.0</ele><time>2026-04-05T05:40:52.286Z</time></trkpt><trkpt lat="41.4146206" lon="12.8753563"><ele>0.0</ele><time>2026-04-05T05:40:54.287Z</time></trkpt><trkpt lat="41.4145236" lon="12.8753242"><ele>0.4</ele><time>2026-04-05T05:40:56.287Z</time></trkpt><trkpt lat="41.4144297" lon="12.8752841"><ele>0.8</ele><time>2026-04-05T05:40:58.287Z</time></trkpt><trkpt lat="41.4143346" lon="12.8752296"><ele>1.2000000000000002</ele><time>2026-04-05T05:41:00.287Z</time></trkpt><trkpt lat="41.4142352" lon="12.875182"><ele>1.6</ele><time>2026-04-05T05:41:02.286Z</time></trkpt><trkpt lat="41.4141284" lon="12.8751312"><ele>2.0</ele><time>2026-04-05T05:41:04.287Z</time></trkpt><trkpt lat="41.4140211" lon="12.8750797"><ele>2.0</ele><time>2026-04-05T05:41:06.287Z</time></trkpt><trkpt lat="41.4139083" lon="12.8750285"><ele>2.0</ele><time>2026-04-05T05:41:08.287Z</time></trkpt><trkpt lat="41.4137923" lon="12.8749779"><ele>2.0</ele><time>2026-04-05T05:41:10.287Z</time></trkpt><trkpt lat="41.4136759" lon="12.8749271"><ele>2.0</ele><time>2026-04-05T05:41:12.287Z</time></trkpt><trkpt lat="41.4135604" lon="12.8748683"><ele>2.0</ele><time>2026-04-05T05:41:14.287Z</time></trkpt><trkpt lat="41.4134434" lon="12.8748208"><ele>2.0</ele><time>2026-04-05T05:41:16.287Z</time></trkpt><trkpt lat="41.4133289" lon="12.87476"><ele>2.0</ele><time>2026-04-05T05:41:18.287Z</time></trkpt><trkpt lat="41.413218" lon="12.8747073"><ele>2.0</ele><time>2026-04-05T05:41:20.287Z</time></trkpt><trkpt lat="41.4131067" lon="12.8746562"><ele>2.0</ele><time>2026-04-05T05:41:22.287Z</time></trkpt><trkpt lat="41.4129952" lon="12.8746071"><ele>2.0</ele><time>2026-04-05T05:41:24.287Z</time></trkpt><trkpt lat="41.4128844" lon="12.8745613"><ele>2.0</ele><time>2026-04-05T05:41:26.286Z</time></trkpt><trkpt lat="41.4127732" lon="12.8745041"><ele>2.0</ele><time>2026-04-05T05:41:28.287Z</time></trkpt><trkpt lat="41.4126588" lon="12.8744506"><ele>1.5</ele><time>2026-04-05T05:41:30.287Z</time></trkpt><trkpt lat="41.4125463" lon="12.8744002"><ele>1.0</ele><time>2026-04-05T05:41:32.287Z</time></trkpt><trkpt lat="41.4124321" lon="12.8743477"><ele>0.5</ele><time>2026-04-05T05:41:34.287Z</time></trkpt><trkpt lat="41.4123179" lon="12.8742988"><ele>0.0</ele><time>2026-04-05T05:41:36.287Z</time></trkpt><trkpt lat="41.4122038" lon="12.8742479"><ele>0.0</ele><time>2026-04-05T05:41:38.286Z</time></trkpt><trkpt lat="41.4120916" lon="12.8741904"><ele>0.0</ele><time>2026-04-05T05:41:40.287Z</time></trkpt><trkpt lat="41.4119761" lon="12.8741346"><ele>0.0</ele><time>2026-04-05T05:41:42.287Z</time></trkpt><trkpt lat="41.4118607" lon="12.8740856"><ele>0.0</ele><time>2026-04-05T05:41:44.286Z</time></trkpt><trkpt lat="41.4117461" lon="12.8740309"><ele>0.0</ele><time>2026-04-05T05:41:46.287Z</time></trkpt><trkpt lat="41.411634" lon="12.8739775"><ele>0.0</ele><time>2026-04-05T05:41:48.287Z</time></trkpt><trkpt lat="41.4115177" lon="12.8739284"><ele>0.0</ele><time>2026-04-05T05:41:50.287Z</time></trkpt><trkpt lat="41.4114043" lon="12.8738769"><ele>0.0</ele><time>2026-04-05T05:41:52.287Z</time></trkpt><trkpt lat="41.4112916" lon="12.8738248"><ele>0.0</ele><time>2026-04-05T05:41:54.287Z</time></trkpt><trkpt lat="41.41118" lon="12.8737698"><ele>0.0</ele><time>2026-04-05T05:41:56.287Z</time></trkpt><trkpt lat="41.4110672" lon="12.873719"><ele>0.0</ele><time>2026-04-05T05:41:58.287Z</time></trkpt><trkpt lat="41.4109532" lon="12.8736751"><ele>0.0</ele><time>2026-04-05T05:42:00.287Z</time></trkpt><trkpt lat="41.4108934" lon="12.8736487"><ele>0.0</ele><time>2026-04-05T05:42:01.287Z</time></trkpt><trkpt lat="41.410784" lon="12.8735937"><ele>0.0</ele><time>2026-04-05T05:42:03.287Z</time></trkpt><trkpt lat="41.4106792" lon="12.8735523"><ele>0.0</ele><time>2026-04-05T05:42:05.287Z</time></trkpt><trkpt lat="41.4105814" lon="12.8735054"><ele>0.0</ele><time>2026-04-05T05:42:07.287Z</time></trkpt><trkpt lat="41.4104848" lon="12.8734677"><ele>0.0</ele><time>2026-04-05T05:42:09.286Z</time></trkpt><trkpt lat="41.4103883" lon="12.8734291"><ele>0.0</ele><time>2026-04-05T05:42:11.287Z</time></trkpt><trkpt lat="41.4102928" lon="12.8733798"><ele>0.0</ele><time>2026-04-05T05:42:13.287Z</time></trkpt><trkpt lat="41.410193" lon="12.8733343"><ele>0.0</ele><time>2026-04-05T05:42:15.287Z</time></trkpt><trkpt lat="41.4100977" lon="12.8732856"><ele>0.0</ele><time>2026-04-05T05:42:17.287Z</time></trkpt><trkpt lat="41.4099979" lon="12.8732386"><ele>0.0</ele><time>2026-04-05T05:42:19.286Z</time></trkpt><trkpt lat="41.4098973" lon="12.8731948"><ele>0.0</ele><time>2026-04-05T05:42:21.287Z</time></trkpt><trkpt lat="41.409795" lon="12.8731506"><ele>0.0</ele><time>2026-04-05T05:42:23.287Z</time></trkpt><trkpt lat="41.4096932" lon="12.8730992"><ele>0.0</ele><time>2026-04-05T05:42:25.287Z</time></trkpt><trkpt lat="41.4095922" lon="12.8730536"><ele>0.0</ele><time>2026-04-05T05:42:27.287Z</time></trkpt><trkpt lat="41.4094917" lon="12.8730091"><ele>0.0</ele><time>2026-04-05T05:42:29.287Z</time></trkpt><trkpt lat="41.4093904" lon="12.8729622"><ele>0.0</ele><time>2026-04-05T05:42:31.287Z</time></trkpt><trkpt lat="41.4092884" lon="12.872913"><ele>0.2</ele><time>2026-04-05T05:42:33.287Z</time></trkpt><trkpt lat="41.4091882" lon="12.8728715"><ele>0.4</ele><time>2026-04-05T05:42:35.287Z</time></trkpt><trkpt lat="41.4090912" lon="12.8728254"><ele>0.6000000000000001</ele><time>2026-04-05T05:42:37.287Z</time></trkpt><trkpt lat="41.4089919" lon="12.8727807"><ele>0.8</ele><time>2026-04-05T05:42:39.287Z</time></trkpt><trkpt lat="41.4088948" lon="12.8727375"><ele>1.0</ele><time>2026-04-05T05:42:41.287Z</time></trkpt><trkpt lat="41.4087954" lon="12.8726986"><ele>1.0</ele><time>2026-04-05T05:42:43.287Z</time></trkpt><trkpt lat="41.4086983" lon="12.8726582"><ele>1.0</ele><time>2026-04-05T05:42:45.286Z</time></trkpt><trkpt lat="41.4086091" lon="12.8726169"><ele>1.0</ele><time>2026-04-05T05:42:47.287Z</time></trkpt><trkpt lat="41.4085147" lon="12.8725728"><ele>1.0</ele><time>2026-04-05T05:42:49.287Z</time></trkpt><trkpt lat="41.4084196" lon="12.8725332"><ele>1.0</ele><time>2026-04-05T05:42:51.287Z</time></trkpt><trkpt lat="41.4083223" lon="12.8724896"><ele>0.9999999999999999</ele><time>2026-04-05T05:42:53.287Z</time></trkpt><trkpt lat="41.4082286" lon="12.8724485"><ele>1.0</ele><time>2026-04-05T05:42:55.286Z</time></trkpt><trkpt lat="41.4081414" lon="12.8724033"><ele>1.0</ele><time>2026-04-05T05:42:57.287Z</time></trkpt><trkpt lat="41.4080606" lon="12.8723611"><ele>1.0</ele><time>2026-04-05T05:42:59.287Z</time></trkpt><trkpt lat="41.4079803" lon="12.8723273"><ele>0.9999999999999999</ele><time>2026-04-05T05:43:01.287Z</time></trkpt><trkpt lat="41.4079035" lon="12.8722832"><ele>1.0</ele><time>2026-04-05T05:43:03.287Z</time></trkpt><trkpt lat="41.4078241" lon="12.8722494"><ele>1.0</ele><time>2026-04-05T05:43:05.287Z</time></trkpt><trkpt lat="41.4077398" lon="12.8722167"><ele>1.0</ele><time>2026-04-05T05:43:07.287Z</time></trkpt><trkpt lat="41.4076536" lon="12.8721777"><ele>1.0</ele><time>2026-04-05T05:43:09.287Z</time></trkpt><trkpt lat="41.4075635" lon="12.8721363"><ele>1.0</ele><time>2026-04-05T05:43:11.287Z</time></trkpt><trkpt lat="41.4074701" lon="12.8720955"><ele>1.0</ele><time>2026-04-05T05:43:13.287Z</time></trkpt><trkpt lat="41.4073763" lon="12.8720486"><ele>1.0</ele><time>2026-04-05T05:43:15.287Z</time></trkpt><trkpt lat="41.4072783" lon="12.8720061"><ele>1.0</ele><time>2026-04-05T05:43:17.287Z</time></trkpt><trkpt lat="41.4071869" lon="12.8719585"><ele>1.0</ele><time>2026-04-05T05:43:19.287Z</time></trkpt><trkpt lat="41.4070948" lon="12.8719094"><ele>1.0</ele><time>2026-04-05T05:43:21.287Z</time></trkpt><trkpt lat="41.4069999" lon="12.8718647"><ele>1.0</ele><time>2026-04-05T05:43:23.287Z</time></trkpt><trkpt lat="41.4069086" lon="12.8718212"><ele>1.2000000000000002</ele><time>2026-04-05T05:43:25.287Z</time></trkpt><trkpt lat="41.4068201" lon="12.8717839"><ele>1.4000000000000001</ele><time>2026-04-05T05:43:27.287Z</time></trkpt><trkpt lat="41.4067309" lon="12.871751"><ele>1.6</ele><time>2026-04-05T05:43:29.287Z</time></trkpt><trkpt lat="41.4066437" lon="12.8717153"><ele>1.8</ele><time>2026-04-05T05:43:31.287Z</time></trkpt><trkpt lat="41.4065581" lon="12.8716766"><ele>2.0</ele><time>2026-04-05T05:43:33.287Z</time></trkpt><trkpt lat="41.4064783" lon="12.8716377"><ele>1.9999999999999998</ele><time>2026-04-05T05:43:35.287Z</time></trkpt><trkpt lat="41.4064056" lon="12.8716124"><ele>2.0</ele><time>2026-04-05T05:43:37.287Z</time></trkpt><trkpt lat="41.4063569" lon="12.8715585"><ele>2.0</ele><time>2026-04-05T05:43:39.287Z</time></trkpt><trkpt lat="41.4063501" lon="12.8714437"><ele>2.0</ele><time>2026-04-05T05:43:42.287Z</time></trkpt><trkpt lat="41.4063756" lon="12.8713243"><ele>1.9999999999999998</ele><time>2026-04-05T05:43:45.287Z</time></trkpt><trkpt lat="41.4063864" lon="12.8712113"><ele>2.0</ele><time>2026-04-05T05:43:48.287Z</time></trkpt><trkpt lat="41.4063757" lon="12.8711049"><ele>2.142857142857143</ele><time>2026-04-05T05:43:51.287Z</time></trkpt><trkpt lat="41.4063104" lon="12.8710852"><ele>2.2857142857142856</ele><time>2026-04-05T05:43:54.287Z</time></trkpt><trkpt lat="41.4062795" lon="12.8711662"><ele>2.4285714285714284</ele><time>2026-04-05T05:43:56.287Z</time></trkpt><trkpt lat="41.406249" lon="12.8712497"><ele>2.571428571428571</ele><time>2026-04-05T05:43:58.287Z</time></trkpt><trkpt lat="41.4062162" lon="12.8713261"><ele>2.7142857142857144</ele><time>2026-04-05T05:44:00.287Z</time></trkpt><trkpt lat="41.4061271" lon="12.8713344"><ele>2.8571428571428568</ele><time>2026-04-05T05:44:03.286Z</time></trkpt><trkpt lat="41.4060606" lon="12.8712789"><ele>3.0</ele><time>2026-04-05T05:44:06.287Z</time></trkpt><trkpt lat="41.4059958" lon="12.8712405"><ele>3.0</ele><time>2026-04-05T05:44:09.287Z</time></trkpt><trkpt lat="41.4059216" lon="12.8712055"><ele>3.0</ele><time>2026-04-05T05:44:12.287Z</time></trkpt><trkpt lat="41.4058517" lon="12.8711396"><ele>3.0</ele><time>2026-04-05T05:44:15.287Z</time></trkpt><trkpt lat="41.4057736" lon="12.8710995"><ele>3.0</ele><time>2026-04-05T05:44:18.286Z</time></trkpt><trkpt lat="41.4057036" lon="12.8710642"><ele>3.0</ele><time>2026-04-05T05:44:21.287Z</time></trkpt><trkpt lat="41.4056447" lon="12.8709999"><ele>3.0</ele><time>2026-04-05T05:44:24.286Z</time></trkpt><trkpt lat="41.4055822" lon="12.871039"><ele>3.0</ele><time>2026-04-05T05:44:28.287Z</time></trkpt><trkpt lat="41.4056516" lon="12.87112"><ele>3.0</ele><time>2026-04-05T05:46:56.287Z</time></trkpt><trkpt lat="41.4057244" lon="12.8711432"><ele>3.0</ele><time>2026-04-05T05:46:59.287Z</time></trkpt><trkpt lat="41.4058012" lon="12.8711813"><ele>3.0</ele><time>2026-04-05T05:47:02.287Z</time></trkpt><trkpt lat="41.4058542" lon="12.8712657"><ele>3.0</ele><time>2026-04-05T05:47:05.287Z</time></trkpt><trkpt lat="41.4058556" lon="12.8713903"><ele>3.0</ele><time>2026-04-05T05:47:08.287Z</time></trkpt><trkpt lat="41.4059031" lon="12.8714979"><ele>3.0</ele><time>2026-04-05T05:47:11.286Z</time></trkpt><trkpt lat="41.4059478" lon="12.8715977"><ele>3.0</ele><time>2026-04-05T05:47:14.287Z</time></trkpt><trkpt lat="41.4059985" lon="12.8716921"><ele>3.0</ele><time>2026-04-05T05:47:17.286Z</time></trkpt><trkpt lat="41.4060576" lon="12.8717849"><ele>3.0</ele><time>2026-04-05T05:47:20.287Z</time></trkpt><trkpt lat="41.4060533" lon="12.871892"><ele>3.0</ele><time>2026-04-05T05:47:23.287Z</time></trkpt><trkpt lat="41.4060058" lon="12.8719853"><ele>3.0</ele><time>2026-04-05T05:47:26.286Z</time></trkpt><trkpt lat="41.4059831" lon="12.8720824"><ele>2.9999999999999996</ele><time>2026-04-05T05:47:29.287Z</time></trkpt><trkpt lat="41.4060539" lon="12.8720885"><ele>3.0</ele><time>2026-04-05T05:47:32.287Z</time></trkpt><trkpt lat="41.4061019" lon="12.872029"><ele>3.0</ele><time>2026-04-05T05:47:34.287Z</time></trkpt><trkpt lat="41.4061341" lon="12.871946"><ele>3.0</ele><time>2026-04-05T05:47:36.287Z</time></trkpt><trkpt lat="41.4061776" lon="12.8718693"><ele>3.0</ele><time>2026-04-05T05:47:38.287Z</time></trkpt><trkpt lat="41.406222" lon="12.8718009"><ele>2.9999999999999996</ele><time>2026-04-05T05:47:40.287Z</time></trkpt><trkpt lat="41.4062774" lon="12.8717483"><ele>3.0</ele><time>2026-04-05T05:47:42.287Z</time></trkpt><trkpt lat="41.4063539" lon="12.8717399"><ele>2.8333333333333335</ele><time>2026-04-05T05:47:44.287Z</time></trkpt><trkpt lat="41.4064344" lon="12.8717653"><ele>2.6666666666666665</ele><time>2026-04-05T05:47:46.287Z</time></trkpt><trkpt lat="41.4065121" lon="12.8717541"><ele>2.5</ele><time>2026-04-05T05:47:48.287Z</time></trkpt><trkpt lat="41.4065793" lon="12.8717116"><ele>2.333333333333333</ele><time>2026-04-05T05:47:50.287Z</time></trkpt><trkpt lat="41.4066524" lon="12.8716952"><ele>2.1666666666666665</ele><time>2026-04-05T05:47:52.286Z</time></trkpt><trkpt lat="41.4067279" lon="12.8717231"><ele>2.0</ele><time>2026-04-05T05:47:54.287Z</time></trkpt><trkpt lat="41.4068027" lon="12.8717495"><ele>1.9999999999999998</ele><time>2026-04-05T05:47:56.287Z</time></trkpt><trkpt lat="41.4068803" lon="12.8717846"><ele>2.0</ele><time>2026-04-05T05:47:58.287Z</time></trkpt><trkpt lat="41.4069568" lon="12.8718294"><ele>2.0</ele><time>2026-04-05T05:48:00.287Z</time></trkpt><trkpt lat="41.4070345" lon="12.8718673"><ele>2.0</ele><time>2026-04-05T05:48:02.287Z</time></trkpt><trkpt lat="41.4071136" lon="12.8719029"><ele>1.9999999999999998</ele><time>2026-04-05T05:48:04.287Z</time></trkpt><trkpt lat="41.4071938" lon="12.8719429"><ele>2.0</ele><time>2026-04-05T05:48:06.287Z</time></trkpt><trkpt lat="41.4072748" lon="12.8719831"><ele>1.8</ele><time>2026-04-05T05:48:08.287Z</time></trkpt><trkpt lat="41.4073583" lon="12.8720218"><ele>1.6</ele><time>2026-04-05T05:48:10.287Z</time></trkpt><trkpt lat="41.4074418" lon="12.872061"><ele>1.4000000000000001</ele><time>2026-04-05T05:48:12.287Z</time></trkpt><trkpt lat="41.4075283" lon="12.8720957"><ele>1.2000000000000002</ele><time>2026-04-05T05:48:14.287Z</time></trkpt><trkpt lat="41.4076185" lon="12.872139"><ele>1.0</ele><time>2026-04-05T05:48:16.287Z</time></trkpt><trkpt lat="41.4077094" lon="12.8721858"><ele>1.0</ele><time>2026-04-05T05:48:18.286Z</time></trkpt><trkpt lat="41.4078065" lon="12.8722302"><ele>1.0</ele><time>2026-04-05T05:48:20.287Z</time></trkpt><trkpt lat="41.4079033" lon="12.8722717"><ele>1.0</ele><time>2026-04-05T05:48:22.287Z</time></trkpt><trkpt lat="41.408" lon="12.8723102"><ele>1.0</ele><time>2026-04-05T05:48:24.287Z</time></trkpt><trkpt lat="41.4080983" lon="12.8723509"><ele>1.0</ele><time>2026-04-05T05:48:26.287Z</time></trkpt><trkpt lat="41.4081965" lon="12.8723981"><ele>1.0</ele><time>2026-04-05T05:48:28.287Z</time></trkpt><trkpt lat="41.4082984" lon="12.8724433"><ele>1.0</ele><time>2026-04-05T05:48:30.287Z</time></trkpt><trkpt lat="41.4083946" lon="12.8724904"><ele>1.0</ele><time>2026-04-05T05:48:32.287Z</time></trkpt><trkpt lat="41.4084817" lon="12.8725416"><ele>1.0</ele><time>2026-04-05T05:48:34.287Z</time></trkpt><trkpt lat="41.4085846" lon="12.872581"><ele>1.0</ele><time>2026-04-05T05:48:36.287Z</time></trkpt><trkpt lat="41.408684" lon="12.8726272"><ele>1.0</ele><time>2026-04-05T05:48:38.287Z</time></trkpt><trkpt lat="41.4087797" lon="12.8726704"><ele>1.0</ele><time>2026-04-05T05:48:40.287Z</time></trkpt><trkpt lat="41.4088764" lon="12.8727177"><ele>1.0</ele><time>2026-04-05T05:48:42.287Z</time></trkpt><trkpt lat="41.4089758" lon="12.8727633"><ele>1.0</ele><time>2026-04-05T05:48:44.287Z</time></trkpt><trkpt lat="41.4090713" lon="12.8728071"><ele>1.0</ele><time>2026-04-05T05:48:46.286Z</time></trkpt><trkpt lat="41.4091692" lon="12.8728501"><ele>1.0</ele><time>2026-04-05T05:48:48.287Z</time></trkpt><trkpt lat="41.4092612" lon="12.872894"><ele>1.0</ele><time>2026-04-05T05:48:50.287Z</time></trkpt><trkpt lat="41.4093568" lon="12.8729389"><ele>1.0</ele><time>2026-04-05T05:48:52.287Z</time></trkpt><trkpt lat="41.4094515" lon="12.8729776"><ele>1.0</ele><time>2026-04-05T05:48:54.286Z</time></trkpt><trkpt lat="41.409541" lon="12.8730242"><ele>1.0</ele><time>2026-04-05T05:48:56.287Z</time></trkpt><trkpt lat="41.4096317" lon="12.8730641"><ele>0.8</ele><time>2026-04-05T05:48:58.287Z</time></trkpt><trkpt lat="41.4097266" lon="12.8731094"><ele>0.6000000000000001</ele><time>2026-04-05T05:49:00.286Z</time></trkpt><trkpt lat="41.4098218" lon="12.8731501"><ele>0.4</ele><time>2026-04-05T05:49:02.287Z</time></trkpt><trkpt lat="41.4099203" lon="12.8731936"><ele>0.2</ele><time>2026-04-05T05:49:04.287Z</time></trkpt><trkpt lat="41.4100133" lon="12.8732349"><ele>0.0</ele><time>2026-04-05T05:49:06.287Z</time></trkpt><trkpt lat="41.4101114" lon="12.8732777"><ele>0.0</ele><time>2026-04-05T05:49:08.287Z</time></trkpt><trkpt lat="41.4102044" lon="12.8733214"><ele>0.0</ele><time>2026-04-05T05:49:10.288Z</time></trkpt><trkpt lat="41.410297" lon="12.873371"><ele>0.0</ele><time>2026-04-05T05:49:12.288Z</time></trkpt><trkpt lat="41.4103935" lon="12.8734095"><ele>0.0</ele><time>2026-04-05T05:49:14.288Z</time></trkpt><trkpt lat="41.4104888" lon="12.8734525"><ele>0.0</ele><time>2026-04-05T05:49:16.288Z</time></trkpt><trkpt lat="41.410581" lon="12.8734984"><ele>0.0</ele><time>2026-04-05T05:49:18.288Z</time></trkpt><trkpt lat="41.4106771" lon="12.8735413"><ele>0.0</ele><time>2026-04-05T05:49:20.288Z</time></trkpt><trkpt lat="41.4107724" lon="12.8735741"><ele>0.0</ele><time>2026-04-05T05:49:22.288Z</time></trkpt><trkpt lat="41.410867" lon="12.8736215"><ele>0.0</ele><time>2026-04-05T05:49:24.288Z</time></trkpt><trkpt lat="41.4109605" lon="12.8736674"><ele>0.0</ele><time>2026-04-05T05:49:26.288Z</time></trkpt><trkpt lat="41.4110537" lon="12.873706"><ele>0.0</ele><time>2026-04-05T05:49:28.287Z</time></trkpt><trkpt lat="41.4111463" lon="12.8737383"><ele>0.0</ele><time>2026-04-05T05:49:30.288Z</time></trkpt><trkpt lat="41.4112319" lon="12.8737749"><ele>0.0</ele><time>2026-04-05T05:49:32.287Z</time></trkpt><trkpt lat="41.4113126" lon="12.8738271"><ele>0.0</ele><time>2026-04-05T05:49:34.288Z</time></trkpt><trkpt lat="41.4113991" lon="12.8738532"><ele>0.0</ele><time>2026-04-05T05:49:36.288Z</time></trkpt><trkpt lat="41.4114843" lon="12.8738974"><ele>0.0</ele><time>2026-04-05T05:49:38.288Z</time></trkpt><trkpt lat="41.4115745" lon="12.8739326"><ele>0.0</ele><time>2026-04-05T05:49:40.288Z</time></trkpt><trkpt lat="41.4116691" lon="12.8739794"><ele>0.0</ele><time>2026-04-05T05:49:42.288Z</time></trkpt><trkpt lat="41.4117598" lon="12.8740242"><ele>0.0</ele><time>2026-04-05T05:49:44.288Z</time></trkpt><trkpt lat="41.4118501" lon="12.8740683"><ele>0.0</ele><time>2026-04-05T05:49:46.288Z</time></trkpt><trkpt lat="41.4119438" lon="12.8741136"><ele>0.0</ele><time>2026-04-05T05:49:48.288Z</time></trkpt><trkpt lat="41.4120395" lon="12.8741516"><ele>0.0</ele><time>2026-04-05T05:49:50.288Z</time></trkpt><trkpt lat="41.4121335" lon="12.8741963"><ele>0.0</ele><time>2026-04-05T05:49:52.287Z</time></trkpt><trkpt lat="41.4122239" lon="12.874237"><ele>0.0</ele><time>2026-04-05T05:49:54.288Z</time></trkpt><trkpt lat="41.412314" lon="12.8742758"><ele>0.0</ele><time>2026-04-05T05:49:56.288Z</time></trkpt><trkpt lat="41.4124039" lon="12.874316"><ele>0.0</ele><time>2026-04-05T05:49:58.287Z</time></trkpt><trkpt lat="41.4124951" lon="12.87436"><ele>0.0</ele><time>2026-04-05T05:50:00.288Z</time></trkpt><trkpt lat="41.4125863" lon="12.8744002"><ele>0.0</ele><time>2026-04-05T05:50:02.287Z</time></trkpt><trkpt lat="41.4126767" lon="12.8744441"><ele>0.0</ele><time>2026-04-05T05:50:04.288Z</time></trkpt><trkpt lat="41.4127621" lon="12.8744851"><ele>0.0</ele><time>2026-04-05T05:50:06.288Z</time></trkpt><trkpt lat="41.4128483" lon="12.874523"><ele>0.0</ele><time>2026-04-05T05:50:08.287Z</time></trkpt><trkpt lat="41.4129318" lon="12.8745627"><ele>0.0</ele><time>2026-04-05T05:50:10.288Z</time></trkpt><trkpt lat="41.4130209" lon="12.8746033"><ele>0.0</ele><time>2026-04-05T05:50:12.288Z</time></trkpt><trkpt lat="41.41311" lon="12.8746402"><ele>0.0</ele><time>2026-04-05T05:50:14.288Z</time></trkpt><trkpt lat="41.4132016" lon="12.8746804"><ele>0.0</ele><time>2026-04-05T05:50:16.288Z</time></trkpt><trkpt lat="41.4132894" lon="12.8747211"><ele>0.4</ele><time>2026-04-05T05:50:18.287Z</time></trkpt><trkpt lat="41.4133755" lon="12.8747622"><ele>0.8</ele><time>2026-04-05T05:50:20.288Z</time></trkpt><trkpt lat="41.4134616" lon="12.8748022"><ele>1.2000000000000002</ele><time>2026-04-05T05:50:22.288Z</time></trkpt><trkpt lat="41.4135524" lon="12.8748434"><ele>1.6</ele><time>2026-04-05T05:50:24.288Z</time></trkpt><trkpt lat="41.4136411" lon="12.8748881"><ele>2.0</ele><time>2026-04-05T05:50:26.287Z</time></trkpt><trkpt lat="41.4137275" lon="12.8749282"><ele>2.0</ele><time>2026-04-05T05:50:28.288Z</time></trkpt><trkpt lat="41.4138163" lon="12.8749638"><ele>2.0</ele><time>2026-04-05T05:50:30.288Z</time></trkpt><trkpt lat="41.4138999" lon="12.8750035"><ele>2.0</ele><time>2026-04-05T05:50:32.288Z</time></trkpt><trkpt lat="41.4139848" lon="12.8750394"><ele>2.0</ele><time>2026-04-05T05:50:34.287Z</time></trkpt><trkpt lat="41.4140717" lon="12.8750754"><ele>2.0</ele><time>2026-04-05T05:50:36.288Z</time></trkpt><trkpt lat="41.4141586" lon="12.8751182"><ele>2.0</ele><time>2026-04-05T05:50:38.288Z</time></trkpt><trkpt lat="41.4142438" lon="12.8751647"><ele>2.0</ele><time>2026-04-05T05:50:40.288Z</time></trkpt><trkpt lat="41.4143351" lon="12.8752036"><ele>2.0</ele><time>2026-04-05T05:50:42.287Z</time></trkpt><trkpt lat="41.4144233" lon="12.8752415"><ele>2.0</ele><time>2026-04-05T05:50:44.288Z</time></trkpt><trkpt lat="41.4145099" lon="12.8752774"><ele>2.0</ele><time>2026-04-05T05:50:46.288Z</time></trkpt><trkpt lat="41.4145941" lon="12.8753148"><ele>1.6</ele><time>2026-04-05T05:50:48.288Z</time></trkpt><trkpt lat="41.414684" lon="12.8753463"><ele>1.2000000000000002</ele><time>2026-04-05T05:50:50.288Z</time></trkpt><trkpt lat="41.4147792" lon="12.8753603"><ele>0.8</ele><time>2026-04-05T05:50:52.287Z</time></trkpt><trkpt lat="41.4148685" lon="12.8753956"><ele>0.4</ele><time>2026-04-05T05:50:54.287Z</time></trkpt><trkpt lat="41.4149478" lon="12.8754662"><ele>0.0</ele><time>2026-04-05T05:50:56.288Z</time></trkpt><trkpt lat="41.4150341" lon="12.8755206"><ele>0.0</ele><time>2026-04-05T05:50:58.288Z</time></trkpt><trkpt lat="41.4151264" lon="12.875558"><ele>0.0</ele><time>2026-04-05T05:51:00.288Z</time></trkpt><trkpt lat="41.4152188" lon="12.8755999"><ele>0.0</ele><time>2026-04-05T05:51:02.288Z</time></trkpt><trkpt lat="41.415313" lon="12.8756354"><ele>0.0</ele><time>2026-04-05T05:51:04.288Z</time></trkpt><trkpt lat="41.4154055" lon="12.8756731"><ele>0.0</ele><time>2026-04-05T05:51:06.288Z</time></trkpt><trkpt lat="41.4155014" lon="12.8757172"><ele>0.2</ele><time>2026-04-05T05:51:08.288Z</time></trkpt><trkpt lat="41.4155896" lon="12.8757636"><ele>0.4</ele><time>2026-04-05T05:51:10.287Z</time></trkpt><trkpt lat="41.415681" lon="12.8758023"><ele>0.6000000000000001</ele><time>2026-04-05T05:51:12.288Z</time></trkpt><trkpt lat="41.4157707" lon="12.8758436"><ele>0.8</ele><time>2026-04-05T05:51:14.288Z</time></trkpt><trkpt lat="41.4158637" lon="12.875886"><ele>1.0</ele><time>2026-04-05T05:51:16.288Z</time></trkpt><trkpt lat="41.4159566" lon="12.8759273"><ele>1.0</ele><time>2026-04-05T05:51:18.288Z</time></trkpt><trkpt lat="41.416051" lon="12.8759746"><ele>1.0</ele><time>2026-04-05T05:51:20.288Z</time></trkpt><trkpt lat="41.4161424" lon="12.8760203"><ele>1.0</ele><time>2026-04-05T05:51:22.287Z</time></trkpt><trkpt lat="41.4162397" lon="12.8760668"><ele>1.0</ele><time>2026-04-05T05:51:24.288Z</time></trkpt><trkpt lat="41.4163351" lon="12.8761101"><ele>1.0</ele><time>2026-04-05T05:51:26.288Z</time></trkpt><trkpt lat="41.4164305" lon="12.8761554"><ele>1.2000000000000002</ele><time>2026-04-05T05:51:28.288Z</time></trkpt><trkpt lat="41.4165252" lon="12.8761983"><ele>1.4000000000000001</ele><time>2026-04-05T05:51:30.288Z</time></trkpt><trkpt lat="41.4166213" lon="12.8762404"><ele>1.6</ele><time>2026-04-05T05:51:32.288Z</time></trkpt><trkpt lat="41.4167177" lon="12.8762793"><ele>1.8</ele><time>2026-04-05T05:51:34.287Z</time></trkpt><trkpt lat="41.4168143" lon="12.8763222"><ele>2.0</ele><time>2026-04-05T05:51:36.288Z</time></trkpt><trkpt lat="41.4169061" lon="12.8763694"><ele>2.0</ele><time>2026-04-05T05:51:38.288Z</time></trkpt><trkpt lat="41.4170031" lon="12.8764098"><ele>2.0</ele><time>2026-04-05T05:51:40.288Z</time></trkpt><trkpt lat="41.417099" lon="12.8764586"><ele>2.0</ele><time>2026-04-05T05:51:42.288Z</time></trkpt><trkpt lat="41.4171969" lon="12.8765029"><ele>2.0</ele><time>2026-04-05T05:51:44.288Z</time></trkpt><trkpt lat="41.4172892" lon="12.8765487"><ele>2.0</ele><time>2026-04-05T05:51:46.287Z</time></trkpt><trkpt lat="41.4173879" lon="12.8765897"><ele>1.8</ele><time>2026-04-05T05:51:48.287Z</time></trkpt><trkpt lat="41.4174817" lon="12.8766361"><ele>1.6</ele><time>2026-04-05T05:51:50.288Z</time></trkpt><trkpt lat="41.4175711" lon="12.8766696"><ele>1.4000000000000001</ele><time>2026-04-05T05:51:52.288Z</time></trkpt><trkpt lat="41.4176673" lon="12.876715"><ele>1.2000000000000002</ele><time>2026-04-05T05:51:54.288Z</time></trkpt><trkpt lat="41.4177609" lon="12.8767573"><ele>1.0</ele><time>2026-04-05T05:51:56.288Z</time></trkpt><trkpt lat="41.4178494" lon="12.8767923"><ele>0.9999999999999999</ele><time>2026-04-05T05:51:58.287Z</time></trkpt><trkpt lat="41.417933" lon="12.8768293"><ele>1.0</ele><time>2026-04-05T05:52:00.288Z</time></trkpt><trkpt lat="41.4180177" lon="12.8768672"><ele>1.0</ele><time>2026-04-05T05:52:02.288Z</time></trkpt><trkpt lat="41.4181015" lon="12.8769091"><ele>1.0</ele><time>2026-04-05T05:52:04.288Z</time></trkpt><trkpt lat="41.4181848" lon="12.8769503"><ele>0.9999999999999999</ele><time>2026-04-05T05:52:06.288Z</time></trkpt><trkpt lat="41.4182659" lon="12.8769813"><ele>1.0</ele><time>2026-04-05T05:52:08.288Z</time></trkpt><trkpt lat="41.4183453" lon="12.8770188"><ele>1.1666666666666665</ele><time>2026-04-05T05:52:10.288Z</time></trkpt><trkpt lat="41.418426" lon="12.8770615"><ele>1.3333333333333333</ele><time>2026-04-05T05:52:12.288Z</time></trkpt><trkpt lat="41.418506" lon="12.8771053"><ele>1.5</ele><time>2026-04-05T05:52:14.288Z</time></trkpt><trkpt lat="41.4185885" lon="12.8771409"><ele>1.6666666666666665</ele><time>2026-04-05T05:52:16.288Z</time></trkpt><trkpt lat="41.4186725" lon="12.8771719"><ele>1.8333333333333333</ele><time>2026-04-05T05:52:18.288Z</time></trkpt><trkpt lat="41.4187536" lon="12.8772099"><ele>2.0</ele><time>2026-04-05T05:52:20.287Z</time></trkpt><trkpt lat="41.4188383" lon="12.8772489"><ele>2.1666666666666665</ele><time>2026-04-05T05:52:22.288Z</time></trkpt><trkpt lat="41.4189239" lon="12.8772858"><ele>2.333333333333333</ele><time>2026-04-05T05:52:24.288Z</time></trkpt><trkpt lat="41.4190124" lon="12.8773256"><ele>2.5</ele><time>2026-04-05T05:52:26.288Z</time></trkpt><trkpt lat="41.4190961" lon="12.8773693"><ele>2.6666666666666665</ele><time>2026-04-05T05:52:28.288Z</time></trkpt><trkpt lat="41.4191769" lon="12.8774065"><ele>2.8333333333333335</ele><time>2026-04-05T05:52:30.288Z</time></trkpt><trkpt lat="41.4192596" lon="12.8774397"><ele>3.0</ele><time>2026-04-05T05:52:32.287Z</time></trkpt><trkpt lat="41.4193393" lon="12.8774754"><ele>3.0</ele><time>2026-04-05T05:52:34.288Z</time></trkpt><trkpt lat="41.4194195" lon="12.877511"><ele>3.0</ele><time>2026-04-05T05:52:36.288Z</time></trkpt><trkpt lat="41.4195013" lon="12.8775495"><ele>3.0</ele><time>2026-04-05T05:52:38.288Z</time></trkpt><trkpt lat="41.4195846" lon="12.8775839"><ele>3.0</ele><time>2026-04-05T05:52:40.288Z</time></trkpt><trkpt lat="41.4196678" lon="12.8776217"><ele>3.0</ele><time>2026-04-05T05:52:42.287Z</time></trkpt><trkpt lat="41.4197513" lon="12.8776526"><ele>3.0</ele><time>2026-04-05T05:52:44.288Z</time></trkpt><trkpt lat="41.4198343" lon="12.8776796"><ele>2.6666666666666665</ele><time>2026-04-05T05:52:46.288Z</time></trkpt><trkpt lat="41.4199169" lon="12.8777125"><ele>2.3333333333333335</ele><time>2026-04-05T05:52:48.288Z</time></trkpt><trkpt lat="41.4200004" lon="12.8777364"><ele>2.0</ele><time>2026-04-05T05:52:50.288Z</time></trkpt><trkpt lat="41.4200845" lon="12.8777308"><ele>1.6666666666666665</ele><time>2026-04-05T05:52:52.288Z</time></trkpt><trkpt lat="41.4201652" lon="12.8776975"><ele>1.3333333333333333</ele><time>2026-04-05T05:52:54.288Z</time></trkpt><trkpt lat="41.4202449" lon="12.8777047"><ele>1.0</ele><time>2026-04-05T05:52:56.288Z</time></trkpt><trkpt lat="41.4203205" lon="12.8777429"><ele>0.9999999999999999</ele><time>2026-04-05T05:52:58.288Z</time></trkpt><trkpt lat="41.4203816" lon="12.8778174"><ele>1.0</ele><time>2026-04-05T05:53:00.288Z</time></trkpt><trkpt lat="41.4204213" lon="12.8779229"><ele>1.0</ele><time>2026-04-05T05:53:02.288Z</time></trkpt><trkpt lat="41.4204894" lon="12.8779912"><ele>1.0</ele><time>2026-04-05T05:53:04.287Z</time></trkpt><trkpt lat="41.4205677" lon="12.8780388"><ele>0.9999999999999999</ele><time>2026-04-05T05:53:06.288Z</time></trkpt><trkpt lat="41.4206493" lon="12.8780801"><ele>1.0</ele><time>2026-04-05T05:53:08.288Z</time></trkpt><trkpt lat="41.420733" lon="12.8781135"><ele>1.3333333333333333</ele><time>2026-04-05T05:53:10.287Z</time></trkpt><trkpt lat="41.420818" lon="12.8781476"><ele>1.6666666666666665</ele><time>2026-04-05T05:53:12.288Z</time></trkpt><trkpt lat="41.4209028" lon="12.8781878"><ele>2.0</ele><time>2026-04-05T05:53:14.288Z</time></trkpt><trkpt lat="41.4209887" lon="12.8782227"><ele>2.3333333333333335</ele><time>2026-04-05T05:53:16.288Z</time></trkpt><trkpt lat="41.4210719" lon="12.8782642"><ele>2.6666666666666665</ele><time>2026-04-05T05:53:18.288Z</time></trkpt><trkpt lat="41.4211533" lon="12.8783048"><ele>3.0</ele><time>2026-04-05T05:53:20.288Z</time></trkpt><trkpt lat="41.4212344" lon="12.8783453"><ele>3.4</ele><time>2026-04-05T05:53:22.287Z</time></trkpt><trkpt lat="41.421318" lon="12.878383"><ele>3.8</ele><time>2026-04-05T05:53:24.288Z</time></trkpt><trkpt lat="41.4214019" lon="12.878426"><ele>4.2</ele><time>2026-04-05T05:53:26.288Z</time></trkpt><trkpt lat="41.4214864" lon="12.8784665"><ele>4.6</ele><time>2026-04-05T05:53:28.288Z</time></trkpt><trkpt lat="41.4215742" lon="12.8785026"><ele>5.0</ele><time>2026-04-05T05:53:30.288Z</time></trkpt><trkpt lat="41.421662" lon="12.8785422"><ele>5.0</ele><time>2026-04-05T05:53:32.288Z</time></trkpt><trkpt lat="41.4217465" lon="12.8785845"><ele>5.0</ele><time>2026-04-05T05:53:34.288Z</time></trkpt><trkpt lat="41.4218352" lon="12.8786214"><ele>5.0</ele><time>2026-04-05T05:53:36.288Z</time></trkpt><trkpt lat="41.421926" lon="12.878657"><ele>5.0</ele><time>2026-04-05T05:53:38.288Z</time></trkpt><trkpt lat="41.4220158" lon="12.8786948"><ele>5.0</ele><time>2026-04-05T05:53:40.288Z</time></trkpt><trkpt lat="41.422101" lon="12.8787357"><ele>4.8</ele><time>2026-04-05T05:53:42.288Z</time></trkpt><trkpt lat="41.4221892" lon="12.8787768"><ele>4.6</ele><time>2026-04-05T05:53:44.288Z</time></trkpt><trkpt lat="41.4222755" lon="12.8788107"><ele>4.4</ele><time>2026-04-05T05:53:46.288Z</time></trkpt><trkpt lat="41.4223687" lon="12.8788199"><ele>4.2</ele><time>2026-04-05T05:53:48.288Z</time></trkpt><trkpt lat="41.4224594" lon="12.8788386"><ele>4.0</ele><time>2026-04-05T05:53:50.288Z</time></trkpt><trkpt lat="41.422541" lon="12.8788898"><ele>3.9999999999999996</ele><time>2026-04-05T05:53:52.288Z</time></trkpt><trkpt lat="41.4226184" lon="12.8789473"><ele>4.0</ele><time>2026-04-05T05:53:54.287Z</time></trkpt><trkpt lat="41.4226996" lon="12.8789829"><ele>4.0</ele><time>2026-04-05T05:53:56.288Z</time></trkpt><trkpt lat="41.422783" lon="12.8790216"><ele>4.0</ele><time>2026-04-05T05:53:58.288Z</time></trkpt><trkpt lat="41.4228696" lon="12.8790536"><ele>3.9999999999999996</ele><time>2026-04-05T05:54:00.288Z</time></trkpt><trkpt lat="41.4229618" lon="12.8790809"><ele>4.0</ele><time>2026-04-05T05:54:02.288Z</time></trkpt><trkpt lat="41.4230504" lon="12.8791143"><ele>4.2</ele><time>2026-04-05T05:54:04.288Z</time></trkpt><trkpt lat="41.4231389" lon="12.8791491"><ele>4.4</ele><time>2026-04-05T05:54:06.288Z</time></trkpt><trkpt lat="41.4232278" lon="12.879191"><ele>4.6</ele><time>2026-04-05T05:54:08.288Z</time></trkpt><trkpt lat="41.4233189" lon="12.8792176"><ele>4.8</ele><time>2026-04-05T05:54:10.288Z</time></trkpt><trkpt lat="41.4234113" lon="12.8792558"><ele>5.0</ele><time>2026-04-05T05:54:12.288Z</time></trkpt><trkpt lat="41.4234989" lon="12.8792877"><ele>5.0</ele><time>2026-04-05T05:54:14.288Z</time></trkpt><trkpt lat="41.4235877" lon="12.8793202"><ele>5.0</ele><time>2026-04-05T05:54:16.288Z</time></trkpt><trkpt lat="41.4236769" lon="12.8793508"><ele>5.0</ele><time>2026-04-05T05:54:18.288Z</time></trkpt><trkpt lat="41.4237677" lon="12.8793813"><ele>5.0</ele><time>2026-04-05T05:54:20.288Z</time></trkpt><trkpt lat="41.4238557" lon="12.8794107"><ele>5.0</ele><time>2026-04-05T05:54:22.288Z</time></trkpt><trkpt lat="41.4239421" lon="12.8794414"><ele>5.0</ele><time>2026-04-05T05:54:24.288Z</time></trkpt><trkpt lat="41.4240361" lon="12.879469"><ele>5.0</ele><time>2026-04-05T05:54:26.288Z</time></trkpt><trkpt lat="41.4241238" lon="12.8794956"><ele>5.0</ele><time>2026-04-05T05:54:28.288Z</time></trkpt><trkpt lat="41.4242138" lon="12.8795253"><ele>5.0</ele><time>2026-04-05T05:54:30.288Z</time></trkpt><trkpt lat="41.424307" lon="12.8795532"><ele>5.0</ele><time>2026-04-05T05:54:32.288Z</time></trkpt><trkpt lat="41.4243952" lon="12.879587"><ele>5.0</ele><time>2026-04-05T05:54:34.288Z</time></trkpt><trkpt lat="41.4244841" lon="12.8796144"><ele>5.0</ele><time>2026-04-05T05:54:36.288Z</time></trkpt><trkpt lat="41.4245728" lon="12.8796361"><ele>5.0</ele><time>2026-04-05T05:54:38.288Z</time></trkpt><trkpt lat="41.4246576" lon="12.8796677"><ele>5.0</ele><time>2026-04-05T05:54:40.288Z</time></trkpt><trkpt lat="41.4247494" lon="12.8796887"><ele>5.0</ele><time>2026-04-05T05:54:42.288Z</time></trkpt><trkpt lat="41.4248321" lon="12.8797204"><ele>5.0</ele><time>2026-04-05T05:54:44.287Z</time></trkpt><trkpt lat="41.4249158" lon="12.8797394"><ele>5.0</ele><time>2026-04-05T05:54:46.287Z</time></trkpt><trkpt lat="41.4249975" lon="12.8797654"><ele>5.0</ele><time>2026-04-05T05:54:48.288Z</time></trkpt><trkpt lat="41.4250771" lon="12.8797942"><ele>5.0</ele><time>2026-04-05T05:54:50.287Z</time></trkpt><trkpt lat="41.4251595" lon="12.8798186"><ele>5.0</ele><time>2026-04-05T05:54:52.288Z</time></trkpt><trkpt lat="41.4252423" lon="12.8798444"><ele>5.0</ele><time>2026-04-05T05:54:54.287Z</time></trkpt><trkpt lat="41.425324" lon="12.8798675"><ele>5.0</ele><time>2026-04-05T05:54:56.288Z</time></trkpt><trkpt lat="41.4254036" lon="12.8798872"><ele>5.5</ele><time>2026-04-05T05:54:58.288Z</time></trkpt><trkpt lat="41.4254822" lon="12.8799072"><ele>6.0</ele><time>2026-04-05T05:55:00.288Z</time></trkpt><trkpt lat="41.4255612" lon="12.8799275"><ele>6.5</ele><time>2026-04-05T05:55:02.288Z</time></trkpt><trkpt lat="41.4256398" lon="12.8799477"><ele>7.0</ele><time>2026-04-05T05:55:04.288Z</time></trkpt><trkpt lat="41.4257206" lon="12.8799687"><ele>7.499999999999999</ele><time>2026-04-05T05:55:06.288Z</time></trkpt><trkpt lat="41.4258018" lon="12.8799861"><ele>8.0</ele><time>2026-04-05T05:55:08.288Z</time></trkpt><trkpt lat="41.4258794" lon="12.8800043"><ele>7.999999999999999</ele><time>2026-04-05T05:55:10.288Z</time></trkpt><trkpt lat="41.4259562" lon="12.8800274"><ele>8.0</ele><time>2026-04-05T05:55:12.288Z</time></trkpt><trkpt lat="41.4260332" lon="12.8800477"><ele>8.0</ele><time>2026-04-05T05:55:14.288Z</time></trkpt><trkpt lat="41.4261043" lon="12.8800678"><ele>8.0</ele><time>2026-04-05T05:55:16.288Z</time></trkpt><trkpt lat="41.4261682" lon="12.880081"><ele>7.999999999999999</ele><time>2026-04-05T05:55:18.288Z</time></trkpt><trkpt lat="41.426261" lon="12.8800984"><ele>8.0</ele><time>2026-04-05T05:55:21.288Z</time></trkpt><trkpt lat="41.4263305" lon="12.8801107"><ele>7.666666666666666</ele><time>2026-04-05T05:55:23.288Z</time></trkpt><trkpt lat="41.4264053" lon="12.8801258"><ele>7.333333333333333</ele><time>2026-04-05T05:55:25.288Z</time></trkpt><trkpt lat="41.4264862" lon="12.8801386"><ele>7.0</ele><time>2026-04-05T05:55:27.288Z</time></trkpt><trkpt lat="41.4265686" lon="12.8801611"><ele>6.666666666666666</ele><time>2026-04-05T05:55:29.288Z</time></trkpt><trkpt lat="41.4266523" lon="12.8801786"><ele>6.333333333333333</ele><time>2026-04-05T05:55:31.288Z</time></trkpt><trkpt lat="41.4267345" lon="12.8802022"><ele>6.0</ele><time>2026-04-05T05:55:33.287Z</time></trkpt><trkpt lat="41.4268172" lon="12.880218"><ele>6.0</ele><time>2026-04-05T05:55:35.288Z</time></trkpt><trkpt lat="41.4269012" lon="12.8802351"><ele>6.0</ele><time>2026-04-05T05:55:37.288Z</time></trkpt><trkpt lat="41.4269847" lon="12.8802467"><ele>6.0</ele><time>2026-04-05T05:55:39.288Z</time></trkpt><trkpt lat="41.4270662" lon="12.8802598"><ele>6.0</ele><time>2026-04-05T05:55:41.288Z</time></trkpt><trkpt lat="41.427144" lon="12.8802763"><ele>6.0</ele><time>2026-04-05T05:55:43.287Z</time></trkpt><trkpt lat="41.4272196" lon="12.8802847"><ele>6.0</ele><time>2026-04-05T05:55:45.288Z</time></trkpt><trkpt lat="41.4272961" lon="12.8802846"><ele>6.5</ele><time>2026-04-05T05:55:47.288Z</time></trkpt><trkpt lat="41.4273726" lon="12.8802725"><ele>7.0</ele><time>2026-04-05T05:55:49.288Z</time></trkpt><trkpt lat="41.4274505" lon="12.8802601"><ele>7.5</ele><time>2026-04-05T05:55:51.288Z</time></trkpt><trkpt lat="41.4275271" lon="12.8802647"><ele>8.0</ele><time>2026-04-05T05:55:53.288Z</time></trkpt><trkpt lat="41.4275952" lon="12.8803095"><ele>8.5</ele><time>2026-04-05T05:55:55.288Z</time></trkpt><trkpt lat="41.4276642" lon="12.8803483"><ele>9.0</ele><time>2026-04-05T05:55:57.287Z</time></trkpt><trkpt lat="41.4277324" lon="12.8803799"><ele>9.0</ele><time>2026-04-05T05:55:59.288Z</time></trkpt><trkpt lat="41.4278044" lon="12.8804048"><ele>9.0</ele><time>2026-04-05T05:56:01.288Z</time></trkpt><trkpt lat="41.42788" lon="12.8804149"><ele>9.0</ele><time>2026-04-05T05:56:03.287Z</time></trkpt><trkpt lat="41.4279572" lon="12.880423"><ele>9.0</ele><time>2026-04-05T05:56:05.288Z</time></trkpt><trkpt lat="41.4280349" lon="12.8804433"><ele>9.0</ele><time>2026-04-05T05:56:07.288Z</time></trkpt><trkpt lat="41.4281142" lon="12.8804606"><ele>9.0</ele><time>2026-04-05T05:56:09.288Z</time></trkpt><trkpt lat="41.4281947" lon="12.8804759"><ele>9.666666666666666</ele><time>2026-04-05T05:56:11.288Z</time></trkpt><trkpt lat="41.428274" lon="12.8804922"><ele>10.333333333333332</ele><time>2026-04-05T05:56:13.288Z</time></trkpt><trkpt lat="41.4283547" lon="12.8805028"><ele>11.0</ele><time>2026-04-05T05:56:15.287Z</time></trkpt><trkpt lat="41.4284354" lon="12.8805087"><ele>11.666666666666666</ele><time>2026-04-05T05:56:17.288Z</time></trkpt><trkpt lat="41.4285198" lon="12.8804991"><ele>12.333333333333332</ele><time>2026-04-05T05:56:19.288Z</time></trkpt><trkpt lat="41.4286028" lon="12.8805113"><ele>13.0</ele><time>2026-04-05T05:56:21.288Z</time></trkpt><trkpt lat="41.4286803" lon="12.8805476"><ele>12.999999999999998</ele><time>2026-04-05T05:56:23.288Z</time></trkpt><trkpt lat="41.428761" lon="12.8805825"><ele>13.0</ele><time>2026-04-05T05:56:25.288Z</time></trkpt><trkpt lat="41.4288427" lon="12.8805958"><ele>13.0</ele><time>2026-04-05T05:56:27.287Z</time></trkpt><trkpt lat="41.428924" lon="12.8806124"><ele>13.0</ele><time>2026-04-05T05:56:29.288Z</time></trkpt><trkpt lat="41.4290067" lon="12.880629"><ele>12.999999999999998</ele><time>2026-04-05T05:56:31.288Z</time></trkpt><trkpt lat="41.4290885" lon="12.8806445"><ele>13.0</ele><time>2026-04-05T05:56:33.288Z</time></trkpt><trkpt lat="41.4291692" lon="12.8806597"><ele>12.999999999999998</ele><time>2026-04-05T05:56:35.288Z</time></trkpt><trkpt lat="41.4292499" lon="12.8806752"><ele>13.0</ele><time>2026-04-05T05:56:37.288Z</time></trkpt><trkpt lat="41.4293307" lon="12.8806901"><ele>13.0</ele><time>2026-04-05T05:56:39.288Z</time></trkpt><trkpt lat="41.4294121" lon="12.8807064"><ele>13.0</ele><time>2026-04-05T05:56:41.287Z</time></trkpt><trkpt lat="41.4294935" lon="12.8807212"><ele>12.999999999999998</ele><time>2026-04-05T05:56:43.287Z</time></trkpt><trkpt lat="41.4295773" lon="12.8807299"><ele>13.0</ele><time>2026-04-05T05:56:45.288Z</time></trkpt><trkpt lat="41.4296608" lon="12.8807437"><ele>12.833333333333332</ele><time>2026-04-05T05:56:47.288Z</time></trkpt><trkpt lat="41.4297452" lon="12.8807598"><ele>12.666666666666666</ele><time>2026-04-05T05:56:49.288Z</time></trkpt><trkpt lat="41.4298301" lon="12.8807765"><ele>12.5</ele><time>2026-04-05T05:56:51.288Z</time></trkpt><trkpt lat="41.4299141" lon="12.8807923"><ele>12.333333333333332</ele><time>2026-04-05T05:56:53.288Z</time></trkpt><trkpt lat="41.4299972" lon="12.8808096"><ele>12.166666666666666</ele><time>2026-04-05T05:56:55.288Z</time></trkpt><trkpt lat="41.430079" lon="12.8808253"><ele>12.0</ele><time>2026-04-05T05:56:57.287Z</time></trkpt><trkpt lat="41.4301605" lon="12.8808412"><ele>12.0</ele><time>2026-04-05T05:56:59.287Z</time></trkpt><trkpt lat="41.4302445" lon="12.8808563"><ele>12.0</ele><time>2026-04-05T05:57:01.288Z</time></trkpt><trkpt lat="41.4303283" lon="12.8808719"><ele>12.0</ele><time>2026-04-05T05:57:03.288Z</time></trkpt><trkpt lat="41.430415" lon="12.8808859"><ele>12.0</ele><time>2026-04-05T05:57:05.288Z</time></trkpt><trkpt lat="41.4305018" lon="12.8809065"><ele>12.0</ele><time>2026-04-05T05:57:07.288Z</time></trkpt><trkpt lat="41.4305898" lon="12.8809242"><ele>12.0</ele><time>2026-04-05T05:57:09.288Z</time></trkpt><trkpt lat="41.4306801" lon="12.8809381"><ele>12.2</ele><time>2026-04-05T05:57:11.288Z</time></trkpt><trkpt lat="41.4307704" lon="12.880957"><ele>12.399999999999999</ele><time>2026-04-05T05:57:13.288Z</time></trkpt><trkpt lat="41.430863" lon="12.8809679"><ele>12.600000000000001</ele><time>2026-04-05T05:57:15.288Z</time></trkpt><trkpt lat="41.4309529" lon="12.8809874"><ele>12.8</ele><time>2026-04-05T05:57:17.288Z</time></trkpt><trkpt lat="41.4310418" lon="12.8810006"><ele>13.0</ele><time>2026-04-05T05:57:19.288Z</time></trkpt><trkpt lat="41.4311321" lon="12.8810148"><ele>13.0</ele><time>2026-04-05T05:57:21.288Z</time></trkpt><trkpt lat="41.4312216" lon="12.8810335"><ele>13.0</ele><time>2026-04-05T05:57:23.288Z</time></trkpt><trkpt lat="41.4313153" lon="12.8810516"><ele>13.0</ele><time>2026-04-05T05:57:25.287Z</time></trkpt><trkpt lat="41.431405" lon="12.8810716"><ele>13.0</ele><time>2026-04-05T05:57:27.288Z</time></trkpt><trkpt lat="41.4314956" lon="12.8810877"><ele>13.0</ele><time>2026-04-05T05:57:29.287Z</time></trkpt><trkpt lat="41.4315868" lon="12.8811114"><ele>12.4</ele><time>2026-04-05T05:57:31.288Z</time></trkpt><trkpt lat="41.43168" lon="12.8811253"><ele>11.8</ele><time>2026-04-05T05:57:33.288Z</time></trkpt><trkpt lat="41.4317738" lon="12.881148"><ele>11.2</ele><time>2026-04-05T05:57:35.288Z</time></trkpt><trkpt lat="41.4318677" lon="12.8811659"><ele>10.6</ele><time>2026-04-05T05:57:37.288Z</time></trkpt><trkpt lat="41.4319683" lon="12.8811871"><ele>10.0</ele><time>2026-04-05T05:57:39.288Z</time></trkpt><trkpt lat="41.4320774" lon="12.8812022"><ele>9.75</ele><time>2026-04-05T05:57:41.288Z</time></trkpt><trkpt lat="41.4321866" lon="12.8812185"><ele>9.5</ele><time>2026-04-05T05:57:43.287Z</time></trkpt><trkpt lat="41.432298" lon="12.8812355"><ele>9.25</ele><time>2026-04-05T05:57:45.288Z</time></trkpt><trkpt lat="41.4324107" lon="12.8812561"><ele>9.0</ele><time>2026-04-05T05:57:47.288Z</time></trkpt><trkpt lat="41.4325287" lon="12.8812825"><ele>9.0</ele><time>2026-04-05T05:57:49.288Z</time></trkpt><trkpt lat="41.4326463" lon="12.8813054"><ele>9.0</ele><time>2026-04-05T05:57:51.288Z</time></trkpt><trkpt lat="41.4327702" lon="12.8813278"><ele>9.0</ele><time>2026-04-05T05:57:53.288Z</time></trkpt><trkpt lat="41.432834" lon="12.8813375"><ele>9.0</ele><time>2026-04-05T05:57:54.287Z</time></trkpt><trkpt lat="41.4328971" lon="12.8813551"><ele>9.0</ele><time>2026-04-05T05:57:55.288Z</time></trkpt><trkpt lat="41.4330202" lon="12.8813787"><ele>8.8</ele><time>2026-04-05T05:57:57.288Z</time></trkpt><trkpt lat="41.4331439" lon="12.8814052"><ele>8.600000000000001</ele><time>2026-04-05T05:57:59.288Z</time></trkpt><trkpt lat="41.433207" lon="12.8814171"><ele>8.4</ele><time>2026-04-05T05:58:00.288Z</time></trkpt><trkpt lat="41.4333284" lon="12.8814476"><ele>8.200000000000001</ele><time>2026-04-05T05:58:02.287Z</time></trkpt><trkpt lat="41.4334459" lon="12.8814795"><ele>8.0</ele><time>2026-04-05T05:58:04.288Z</time></trkpt><trkpt lat="41.4335514" lon="12.8815136"><ele>8.0</ele><time>2026-04-05T05:58:06.288Z</time></trkpt><trkpt lat="41.4336485" lon="12.8815389"><ele>8.0</ele><time>2026-04-05T05:58:08.288Z</time></trkpt><trkpt lat="41.4337462" lon="12.8815459"><ele>8.0</ele><time>2026-04-05T05:58:10.288Z</time></trkpt><trkpt lat="41.4338478" lon="12.8815804"><ele>8.0</ele><time>2026-04-05T05:58:12.288Z</time></trkpt><trkpt lat="41.4339769" lon="12.8816215"><ele>8.0</ele><time>2026-04-05T05:58:14.287Z</time></trkpt><trkpt lat="41.4340517" lon="12.8816467"><ele>7.7142857142857135</ele><time>2026-04-05T05:58:15.288Z</time></trkpt><trkpt lat="41.4341133" lon="12.8816658"><ele>7.428571428571428</ele><time>2026-04-05T05:58:16.288Z</time></trkpt><trkpt lat="41.4341839" lon="12.8816915"><ele>7.142857142857142</ele><time>2026-04-05T05:58:17.288Z</time></trkpt><trkpt lat="41.4342598" lon="12.8817122"><ele>6.857142857142857</ele><time>2026-04-05T05:58:18.288Z</time></trkpt><trkpt lat="41.4343332" lon="12.8817378"><ele>6.571428571428571</ele><time>2026-04-05T05:58:19.288Z</time></trkpt><trkpt lat="41.4344043" lon="12.881758"><ele>6.285714285714285</ele><time>2026-04-05T05:58:20.288Z</time></trkpt><trkpt lat="41.4344743" lon="12.8817811"><ele>6.0</ele><time>2026-04-05T05:58:21.288Z</time></trkpt><trkpt lat="41.4345447" lon="12.8818068"><ele>5.857142857142857</ele><time>2026-04-05T05:58:22.288Z</time></trkpt><trkpt lat="41.4346143" lon="12.8818324"><ele>5.714285714285714</ele><time>2026-04-05T05:58:23.288Z</time></trkpt><trkpt lat="41.4346825" lon="12.8818526"><ele>5.571428571428571</ele><time>2026-04-05T05:58:24.288Z</time></trkpt><trkpt lat="41.4347508" lon="12.8818724"><ele>5.428571428571429</ele><time>2026-04-05T05:58:25.288Z</time></trkpt><trkpt lat="41.4348152" lon="12.8819008"><ele>5.285714285714286</ele><time>2026-04-05T05:58:26.288Z</time></trkpt><trkpt lat="41.4348759" lon="12.8819284"><ele>5.142857142857142</ele><time>2026-04-05T05:58:27.288Z</time></trkpt><trkpt lat="41.4349392" lon="12.8819531"><ele>5.0</ele><time>2026-04-05T05:58:28.288Z</time></trkpt><trkpt lat="41.4350044" lon="12.8819727"><ele>4.75</ele><time>2026-04-05T05:58:29.287Z</time></trkpt><trkpt lat="41.4351256" lon="12.8820153"><ele>4.5</ele><time>2026-04-05T05:58:31.288Z</time></trkpt><trkpt lat="41.4352435" lon="12.8820561"><ele>4.25</ele><time>2026-04-05T05:58:33.288Z</time></trkpt><trkpt lat="41.4353578" lon="12.8821015"><ele>4.0</ele><time>2026-04-05T05:58:35.288Z</time></trkpt><trkpt lat="41.4354655" lon="12.8821463"><ele>4.4</ele><time>2026-04-05T05:58:37.288Z</time></trkpt><trkpt lat="41.4355731" lon="12.8821905"><ele>4.800000000000001</ele><time>2026-04-05T05:58:39.288Z</time></trkpt><trkpt lat="41.4356808" lon="12.8822247"><ele>5.199999999999999</ele><time>2026-04-05T05:58:41.288Z</time></trkpt><trkpt lat="41.4357911" lon="12.882234"><ele>5.6</ele><time>2026-04-05T05:58:43.288Z</time></trkpt><trkpt lat="41.4358886" lon="12.8822911"><ele>6.0</ele><time>2026-04-05T05:58:45.288Z</time></trkpt><trkpt lat="41.4359773" lon="12.8823657"><ele>6.0</ele><time>2026-04-05T05:58:47.288Z</time></trkpt><trkpt lat="41.436076" lon="12.8824098"><ele>6.0</ele><time>2026-04-05T05:58:49.288Z</time></trkpt><trkpt lat="41.4361756" lon="12.8824578"><ele>6.0</ele><time>2026-04-05T05:58:51.288Z</time></trkpt><trkpt lat="41.4362753" lon="12.882504"><ele>6.0</ele><time>2026-04-05T05:58:53.288Z</time></trkpt><trkpt lat="41.4363696" lon="12.8825503"><ele>6.0</ele><time>2026-04-05T05:58:55.287Z</time></trkpt><trkpt lat="41.4364647" lon="12.8825974"><ele>6.6</ele><time>2026-04-05T05:58:57.288Z</time></trkpt><trkpt lat="41.4365596" lon="12.8826411"><ele>7.199999999999999</ele><time>2026-04-05T05:58:59.288Z</time></trkpt><trkpt lat="41.4366464" lon="12.8826951"><ele>7.800000000000001</ele><time>2026-04-05T05:59:01.288Z</time></trkpt><trkpt lat="41.4367343" lon="12.8827474"><ele>8.4</ele><time>2026-04-05T05:59:03.288Z</time></trkpt><trkpt lat="41.4368218" lon="12.8827945"><ele>9.0</ele><time>2026-04-05T05:59:05.288Z</time></trkpt><trkpt lat="41.4369047" lon="12.8828434"><ele>9.0</ele><time>2026-04-05T05:59:07.288Z</time></trkpt><trkpt lat="41.4369875" lon="12.8828803"><ele>9.0</ele><time>2026-04-05T05:59:09.288Z</time></trkpt><trkpt lat="41.4370597" lon="12.8829219"><ele>9.0</ele><time>2026-04-05T05:59:11.288Z</time></trkpt><trkpt lat="41.4371289" lon="12.8829595"><ele>9.0</ele><time>2026-04-05T05:59:13.288Z</time></trkpt><trkpt lat="41.4371919" lon="12.883001"><ele>9.0</ele><time>2026-04-05T05:59:15.288Z</time></trkpt><trkpt lat="41.4372517" lon="12.883039"><ele>9.0</ele><time>2026-04-05T05:59:17.288Z</time></trkpt><trkpt lat="41.4373356" lon="12.8830784"><ele>9.428571428571429</ele><time>2026-04-05T05:59:20.288Z</time></trkpt><trkpt lat="41.4374083" lon="12.8831227"><ele>9.857142857142858</ele><time>2026-04-05T05:59:23.288Z</time></trkpt><trkpt lat="41.4374805" lon="12.8831587"><ele>10.285714285714285</ele><time>2026-04-05T05:59:26.287Z</time></trkpt><trkpt lat="41.4375421" lon="12.8832088"><ele>10.714285714285715</ele><time>2026-04-05T05:59:29.288Z</time></trkpt><trkpt lat="41.4376088" lon="12.8832404"><ele>11.142857142857142</ele><time>2026-04-05T05:59:31.288Z</time></trkpt><trkpt lat="41.4376738" lon="12.8832786"><ele>11.571428571428571</ele><time>2026-04-05T05:59:33.287Z</time></trkpt><trkpt lat="41.4377359" lon="12.8833176"><ele>12.0</ele><time>2026-04-05T05:59:35.287Z</time></trkpt><trkpt lat="41.4377969" lon="12.8833577"><ele>11.999999999999998</ele><time>2026-04-05T05:59:37.288Z</time></trkpt><trkpt lat="41.4378568" lon="12.883395"><ele>12.0</ele><time>2026-04-05T05:59:39.288Z</time></trkpt><trkpt lat="41.4379165" lon="12.8834285"><ele>12.0</ele><time>2026-04-05T05:59:41.288Z</time></trkpt><trkpt lat="41.437977" lon="12.8834663"><ele>12.0</ele><time>2026-04-05T05:59:43.288Z</time></trkpt><trkpt lat="41.4380409" lon="12.8835002"><ele>12.0</ele><time>2026-04-05T05:59:45.288Z</time></trkpt><trkpt lat="41.4381056" lon="12.8835372"><ele>11.999999999999998</ele><time>2026-04-05T05:59:47.288Z</time></trkpt><trkpt lat="41.4381695" lon="12.8835795"><ele>12.0</ele><time>2026-04-05T05:59:49.288Z</time></trkpt><trkpt lat="41.4382345" lon="12.8836199"><ele>12.285714285714285</ele><time>2026-04-05T05:59:51.288Z</time></trkpt><trkpt lat="41.4382969" lon="12.8836637"><ele>12.571428571428571</ele><time>2026-04-05T05:59:53.288Z</time></trkpt><trkpt lat="41.4383584" lon="12.8837056"><ele>12.857142857142858</ele><time>2026-04-05T05:59:55.288Z</time></trkpt><trkpt lat="41.4384204" lon="12.883747"><ele>13.142857142857142</ele><time>2026-04-05T05:59:57.288Z</time></trkpt><trkpt lat="41.4384848" lon="12.8837819"><ele>13.428571428571429</ele><time>2026-04-05T05:59:59.288Z</time></trkpt><trkpt lat="41.4385491" lon="12.8838179"><ele>13.714285714285714</ele><time>2026-04-05T06:00:01.288Z</time></trkpt><trkpt lat="41.4386129" lon="12.8838569"><ele>14.0</ele><time>2026-04-05T06:00:03.287Z</time></trkpt><trkpt lat="41.4386785" lon="12.8838949"><ele>14.0</ele><time>2026-04-05T06:00:05.288Z</time></trkpt><trkpt lat="41.4387445" lon="12.8839303"><ele>14.0</ele><time>2026-04-05T06:00:07.288Z</time></trkpt><trkpt lat="41.4388125" lon="12.8839646"><ele>14.0</ele><time>2026-04-05T06:00:09.287Z</time></trkpt><trkpt lat="41.4388779" lon="12.8840083"><ele>14.0</ele><time>2026-04-05T06:00:11.288Z</time></trkpt><trkpt lat="41.4389461" lon="12.8840467"><ele>14.0</ele><time>2026-04-05T06:00:13.288Z</time></trkpt><trkpt lat="41.4390098" lon="12.8840899"><ele>14.0</ele><time>2026-04-05T06:00:15.288Z</time></trkpt><trkpt lat="41.4390739" lon="12.8841183"><ele>14.0</ele><time>2026-04-05T06:00:17.288Z</time></trkpt><trkpt lat="41.4391323" lon="12.8841551"><ele>14.428571428571429</ele><time>2026-04-05T06:00:19.287Z</time></trkpt><trkpt lat="41.4391912" lon="12.8841852"><ele>14.857142857142858</ele><time>2026-04-05T06:00:21.288Z</time></trkpt><trkpt lat="41.4392539" lon="12.8842042"><ele>15.285714285714285</ele><time>2026-04-05T06:00:23.287Z</time></trkpt><trkpt lat="41.4393212" lon="12.8842055"><ele>15.714285714285714</ele><time>2026-04-05T06:00:25.287Z</time></trkpt><trkpt lat="41.4393902" lon="12.8842001"><ele>16.142857142857142</ele><time>2026-04-05T06:00:27.288Z</time></trkpt><trkpt lat="41.4394575" lon="12.8841717"><ele>16.57142857142857</ele><time>2026-04-05T06:00:29.288Z</time></trkpt><trkpt lat="41.4395245" lon="12.8841706"><ele>17.0</ele><time>2026-04-05T06:00:31.288Z</time></trkpt><trkpt lat="41.4396067" lon="12.8842182"><ele>17.666666666666668</ele><time>2026-04-05T06:00:34.287Z</time></trkpt><trkpt lat="41.4396433" lon="12.8843211"><ele>18.333333333333336</ele><time>2026-04-05T06:00:37.287Z</time></trkpt><trkpt lat="41.4396831" lon="12.8844159"><ele>19.0</ele><time>2026-04-05T06:00:40.288Z</time></trkpt><trkpt lat="41.4397225" lon="12.8844876"><ele>19.666666666666668</ele><time>2026-04-05T06:00:43.288Z</time></trkpt><trkpt lat="41.4397804" lon="12.8845334"><ele>20.333333333333332</ele><time>2026-04-05T06:00:46.287Z</time></trkpt><trkpt lat="41.4398411" lon="12.8845801"><ele>21.0</ele><time>2026-04-05T06:00:49.288Z</time></trkpt><trkpt lat="41.4399134" lon="12.884623"><ele>21.0</ele><time>2026-04-05T06:00:52.288Z</time></trkpt><trkpt lat="41.4399935" lon="12.8846669"><ele>21.0</ele><time>2026-04-05T06:00:55.287Z</time></trkpt><trkpt lat="41.4400761" lon="12.8847208"><ele>21.0</ele><time>2026-04-05T06:00:58.288Z</time></trkpt><trkpt lat="41.4401622" lon="12.884755"><ele>21.0</ele><time>2026-04-05T06:01:01.288Z</time></trkpt><trkpt lat="41.4402512" lon="12.8847729"><ele>21.0</ele><time>2026-04-05T06:01:04.288Z</time></trkpt><trkpt lat="41.4403272" lon="12.8848281"><ele>21.0</ele><time>2026-04-05T06:01:07.288Z</time></trkpt><trkpt lat="41.440396" lon="12.8849104"><ele>21.0</ele><time>2026-04-05T06:01:10.288Z</time></trkpt><trkpt lat="41.4404618" lon="12.8849454"><ele>21.0</ele><time>2026-04-05T06:01:12.287Z</time></trkpt><trkpt lat="41.4405257" lon="12.8849896"><ele>21.0</ele><time>2026-04-05T06:01:14.288Z</time></trkpt><trkpt lat="41.4405843" lon="12.8850269"><ele>21.0</ele><time>2026-04-05T06:01:16.288Z</time></trkpt><trkpt lat="41.4406464" lon="12.8850624"><ele>21.0</ele><time>2026-04-05T06:01:18.288Z</time></trkpt><trkpt lat="41.4407176" lon="12.8851049"><ele>21.0</ele><time>2026-04-05T06:01:20.288Z</time></trkpt><trkpt lat="41.4407887" lon="12.88514"><ele>21.0</ele><time>2026-04-05T06:01:22.288Z</time></trkpt><trkpt lat="41.440855" lon="12.8851857"><ele>20.666666666666668</ele><time>2026-04-05T06:01:24.288Z</time></trkpt><trkpt lat="41.4409179" lon="12.8852388"><ele>20.333333333333332</ele><time>2026-04-05T06:01:26.288Z</time></trkpt><trkpt lat="41.4409874" lon="12.8852818"><ele>20.0</ele><time>2026-04-05T06:01:28.288Z</time></trkpt><trkpt lat="41.4410567" lon="12.8853244"><ele>19.666666666666664</ele><time>2026-04-05T06:01:30.288Z</time></trkpt><trkpt lat="41.4411282" lon="12.8853656"><ele>19.333333333333332</ele><time>2026-04-05T06:01:32.288Z</time></trkpt><trkpt lat="41.4411995" lon="12.8854057"><ele>19.0</ele><time>2026-04-05T06:01:34.288Z</time></trkpt><trkpt lat="41.4412716" lon="12.8854489"><ele>19.333333333333332</ele><time>2026-04-05T06:01:36.288Z</time></trkpt><trkpt lat="41.4413461" lon="12.8854875"><ele>19.666666666666664</ele><time>2026-04-05T06:01:38.288Z</time></trkpt><trkpt lat="41.4414157" lon="12.885531"><ele>20.0</ele><time>2026-04-05T06:01:40.288Z</time></trkpt><trkpt lat="41.441487" lon="12.8855722"><ele>20.333333333333332</ele><time>2026-04-05T06:01:42.288Z</time></trkpt><trkpt lat="41.4415602" lon="12.8856156"><ele>20.666666666666668</ele><time>2026-04-05T06:01:44.288Z</time></trkpt><trkpt lat="41.4416355" lon="12.8856593"><ele>21.0</ele><time>2026-04-05T06:01:46.288Z</time></trkpt><trkpt lat="41.4417113" lon="12.8857064"><ele>21.0</ele><time>2026-04-05T06:01:48.288Z</time></trkpt><trkpt lat="41.4417857" lon="12.8857517"><ele>21.0</ele><time>2026-04-05T06:01:50.288Z</time></trkpt><trkpt lat="41.4418608" lon="12.8857931"><ele>21.0</ele><time>2026-04-05T06:01:52.288Z</time></trkpt><trkpt lat="41.4419345" lon="12.8858339"><ele>21.0</ele><time>2026-04-05T06:01:54.288Z</time></trkpt><trkpt lat="41.4420073" lon="12.8858814"><ele>21.0</ele><time>2026-04-05T06:01:56.288Z</time></trkpt><trkpt lat="41.4420799" lon="12.8859222"><ele>21.0</ele><time>2026-04-05T06:01:58.288Z</time></trkpt><trkpt lat="41.4421504" lon="12.8859605"><ele>21.333333333333332</ele><time>2026-04-05T06:02:00.288Z</time></trkpt><trkpt lat="41.4422197" lon="12.8860023"><ele>21.666666666666668</ele><time>2026-04-05T06:02:02.288Z</time></trkpt><trkpt lat="41.4422882" lon="12.8860411"><ele>22.0</ele><time>2026-04-05T06:02:04.288Z</time></trkpt><trkpt lat="41.442358" lon="12.8860857"><ele>22.333333333333336</ele><time>2026-04-05T06:02:06.288Z</time></trkpt><trkpt lat="41.4424366" lon="12.8861327"><ele>22.666666666666668</ele><time>2026-04-05T06:02:08.288Z</time></trkpt><trkpt lat="41.4425138" lon="12.8861841"><ele>23.0</ele><time>2026-04-05T06:02:10.288Z</time></trkpt><trkpt lat="41.4425907" lon="12.8862323"><ele>23.0</ele><time>2026-04-05T06:02:12.288Z</time></trkpt><trkpt lat="41.4426638" lon="12.8862764"><ele>23.0</ele><time>2026-04-05T06:02:14.288Z</time></trkpt><trkpt lat="41.4427359" lon="12.8863239"><ele>23.0</ele><time>2026-04-05T06:02:16.288Z</time></trkpt><trkpt lat="41.4428105" lon="12.8863696"><ele>23.0</ele><time>2026-04-05T06:02:18.288Z</time></trkpt><trkpt lat="41.4428834" lon="12.8864162"><ele>23.0</ele><time>2026-04-05T06:02:20.287Z</time></trkpt><trkpt lat="41.4429583" lon="12.8864582"><ele>23.0</ele><time>2026-04-05T06:02:22.288Z</time></trkpt><trkpt lat="41.443034" lon="12.8865068"><ele>23.166666666666668</ele><time>2026-04-05T06:02:24.288Z</time></trkpt><trkpt lat="41.4431105" lon="12.8865506"><ele>23.333333333333336</ele><time>2026-04-05T06:02:26.288Z</time></trkpt><trkpt lat="41.443187" lon="12.8865936"><ele>23.5</ele><time>2026-04-05T06:02:28.288Z</time></trkpt><trkpt lat="41.4432628" lon="12.886636"><ele>23.666666666666668</ele><time>2026-04-05T06:02:30.287Z</time></trkpt><trkpt lat="41.4433382" lon="12.8866791"><ele>23.833333333333332</ele><time>2026-04-05T06:02:32.288Z</time></trkpt><trkpt lat="41.4434118" lon="12.8867263"><ele>24.0</ele><time>2026-04-05T06:02:34.288Z</time></trkpt><trkpt lat="41.443487" lon="12.88677"><ele>23.833333333333332</ele><time>2026-04-05T06:02:36.288Z</time></trkpt><trkpt lat="41.4435559" lon="12.8868058"><ele>23.666666666666668</ele><time>2026-04-05T06:02:38.288Z</time></trkpt><trkpt lat="41.4436303" lon="12.8868458"><ele>23.5</ele><time>2026-04-05T06:02:40.288Z</time></trkpt><trkpt lat="41.4437039" lon="12.886901"><ele>23.333333333333336</ele><time>2026-04-05T06:02:42.288Z</time></trkpt><trkpt lat="41.4437829" lon="12.8869465"><ele>23.166666666666668</ele><time>2026-04-05T06:02:44.287Z</time></trkpt><trkpt lat="41.4438611" lon="12.8869924"><ele>23.0</ele><time>2026-04-05T06:02:46.288Z</time></trkpt><trkpt lat="41.4439391" lon="12.8870376"><ele>23.0</ele><time>2026-04-05T06:02:48.287Z</time></trkpt><trkpt lat="41.4440166" lon="12.8870834"><ele>23.0</ele><time>2026-04-05T06:02:50.288Z</time></trkpt><trkpt lat="41.4440928" lon="12.8871307"><ele>23.0</ele><time>2026-04-05T06:02:52.288Z</time></trkpt><trkpt lat="41.4441704" lon="12.8871769"><ele>23.0</ele><time>2026-04-05T06:02:54.288Z</time></trkpt><trkpt lat="41.444247" lon="12.8872249"><ele>23.0</ele><time>2026-04-05T06:02:56.288Z</time></trkpt><trkpt lat="41.444325" lon="12.8872695"><ele>23.0</ele><time>2026-04-05T06:02:58.288Z</time></trkpt><trkpt lat="41.4444033" lon="12.8873139"><ele>23.0</ele><time>2026-04-05T06:03:00.288Z</time></trkpt><trkpt lat="41.4444788" lon="12.8873588"><ele>23.0</ele><time>2026-04-05T06:03:02.288Z</time></trkpt><trkpt lat="41.4445534" lon="12.8874019"><ele>23.0</ele><time>2026-04-05T06:03:04.288Z</time></trkpt><trkpt lat="41.44463" lon="12.8874412"><ele>23.0</ele><time>2026-04-05T06:03:06.287Z</time></trkpt><trkpt lat="41.4447052" lon="12.8874847"><ele>23.0</ele><time>2026-04-05T06:03:08.288Z</time></trkpt><trkpt lat="41.444779" lon="12.8875305"><ele>23.0</ele><time>2026-04-05T06:03:10.288Z</time></trkpt><trkpt lat="41.4448525" lon="12.8875762"><ele>22.833333333333336</ele><time>2026-04-05T06:03:12.288Z</time></trkpt><trkpt lat="41.4449282" lon="12.8876225"><ele>22.666666666666668</ele><time>2026-04-05T06:03:14.287Z</time></trkpt><trkpt lat="41.4450049" lon="12.8876657"><ele>22.5</ele><time>2026-04-05T06:03:16.288Z</time></trkpt><trkpt lat="41.445078" lon="12.8877045"><ele>22.333333333333332</ele><time>2026-04-05T06:03:18.288Z</time></trkpt><trkpt lat="41.4451545" lon="12.8877507"><ele>22.166666666666664</ele><time>2026-04-05T06:03:20.288Z</time></trkpt><trkpt lat="41.4452331" lon="12.887792"><ele>22.0</ele><time>2026-04-05T06:03:22.288Z</time></trkpt><trkpt lat="41.445312" lon="12.8878355"><ele>22.0</ele><time>2026-04-05T06:03:24.288Z</time></trkpt><trkpt lat="41.4453902" lon="12.8878954"><ele>22.0</ele><time>2026-04-05T06:03:26.288Z</time></trkpt><trkpt lat="41.4454726" lon="12.8879203"><ele>22.0</ele><time>2026-04-05T06:03:28.288Z</time></trkpt><trkpt lat="41.4455515" lon="12.887939"><ele>22.0</ele><time>2026-04-05T06:03:30.288Z</time></trkpt><trkpt lat="41.4456236" lon="12.8879867"><ele>22.0</ele><time>2026-04-05T06:03:32.287Z</time></trkpt><trkpt lat="41.4456792" lon="12.8880631"><ele>22.0</ele><time>2026-04-05T06:03:34.288Z</time></trkpt><trkpt lat="41.4457572" lon="12.8881117"><ele>22.333333333333332</ele><time>2026-04-05T06:03:36.288Z</time></trkpt><trkpt lat="41.4458345" lon="12.888167"><ele>22.666666666666664</ele><time>2026-04-05T06:03:38.288Z</time></trkpt><trkpt lat="41.4459133" lon="12.888213"><ele>23.0</ele><time>2026-04-05T06:03:40.287Z</time></trkpt><trkpt lat="41.4459946" lon="12.8882461"><ele>23.333333333333332</ele><time>2026-04-05T06:03:42.288Z</time></trkpt><trkpt lat="41.4460812" lon="12.8882482"><ele>23.666666666666668</ele><time>2026-04-05T06:03:44.288Z</time></trkpt><trkpt lat="41.4461598" lon="12.8882104"><ele>24.0</ele><time>2026-04-05T06:03:46.288Z</time></trkpt><trkpt lat="41.4462118" lon="12.888131"><ele>24.0</ele><time>2026-04-05T06:03:48.288Z</time></trkpt><trkpt lat="41.4462513" lon="12.8880579"><ele>24.0</ele><time>2026-04-05T06:03:50.288Z</time></trkpt><trkpt lat="41.4463343" lon="12.888101"><ele>24.0</ele><time>2026-04-05T06:03:53.288Z</time></trkpt><trkpt lat="41.4463253" lon="12.8882072"><ele>24.0</ele><time>2026-04-05T06:03:55.288Z</time></trkpt><trkpt lat="41.4463124" lon="12.8883128"><ele>24.0</ele><time>2026-04-05T06:03:57.288Z</time></trkpt><trkpt lat="41.446342" lon="12.8884156"><ele>24.0</ele><time>2026-04-05T06:03:59.288Z</time></trkpt><trkpt lat="41.4464025" lon="12.8884907"><ele>23.666666666666668</ele><time>2026-04-05T06:04:01.288Z</time></trkpt><trkpt lat="41.4464714" lon="12.8885411"><ele>23.333333333333332</ele><time>2026-04-05T06:04:03.287Z</time></trkpt><trkpt lat="41.4465505" lon="12.8885712"><ele>23.0</ele><time>2026-04-05T06:04:05.288Z</time></trkpt><trkpt lat="41.4466277" lon="12.8886247"><ele>22.666666666666664</ele><time>2026-04-05T06:04:07.288Z</time></trkpt><trkpt lat="41.4466983" lon="12.8886717"><ele>22.333333333333332</ele><time>2026-04-05T06:04:09.288Z</time></trkpt><trkpt lat="41.4467689" lon="12.8887109"><ele>22.0</ele><time>2026-04-05T06:04:11.288Z</time></trkpt><trkpt lat="41.4468426" lon="12.8887519"><ele>22.0</ele><time>2026-04-05T06:04:13.288Z</time></trkpt><trkpt lat="41.4469219" lon="12.8887742"><ele>22.0</ele><time>2026-04-05T06:04:15.288Z</time></trkpt><trkpt lat="41.4469939" lon="12.8888009"><ele>22.0</ele><time>2026-04-05T06:04:17.288Z</time></trkpt><trkpt lat="41.4470683" lon="12.8888204"><ele>22.0</ele><time>2026-04-05T06:04:19.288Z</time></trkpt><trkpt lat="41.4471438" lon="12.8888097"><ele>22.0</ele><time>2026-04-05T06:04:21.288Z</time></trkpt><trkpt lat="41.4472164" lon="12.8888344"><ele>22.0</ele><time>2026-04-05T06:04:23.288Z</time></trkpt><trkpt lat="41.4472953" lon="12.8888528"><ele>22.0</ele><time>2026-04-05T06:04:25.288Z</time></trkpt><trkpt lat="41.4473722" lon="12.8888192"><ele>22.0</ele><time>2026-04-05T06:04:27.288Z</time></trkpt><trkpt lat="41.4474484" lon="12.8888091"><ele>22.0</ele><time>2026-04-05T06:04:29.288Z</time></trkpt><trkpt lat="41.4475257" lon="12.8888254"><ele>22.0</ele><time>2026-04-05T06:04:31.288Z</time></trkpt><trkpt lat="41.4475985" lon="12.8888729"><ele>22.0</ele><time>2026-04-05T06:04:33.288Z</time></trkpt><trkpt lat="41.4476648" lon="12.8889348"><ele>22.0</ele><time>2026-04-05T06:04:35.288Z</time></trkpt><trkpt lat="41.4477065" lon="12.8890063"><ele>22.0</ele><time>2026-04-05T06:04:37.288Z</time></trkpt><trkpt lat="41.4477345" lon="12.8891029"><ele>22.0</ele><time>2026-04-05T06:04:39.287Z</time></trkpt><trkpt lat="41.4477847" lon="12.8891889"><ele>22.0</ele><time>2026-04-05T06:04:41.288Z</time></trkpt><trkpt lat="41.4478449" lon="12.8892704"><ele>22.0</ele><time>2026-04-05T06:04:43.287Z</time></trkpt><trkpt lat="41.4478964" lon="12.8893557"><ele>22.0</ele><time>2026-04-05T06:04:45.288Z</time></trkpt><trkpt lat="41.4479385" lon="12.8894449"><ele>22.0</ele><time>2026-04-05T06:04:47.288Z</time></trkpt><trkpt lat="41.4479419" lon="12.8895528"><ele>22.166666666666664</ele><time>2026-04-05T06:04:49.287Z</time></trkpt><trkpt lat="41.447955" lon="12.8896535"><ele>22.333333333333332</ele><time>2026-04-05T06:04:51.288Z</time></trkpt><trkpt lat="41.4480207" lon="12.8896947"><ele>22.5</ele><time>2026-04-05T06:04:53.288Z</time></trkpt><trkpt lat="41.4480941" lon="12.8897052"><ele>22.666666666666668</ele><time>2026-04-05T06:04:55.288Z</time></trkpt><trkpt lat="41.4481641" lon="12.8897293"><ele>22.833333333333336</ele><time>2026-04-05T06:04:57.288Z</time></trkpt><trkpt lat="41.4482368" lon="12.8897572"><ele>23.0</ele><time>2026-04-05T06:04:59.288Z</time></trkpt><trkpt lat="41.4483081" lon="12.8898015"><ele>23.166666666666668</ele><time>2026-04-05T06:05:01.288Z</time></trkpt><trkpt lat="41.4483803" lon="12.8898505"><ele>23.333333333333336</ele><time>2026-04-05T06:05:03.288Z</time></trkpt><trkpt lat="41.4484546" lon="12.8898951"><ele>23.5</ele><time>2026-04-05T06:05:05.288Z</time></trkpt><trkpt lat="41.4485303" lon="12.8899434"><ele>23.666666666666668</ele><time>2026-04-05T06:05:07.287Z</time></trkpt><trkpt lat="41.4486093" lon="12.8899873"><ele>23.833333333333332</ele><time>2026-04-05T06:05:09.287Z</time></trkpt><trkpt lat="41.448688" lon="12.8900342"><ele>24.0</ele><time>2026-04-05T06:05:11.288Z</time></trkpt><trkpt lat="41.4487675" lon="12.8900783"><ele>23.666666666666668</ele><time>2026-04-05T06:05:13.288Z</time></trkpt><trkpt lat="41.4488482" lon="12.890125"><ele>23.333333333333332</ele><time>2026-04-05T06:05:15.288Z</time></trkpt><trkpt lat="41.4489251" lon="12.8901683"><ele>23.0</ele><time>2026-04-05T06:05:17.288Z</time></trkpt><trkpt lat="41.4490026" lon="12.8902056"><ele>22.666666666666664</ele><time>2026-04-05T06:05:19.288Z</time></trkpt><trkpt lat="41.449078" lon="12.8902465"><ele>22.333333333333332</ele><time>2026-04-05T06:05:21.288Z</time></trkpt><trkpt lat="41.4491545" lon="12.8902927"><ele>22.0</ele><time>2026-04-05T06:05:23.288Z</time></trkpt><trkpt lat="41.4492332" lon="12.8903375"><ele>22.0</ele><time>2026-04-05T06:05:25.288Z</time></trkpt><trkpt lat="41.4493095" lon="12.8903831"><ele>22.0</ele><time>2026-04-05T06:05:27.288Z</time></trkpt><trkpt lat="41.4493858" lon="12.8904252"><ele>22.0</ele><time>2026-04-05T06:05:29.288Z</time></trkpt><trkpt lat="41.4494589" lon="12.8904776"><ele>22.0</ele><time>2026-04-05T06:05:31.287Z</time></trkpt><trkpt lat="41.4495314" lon="12.8905248"><ele>22.0</ele><time>2026-04-05T06:05:33.288Z</time></trkpt><trkpt lat="41.4496073" lon="12.8905686"><ele>22.0</ele><time>2026-04-05T06:05:35.288Z</time></trkpt><trkpt lat="41.4496846" lon="12.8906157"><ele>22.166666666666664</ele><time>2026-04-05T06:05:37.288Z</time></trkpt><trkpt lat="41.4497643" lon="12.8906522"><ele>22.333333333333332</ele><time>2026-04-05T06:05:39.288Z</time></trkpt><trkpt lat="41.4498425" lon="12.8906952"><ele>22.5</ele><time>2026-04-05T06:05:41.288Z</time></trkpt><trkpt lat="41.4499196" lon="12.8907252"><ele>22.666666666666668</ele><time>2026-04-05T06:05:43.288Z</time></trkpt><trkpt lat="41.4499884" lon="12.8907654"><ele>22.833333333333336</ele><time>2026-04-05T06:05:45.288Z</time></trkpt><trkpt lat="41.4500592" lon="12.8908092"><ele>23.0</ele><time>2026-04-05T06:05:47.288Z</time></trkpt><trkpt lat="41.4501324" lon="12.8908416"><ele>23.0</ele><time>2026-04-05T06:05:49.288Z</time></trkpt><trkpt lat="41.4501918" lon="12.8908819"><ele>23.0</ele><time>2026-04-05T06:05:51.288Z</time></trkpt><trkpt lat="41.4502584" lon="12.8909226"><ele>23.0</ele><time>2026-04-05T06:05:53.288Z</time></trkpt><trkpt lat="41.4503303" lon="12.8909621"><ele>23.0</ele><time>2026-04-05T06:05:55.288Z</time></trkpt><trkpt lat="41.450407" lon="12.8910049"><ele>23.0</ele><time>2026-04-05T06:05:57.288Z</time></trkpt><trkpt lat="41.4504857" lon="12.8910521"><ele>23.0</ele><time>2026-04-05T06:05:59.288Z</time></trkpt><trkpt lat="41.4505679" lon="12.8910984"><ele>23.166666666666668</ele><time>2026-04-05T06:06:01.287Z</time></trkpt><trkpt lat="41.4506487" lon="12.8911417"><ele>23.333333333333336</ele><time>2026-04-05T06:06:03.288Z</time></trkpt><trkpt lat="41.4507248" lon="12.8911868"><ele>23.5</ele><time>2026-04-05T06:06:05.288Z</time></trkpt><trkpt lat="41.4507978" lon="12.8912277"><ele>23.666666666666668</ele><time>2026-04-05T06:06:07.288Z</time></trkpt><trkpt lat="41.4508749" lon="12.8912709"><ele>23.833333333333332</ele><time>2026-04-05T06:06:09.288Z</time></trkpt><trkpt lat="41.4509469" lon="12.8913148"><ele>24.0</ele><time>2026-04-05T06:06:11.287Z</time></trkpt><trkpt lat="41.4510174" lon="12.8913581"><ele>24.0</ele><time>2026-04-05T06:06:13.288Z</time></trkpt><trkpt lat="41.4510898" lon="12.8914043"><ele>24.0</ele><time>2026-04-05T06:06:15.288Z</time></trkpt><trkpt lat="41.4511585" lon="12.8914606"><ele>24.0</ele><time>2026-04-05T06:06:17.288Z</time></trkpt><trkpt lat="41.4512224" lon="12.8915251"><ele>24.0</ele><time>2026-04-05T06:06:19.287Z</time></trkpt><trkpt lat="41.4513038" lon="12.8915748"><ele>24.0</ele><time>2026-04-05T06:06:21.288Z</time></trkpt><trkpt lat="41.4513824" lon="12.8916133"><ele>24.0</ele><time>2026-04-05T06:06:23.288Z</time></trkpt><trkpt lat="41.4514535" lon="12.891652"><ele>24.0</ele><time>2026-04-05T06:06:25.288Z</time></trkpt><trkpt lat="41.4515229" lon="12.8916744"><ele>24.0</ele><time>2026-04-05T06:06:27.288Z</time></trkpt><trkpt lat="41.451596" lon="12.8916991"><ele>24.0</ele><time>2026-04-05T06:06:29.288Z</time></trkpt><trkpt lat="41.4516717" lon="12.8917449"><ele>24.0</ele><time>2026-04-05T06:06:31.288Z</time></trkpt><trkpt lat="41.4517444" lon="12.8918035"><ele>24.0</ele><time>2026-04-05T06:06:33.288Z</time></trkpt><trkpt lat="41.4518171" lon="12.8918558"><ele>24.0</ele><time>2026-04-05T06:06:35.288Z</time></trkpt><trkpt lat="41.4518942" lon="12.8919011"><ele>24.0</ele><time>2026-04-05T06:06:37.288Z</time></trkpt><trkpt lat="41.4519733" lon="12.8919455"><ele>24.0</ele><time>2026-04-05T06:06:39.288Z</time></trkpt><trkpt lat="41.4520488" lon="12.8919797"><ele>24.0</ele><time>2026-04-05T06:06:41.288Z</time></trkpt><trkpt lat="41.4521226" lon="12.8920267"><ele>24.0</ele><time>2026-04-05T06:06:43.288Z</time></trkpt><trkpt lat="41.4521981" lon="12.8920686"><ele>24.0</ele><time>2026-04-05T06:06:45.288Z</time></trkpt><trkpt lat="41.4522772" lon="12.8921077"><ele>24.0</ele><time>2026-04-05T06:06:47.288Z</time></trkpt><trkpt lat="41.4523608" lon="12.8921464"><ele>23.833333333333332</ele><time>2026-04-05T06:06:49.288Z</time></trkpt><trkpt lat="41.4524438" lon="12.8921931"><ele>23.666666666666668</ele><time>2026-04-05T06:06:51.288Z</time></trkpt><trkpt lat="41.4525262" lon="12.8922368"><ele>23.5</ele><time>2026-04-05T06:06:53.288Z</time></trkpt><trkpt lat="41.4526072" lon="12.8922859"><ele>23.333333333333336</ele><time>2026-04-05T06:06:55.288Z</time></trkpt><trkpt lat="41.4526853" lon="12.8923344"><ele>23.166666666666668</ele><time>2026-04-05T06:06:57.287Z</time></trkpt><trkpt lat="41.4527634" lon="12.8923752"><ele>23.0</ele><time>2026-04-05T06:06:59.288Z</time></trkpt><trkpt lat="41.4528323" lon="12.8924172"><ele>23.0</ele><time>2026-04-05T06:07:01.288Z</time></trkpt><trkpt lat="41.4529077" lon="12.8924566"><ele>23.0</ele><time>2026-04-05T06:07:03.288Z</time></trkpt><trkpt lat="41.4529761" lon="12.8924996"><ele>23.0</ele><time>2026-04-05T06:07:05.287Z</time></trkpt><trkpt lat="41.4530398" lon="12.8925324"><ele>23.0</ele><time>2026-04-05T06:07:07.288Z</time></trkpt><trkpt lat="41.4531054" lon="12.8925666"><ele>23.0</ele><time>2026-04-05T06:07:09.288Z</time></trkpt><trkpt lat="41.4531714" lon="12.8926074"><ele>23.0</ele><time>2026-04-05T06:07:11.288Z</time></trkpt><trkpt lat="41.4532357" lon="12.8926421"><ele>23.0</ele><time>2026-04-05T06:07:13.288Z</time></trkpt><trkpt lat="41.453298" lon="12.8926737"><ele>23.142857142857142</ele><time>2026-04-05T06:07:15.288Z</time></trkpt><trkpt lat="41.4533587" lon="12.8927154"><ele>23.285714285714285</ele><time>2026-04-05T06:07:17.288Z</time></trkpt><trkpt lat="41.4534165" lon="12.8927576"><ele>23.428571428571427</ele><time>2026-04-05T06:07:19.288Z</time></trkpt><trkpt lat="41.4534733" lon="12.8928075"><ele>23.57142857142857</ele><time>2026-04-05T06:07:21.288Z</time></trkpt><trkpt lat="41.4535357" lon="12.8928461"><ele>23.714285714285715</ele><time>2026-04-05T06:07:23.288Z</time></trkpt><trkpt lat="41.4536014" lon="12.8928694"><ele>23.857142857142854</ele><time>2026-04-05T06:07:25.288Z</time></trkpt><trkpt lat="41.4536717" lon="12.8929043"><ele>24.0</ele><time>2026-04-05T06:07:27.288Z</time></trkpt><trkpt lat="41.4537403" lon="12.892943"><ele>24.0</ele><time>2026-04-05T06:07:29.288Z</time></trkpt><trkpt lat="41.4538082" lon="12.8929926"><ele>24.0</ele><time>2026-04-05T06:07:31.287Z</time></trkpt><trkpt lat="41.4538734" lon="12.8930465"><ele>24.0</ele><time>2026-04-05T06:07:33.288Z</time></trkpt><trkpt lat="41.4539422" lon="12.8930894"><ele>24.0</ele><time>2026-04-05T06:07:35.287Z</time></trkpt><trkpt lat="41.4540129" lon="12.8931291"><ele>24.0</ele><time>2026-04-05T06:07:37.288Z</time></trkpt><trkpt lat="41.4540874" lon="12.8931708"><ele>24.0</ele><time>2026-04-05T06:07:39.287Z</time></trkpt><trkpt lat="41.4541623" lon="12.893206"><ele>24.0</ele><time>2026-04-05T06:07:41.288Z</time></trkpt><trkpt lat="41.4542392" lon="12.8932427"><ele>24.0</ele><time>2026-04-05T06:07:43.288Z</time></trkpt><trkpt lat="41.454313" lon="12.8932737"><ele>24.0</ele><time>2026-04-05T06:07:45.288Z</time></trkpt><trkpt lat="41.4543904" lon="12.8933099"><ele>24.0</ele><time>2026-04-05T06:07:47.288Z</time></trkpt><trkpt lat="41.4544625" lon="12.8933528"><ele>24.0</ele><time>2026-04-05T06:07:49.288Z</time></trkpt><trkpt lat="41.4545347" lon="12.8933953"><ele>24.0</ele><time>2026-04-05T06:07:51.288Z</time></trkpt><trkpt lat="41.4546046" lon="12.8934372"><ele>24.0</ele><time>2026-04-05T06:07:53.288Z</time></trkpt><trkpt lat="41.4546781" lon="12.893478"><ele>24.0</ele><time>2026-04-05T06:07:55.288Z</time></trkpt><trkpt lat="41.4547511" lon="12.8935246"><ele>24.0</ele><time>2026-04-05T06:07:57.288Z</time></trkpt><trkpt lat="41.454822" lon="12.8935745"><ele>24.0</ele><time>2026-04-05T06:07:59.288Z</time></trkpt><trkpt lat="41.4548949" lon="12.893616"><ele>24.0</ele><time>2026-04-05T06:08:01.287Z</time></trkpt><trkpt lat="41.4549679" lon="12.8936553"><ele>24.0</ele><time>2026-04-05T06:08:03.288Z</time></trkpt><trkpt lat="41.4550368" lon="12.8936962"><ele>23.999999999999996</ele><time>2026-04-05T06:08:05.288Z</time></trkpt><trkpt lat="41.4551037" lon="12.8937344"><ele>24.0</ele><time>2026-04-05T06:08:07.287Z</time></trkpt><trkpt lat="41.4551713" lon="12.893763"><ele>24.0</ele><time>2026-04-05T06:08:09.288Z</time></trkpt><trkpt lat="41.4552366" lon="12.8937635"><ele>24.0</ele><time>2026-04-05T06:08:11.288Z</time></trkpt><trkpt lat="41.4552956" lon="12.8936653"><ele>24.0</ele><time>2026-04-05T06:08:14.288Z</time></trkpt><trkpt lat="41.4553541" lon="12.8936132"><ele>23.999999999999996</ele><time>2026-04-05T06:08:16.288Z</time></trkpt><trkpt lat="41.4554264" lon="12.8936226"><ele>24.0</ele><time>2026-04-05T06:08:18.288Z</time></trkpt><trkpt lat="41.4554943" lon="12.8936729"><ele>24.166666666666668</ele><time>2026-04-05T06:08:20.288Z</time></trkpt><trkpt lat="41.4555691" lon="12.8937191"><ele>24.333333333333336</ele><time>2026-04-05T06:08:22.288Z</time></trkpt><trkpt lat="41.455645" lon="12.8937614"><ele>24.5</ele><time>2026-04-05T06:08:24.288Z</time></trkpt><trkpt lat="41.4557175" lon="12.8938127"><ele>24.666666666666668</ele><time>2026-04-05T06:08:26.288Z</time></trkpt><trkpt lat="41.4557884" lon="12.8938589"><ele>24.833333333333336</ele><time>2026-04-05T06:08:28.288Z</time></trkpt><trkpt lat="41.4558616" lon="12.8939019"><ele>25.0</ele><time>2026-04-05T06:08:30.288Z</time></trkpt><trkpt lat="41.4559316" lon="12.8939512"><ele>25.000000000000004</ele><time>2026-04-05T06:08:32.288Z</time></trkpt><trkpt lat="41.4560017" lon="12.8939886"><ele>25.0</ele><time>2026-04-05T06:08:34.286Z</time></trkpt><trkpt lat="41.4560722" lon="12.8940259"><ele>25.0</ele><time>2026-04-05T06:08:36.287Z</time></trkpt><trkpt lat="41.4561396" lon="12.8940741"><ele>25.0</ele><time>2026-04-05T06:08:38.288Z</time></trkpt><trkpt lat="41.4562137" lon="12.8941158"><ele>25.000000000000004</ele><time>2026-04-05T06:08:40.288Z</time></trkpt><trkpt lat="41.4562877" lon="12.8941542"><ele>25.0</ele><time>2026-04-05T06:08:42.287Z</time></trkpt><trkpt lat="41.4563618" lon="12.894191"><ele>25.166666666666668</ele><time>2026-04-05T06:08:44.288Z</time></trkpt><trkpt lat="41.456435" lon="12.8942367"><ele>25.333333333333336</ele><time>2026-04-05T06:08:46.288Z</time></trkpt><trkpt lat="41.4565139" lon="12.8942722"><ele>25.5</ele><time>2026-04-05T06:08:48.287Z</time></trkpt><trkpt lat="41.4565935" lon="12.894293"><ele>25.666666666666664</ele><time>2026-04-05T06:08:50.288Z</time></trkpt><trkpt lat="41.4566723" lon="12.8943137"><ele>25.833333333333332</ele><time>2026-04-05T06:08:52.288Z</time></trkpt><trkpt lat="41.4567517" lon="12.894317"><ele>26.0</ele><time>2026-04-05T06:08:54.288Z</time></trkpt><trkpt lat="41.4568307" lon="12.8943151"><ele>26.0</ele><time>2026-04-05T06:08:56.288Z</time></trkpt><trkpt lat="41.4569042" lon="12.8942895"><ele>26.0</ele><time>2026-04-05T06:08:58.288Z</time></trkpt><trkpt lat="41.456963" lon="12.8942228"><ele>26.0</ele><time>2026-04-05T06:09:00.288Z</time></trkpt><trkpt lat="41.4570104" lon="12.8941467"><ele>26.0</ele><time>2026-04-05T06:09:02.288Z</time></trkpt><trkpt lat="41.4570574" lon="12.8940771"><ele>26.0</ele><time>2026-04-05T06:09:04.287Z</time></trkpt><trkpt lat="41.4571108" lon="12.8940245"><ele>26.0</ele><time>2026-04-05T06:09:06.288Z</time></trkpt><trkpt lat="41.4571806" lon="12.8940352"><ele>26.0</ele><time>2026-04-05T06:09:08.288Z</time></trkpt><trkpt lat="41.4572502" lon="12.8940091"><ele>25.999999999999996</ele><time>2026-04-05T06:09:10.288Z</time></trkpt><trkpt lat="41.4572997" lon="12.8939374"><ele>26.0</ele><time>2026-04-05T06:09:12.288Z</time></trkpt><trkpt lat="41.4573367" lon="12.8938467"><ele>26.0</ele><time>2026-04-05T06:09:14.288Z</time></trkpt><trkpt lat="41.4573758" lon="12.8937539"><ele>26.0</ele><time>2026-04-05T06:09:16.288Z</time></trkpt><trkpt lat="41.4574154" lon="12.8936602"><ele>25.999999999999996</ele><time>2026-04-05T06:09:18.288Z</time></trkpt><trkpt lat="41.4574394" lon="12.8935549"><ele>26.0</ele><time>2026-04-05T06:09:20.288Z</time></trkpt><trkpt lat="41.4574707" lon="12.8934526"><ele>25.999999999999996</ele><time>2026-04-05T06:09:22.288Z</time></trkpt><trkpt lat="41.4575136" lon="12.8933569"><ele>26.0</ele><time>2026-04-05T06:09:24.288Z</time></trkpt><trkpt lat="41.4575579" lon="12.8932634"><ele>26.0</ele><time>2026-04-05T06:09:26.288Z</time></trkpt><trkpt lat="41.4576015" lon="12.8931688"><ele>26.0</ele><time>2026-04-05T06:09:28.288Z</time></trkpt><trkpt lat="41.4576515" lon="12.8930784"><ele>25.999999999999996</ele><time>2026-04-05T06:09:30.288Z</time></trkpt><trkpt lat="41.4577204" lon="12.8930146"><ele>26.0</ele><time>2026-04-05T06:09:32.287Z</time></trkpt><trkpt lat="41.4577985" lon="12.8929851"><ele>25.999999999999996</ele><time>2026-04-05T06:09:34.288Z</time></trkpt><trkpt lat="41.4578796" lon="12.892966"><ele>26.0</ele><time>2026-04-05T06:09:36.288Z</time></trkpt><trkpt lat="41.4579613" lon="12.892977"><ele>26.0</ele><time>2026-04-05T06:09:38.288Z</time></trkpt><trkpt lat="41.4580431" lon="12.893002"><ele>26.0</ele><time>2026-04-05T06:09:40.287Z</time></trkpt><trkpt lat="41.4581209" lon="12.8930477"><ele>25.999999999999996</ele><time>2026-04-05T06:09:42.288Z</time></trkpt><trkpt lat="41.4581972" lon="12.8930968"><ele>26.0</ele><time>2026-04-05T06:09:44.288Z</time></trkpt><trkpt lat="41.4582735" lon="12.8931504"><ele>25.999999999999996</ele><time>2026-04-05T06:09:46.287Z</time></trkpt><trkpt lat="41.4583527" lon="12.8931874"><ele>26.0</ele><time>2026-04-05T06:09:48.288Z</time></trkpt><trkpt lat="41.4584369" lon="12.8932044"><ele>26.0</ele><time>2026-04-05T06:09:50.288Z</time></trkpt><trkpt lat="41.4585232" lon="12.8932056"><ele>26.0</ele><time>2026-04-05T06:09:52.288Z</time></trkpt><trkpt lat="41.4586092" lon="12.8932016"><ele>25.999999999999996</ele><time>2026-04-05T06:09:54.288Z</time></trkpt><trkpt lat="41.4586956" lon="12.8931882"><ele>26.0</ele><time>2026-04-05T06:09:56.288Z</time></trkpt><trkpt lat="41.4587792" lon="12.8931618"><ele>26.333333333333332</ele><time>2026-04-05T06:09:58.288Z</time></trkpt><trkpt lat="41.4588629" lon="12.8931334"><ele>26.666666666666664</ele><time>2026-04-05T06:10:00.288Z</time></trkpt><trkpt lat="41.4589442" lon="12.8930964"><ele>27.0</ele><time>2026-04-05T06:10:02.288Z</time></trkpt><trkpt lat="41.4590287" lon="12.8930646"><ele>27.333333333333336</ele><time>2026-04-05T06:10:04.287Z</time></trkpt><trkpt lat="41.4591129" lon="12.8930351"><ele>27.666666666666668</ele><time>2026-04-05T06:10:06.288Z</time></trkpt><trkpt lat="41.4591953" lon="12.8930107"><ele>28.0</ele><time>2026-04-05T06:10:08.288Z</time></trkpt><trkpt lat="41.4592769" lon="12.8929764"><ele>28.000000000000004</ele><time>2026-04-05T06:10:10.288Z</time></trkpt><trkpt lat="41.4593569" lon="12.8929425"><ele>28.0</ele><time>2026-04-05T06:10:12.287Z</time></trkpt><trkpt lat="41.4594367" lon="12.8929185"><ele>28.0</ele><time>2026-04-05T06:10:14.288Z</time></trkpt><trkpt lat="41.4595147" lon="12.8929052"><ele>28.0</ele><time>2026-04-05T06:10:16.287Z</time></trkpt><trkpt lat="41.4595599" lon="12.8928459"><ele>28.000000000000004</ele><time>2026-04-05T06:10:18.288Z</time></trkpt><trkpt lat="41.4595859" lon="12.8927316"><ele>28.0</ele><time>2026-04-05T06:10:21.288Z</time></trkpt><trkpt lat="41.4596644" lon="12.8926975"><ele>27.666666666666668</ele><time>2026-04-05T06:10:24.287Z</time></trkpt><trkpt lat="41.4597342" lon="12.8926956"><ele>27.333333333333336</ele><time>2026-04-05T06:10:26.288Z</time></trkpt><trkpt lat="41.4598113" lon="12.8926909"><ele>27.0</ele><time>2026-04-05T06:10:28.288Z</time></trkpt><trkpt lat="41.4598889" lon="12.8926888"><ele>26.666666666666664</ele><time>2026-04-05T06:10:30.288Z</time></trkpt><trkpt lat="41.4599691" lon="12.8926901"><ele>26.333333333333332</ele><time>2026-04-05T06:10:32.288Z</time></trkpt><trkpt lat="41.4600513" lon="12.8926871"><ele>26.0</ele><time>2026-04-05T06:10:34.288Z</time></trkpt><trkpt lat="41.4601288" lon="12.8926895"><ele>25.999999999999996</ele><time>2026-04-05T06:10:36.288Z</time></trkpt><trkpt lat="41.4602032" lon="12.8926879"><ele>26.0</ele><time>2026-04-05T06:10:38.288Z</time></trkpt><trkpt lat="41.4602772" lon="12.8926855"><ele>26.0</ele><time>2026-04-05T06:10:40.288Z</time></trkpt><trkpt lat="41.460355" lon="12.8926734"><ele>26.0</ele><time>2026-04-05T06:10:42.288Z</time></trkpt><trkpt lat="41.4604431" lon="12.8926619"><ele>25.999999999999996</ele><time>2026-04-05T06:10:44.288Z</time></trkpt><trkpt lat="41.4605211" lon="12.8926665"><ele>26.0</ele><time>2026-04-05T06:10:46.288Z</time></trkpt><trkpt lat="41.4606095" lon="12.8926658"><ele>26.499999999999996</ele><time>2026-04-05T06:10:48.288Z</time></trkpt><trkpt lat="41.4606733" lon="12.8926651"><ele>27.0</ele><time>2026-04-05T06:10:50.288Z</time></trkpt><trkpt lat="41.4607533" lon="12.8926509"><ele>27.5</ele><time>2026-04-05T06:10:52.288Z</time></trkpt><trkpt lat="41.4608375" lon="12.892651"><ele>28.0</ele><time>2026-04-05T06:10:54.287Z</time></trkpt><trkpt lat="41.4609225" lon="12.8926502"><ele>28.499999999999996</ele><time>2026-04-05T06:10:56.288Z</time></trkpt><trkpt lat="41.4610074" lon="12.8926475"><ele>29.0</ele><time>2026-04-05T06:10:58.288Z</time></trkpt><trkpt lat="41.461094" lon="12.8926455"><ele>29.000000000000004</ele><time>2026-04-05T06:11:00.287Z</time></trkpt><trkpt lat="41.4611664" lon="12.8926488"><ele>29.0</ele><time>2026-04-05T06:11:02.288Z</time></trkpt><trkpt lat="41.4612336" lon="12.8926512"><ele>29.000000000000004</ele><time>2026-04-05T06:11:04.288Z</time></trkpt><trkpt lat="41.4613026" lon="12.8926439"><ele>29.000000000000004</ele><time>2026-04-05T06:11:06.288Z</time></trkpt><trkpt lat="41.4613831" lon="12.8926406"><ele>29.0</ele><time>2026-04-05T06:11:08.288Z</time></trkpt><trkpt lat="41.4614613" lon="12.8926408"><ele>29.000000000000004</ele><time>2026-04-05T06:11:10.288Z</time></trkpt><trkpt lat="41.461537" lon="12.8926353"><ele>29.000000000000004</ele><time>2026-04-05T06:11:12.287Z</time></trkpt><trkpt lat="41.4616252" lon="12.892631"><ele>28.999999999999996</ele><time>2026-04-05T06:11:14.287Z</time></trkpt><trkpt lat="41.4617126" lon="12.8926254"><ele>29.0</ele><time>2026-04-05T06:11:16.288Z</time></trkpt><trkpt lat="41.4618048" lon="12.8926261"><ele>29.0</ele><time>2026-04-05T06:11:18.288Z</time></trkpt><trkpt lat="41.4618935" lon="12.8926268"><ele>29.0</ele><time>2026-04-05T06:11:20.288Z</time></trkpt><trkpt lat="41.4619776" lon="12.8926238"><ele>28.999999999999996</ele><time>2026-04-05T06:11:22.288Z</time></trkpt><trkpt lat="41.4620586" lon="12.8926209"><ele>29.0</ele><time>2026-04-05T06:11:24.288Z</time></trkpt><trkpt lat="41.4621388" lon="12.8926045"><ele>28.833333333333332</ele><time>2026-04-05T06:11:26.288Z</time></trkpt><trkpt lat="41.4622153" lon="12.8925786"><ele>28.666666666666664</ele><time>2026-04-05T06:11:28.288Z</time></trkpt><trkpt lat="41.4622906" lon="12.8925403"><ele>28.5</ele><time>2026-04-05T06:11:30.288Z</time></trkpt><trkpt lat="41.4623627" lon="12.8924873"><ele>28.333333333333336</ele><time>2026-04-05T06:11:32.287Z</time></trkpt><trkpt lat="41.4624224" lon="12.8924263"><ele>28.166666666666668</ele><time>2026-04-05T06:11:34.288Z</time></trkpt><trkpt lat="41.4624734" lon="12.8923676"><ele>28.0</ele><time>2026-04-05T06:11:36.288Z</time></trkpt><trkpt lat="41.4625715" lon="12.8923587"><ele>28.000000000000004</ele><time>2026-04-05T06:11:39.287Z</time></trkpt><trkpt lat="41.4626416" lon="12.8923166"><ele>28.0</ele><time>2026-04-05T06:11:41.288Z</time></trkpt><trkpt lat="41.4626966" lon="12.8922377"><ele>28.0</ele><time>2026-04-05T06:11:43.288Z</time></trkpt><trkpt lat="41.4627344" lon="12.8921372"><ele>28.0</ele><time>2026-04-05T06:11:45.288Z</time></trkpt><trkpt lat="41.4627617" lon="12.8920289"><ele>28.000000000000004</ele><time>2026-04-05T06:11:47.288Z</time></trkpt><trkpt lat="41.4627977" lon="12.8919242"><ele>28.0</ele><time>2026-04-05T06:11:49.288Z</time></trkpt><trkpt lat="41.462847" lon="12.8918259"><ele>27.799999999999997</ele><time>2026-04-05T06:11:51.288Z</time></trkpt><trkpt lat="41.4628872" lon="12.89171"><ele>27.599999999999998</ele><time>2026-04-05T06:11:53.288Z</time></trkpt><trkpt lat="41.462928" lon="12.8915873"><ele>27.400000000000002</ele><time>2026-04-05T06:11:55.288Z</time></trkpt><trkpt lat="41.4629666" lon="12.8914488"><ele>27.200000000000003</ele><time>2026-04-05T06:11:57.288Z</time></trkpt><trkpt lat="41.4630217" lon="12.8912962"><ele>27.0</ele><time>2026-04-05T06:11:59.287Z</time></trkpt><trkpt lat="41.463051" lon="12.8912156"><ele>26.857142857142858</ele><time>2026-04-05T06:12:00.287Z</time></trkpt><trkpt lat="41.4630773" lon="12.8911315"><ele>26.714285714285715</ele><time>2026-04-05T06:12:01.288Z</time></trkpt><trkpt lat="41.4631079" lon="12.8910503"><ele>26.57142857142857</ele><time>2026-04-05T06:12:02.288Z</time></trkpt><trkpt lat="41.4631464" lon="12.8909766"><ele>26.42857142857143</ele><time>2026-04-05T06:12:03.288Z</time></trkpt><trkpt lat="41.4631939" lon="12.8909075"><ele>26.28571428571429</ele><time>2026-04-05T06:12:04.288Z</time></trkpt><trkpt lat="41.4632499" lon="12.8908473"><ele>26.142857142857142</ele><time>2026-04-05T06:12:05.288Z</time></trkpt><trkpt lat="41.4633085" lon="12.8907985"><ele>26.0</ele><time>2026-04-05T06:12:06.288Z</time></trkpt><trkpt lat="41.4633681" lon="12.8907587"><ele>25.999999999999996</ele><time>2026-04-05T06:12:07.288Z</time></trkpt><trkpt lat="41.4634255" lon="12.8907136"><ele>26.0</ele><time>2026-04-05T06:12:08.288Z</time></trkpt><trkpt lat="41.4634787" lon="12.8906582"><ele>26.0</ele><time>2026-04-05T06:12:09.288Z</time></trkpt><trkpt lat="41.4635228" lon="12.8905965"><ele>26.0</ele><time>2026-04-05T06:12:10.288Z</time></trkpt><trkpt lat="41.4635685" lon="12.8904534"><ele>25.999999999999996</ele><time>2026-04-05T06:12:12.288Z</time></trkpt><trkpt lat="41.4635702" lon="12.8902891"><ele>26.0</ele><time>2026-04-05T06:12:14.288Z</time></trkpt><trkpt lat="41.4635406" lon="12.8901368"><ele>25.5</ele><time>2026-04-05T06:12:16.288Z</time></trkpt><trkpt lat="41.4635258" lon="12.8899791"><ele>25.0</ele><time>2026-04-05T06:12:18.287Z</time></trkpt><trkpt lat="41.4635343" lon="12.8898226"><ele>24.5</ele><time>2026-04-05T06:12:20.288Z</time></trkpt><trkpt lat="41.4635713" lon="12.8896747"><ele>24.0</ele><time>2026-04-05T06:12:22.288Z</time></trkpt><trkpt lat="41.4636193" lon="12.8895274"><ele>24.0</ele><time>2026-04-05T06:12:24.288Z</time></trkpt><trkpt lat="41.4636451" lon="12.8894499"><ele>24.0</ele><time>2026-04-05T06:12:25.287Z</time></trkpt><trkpt lat="41.4636957" lon="12.8892984"><ele>24.0</ele><time>2026-04-05T06:12:27.288Z</time></trkpt><trkpt lat="41.4637416" lon="12.8891502"><ele>24.0</ele><time>2026-04-05T06:12:29.288Z</time></trkpt><trkpt lat="41.4637898" lon="12.8889976"><ele>24.0</ele><time>2026-04-05T06:12:31.288Z</time></trkpt><trkpt lat="41.4638384" lon="12.8888455"><ele>24.5</ele><time>2026-04-05T06:12:33.288Z</time></trkpt><trkpt lat="41.4638892" lon="12.8886985"><ele>25.0</ele><time>2026-04-05T06:12:35.288Z</time></trkpt><trkpt lat="41.4639355" lon="12.8885475"><ele>25.5</ele><time>2026-04-05T06:12:37.287Z</time></trkpt><trkpt lat="41.46398" lon="12.8883952"><ele>26.0</ele><time>2026-04-05T06:12:39.288Z</time></trkpt><trkpt lat="41.4640291" lon="12.8882479"><ele>26.5</ele><time>2026-04-05T06:12:41.288Z</time></trkpt><trkpt lat="41.4640802" lon="12.8881008"><ele>27.0</ele><time>2026-04-05T06:12:43.288Z</time></trkpt><trkpt lat="41.4641342" lon="12.8879596"><ele>27.5</ele><time>2026-04-05T06:12:45.288Z</time></trkpt><trkpt lat="41.4641842" lon="12.8878259"><ele>28.0</ele><time>2026-04-05T06:12:47.288Z</time></trkpt><trkpt lat="41.4642741" lon="12.8877187"><ele>28.0</ele><time>2026-04-05T06:12:49.288Z</time></trkpt><trkpt lat="41.4643496" lon="12.8876128"><ele>27.999999999999996</ele><time>2026-04-05T06:12:51.288Z</time></trkpt><trkpt lat="41.4644257" lon="12.8875193"><ele>27.999999999999996</ele><time>2026-04-05T06:12:53.288Z</time></trkpt><trkpt lat="41.464508" lon="12.8874292"><ele>28.0</ele><time>2026-04-05T06:12:55.288Z</time></trkpt><trkpt lat="41.4645923" lon="12.8873326"><ele>28.0</ele><time>2026-04-05T06:12:57.287Z</time></trkpt><trkpt lat="41.4646538" lon="12.8872107"><ele>27.599999999999998</ele><time>2026-04-05T06:12:59.288Z</time></trkpt><trkpt lat="41.4646744" lon="12.8870633"><ele>27.199999999999996</ele><time>2026-04-05T06:13:01.288Z</time></trkpt><trkpt lat="41.4646561" lon="12.8869184"><ele>26.8</ele><time>2026-04-05T06:13:03.288Z</time></trkpt><trkpt lat="41.4646043" lon="12.8867855"><ele>26.4</ele><time>2026-04-05T06:13:05.288Z</time></trkpt><trkpt lat="41.4645574" lon="12.88665"><ele>26.0</ele><time>2026-04-05T06:13:07.288Z</time></trkpt><trkpt lat="41.4645198" lon="12.8865047"><ele>26.0</ele><time>2026-04-05T06:13:09.288Z</time></trkpt><trkpt lat="41.4645181" lon="12.8863565"><ele>26.0</ele><time>2026-04-05T06:13:11.288Z</time></trkpt><trkpt lat="41.4645333" lon="12.8862112"><ele>26.0</ele><time>2026-04-05T06:13:13.288Z</time></trkpt><trkpt lat="41.4645448" lon="12.8860785"><ele>26.0</ele><time>2026-04-05T06:13:15.288Z</time></trkpt><trkpt lat="41.4645658" lon="12.8859592"><ele>26.0</ele><time>2026-04-05T06:13:17.288Z</time></trkpt><trkpt lat="41.4645876" lon="12.8858379"><ele>26.6</ele><time>2026-04-05T06:13:19.288Z</time></trkpt><trkpt lat="41.4646011" lon="12.8857184"><ele>27.200000000000003</ele><time>2026-04-05T06:13:21.288Z</time></trkpt><trkpt lat="41.4646136" lon="12.8855947"><ele>27.799999999999997</ele><time>2026-04-05T06:13:23.288Z</time></trkpt><trkpt lat="41.4646384" lon="12.8854792"><ele>28.4</ele><time>2026-04-05T06:13:25.288Z</time></trkpt><trkpt lat="41.4646702" lon="12.8853598"><ele>29.0</ele><time>2026-04-05T06:13:27.288Z</time></trkpt><trkpt lat="41.4647093" lon="12.8852419"><ele>29.0</ele><time>2026-04-05T06:13:29.288Z</time></trkpt><trkpt lat="41.4647621" lon="12.8851314"><ele>29.0</ele><time>2026-04-05T06:13:31.288Z</time></trkpt><trkpt lat="41.4648183" lon="12.8850267"><ele>29.0</ele><time>2026-04-05T06:13:33.288Z</time></trkpt><trkpt lat="41.464871" lon="12.8849233"><ele>29.0</ele><time>2026-04-05T06:13:35.288Z</time></trkpt><trkpt lat="41.4649313" lon="12.8848208"><ele>29.0</ele><time>2026-04-05T06:13:37.288Z</time></trkpt><trkpt lat="41.464989" lon="12.884723"><ele>29.0</ele><time>2026-04-05T06:13:39.288Z</time></trkpt><trkpt lat="41.4650406" lon="12.8846207"><ele>29.0</ele><time>2026-04-05T06:13:41.288Z</time></trkpt><trkpt lat="41.4650947" lon="12.8845301"><ele>29.0</ele><time>2026-04-05T06:13:43.288Z</time></trkpt><trkpt lat="41.4651483" lon="12.8844342"><ele>29.0</ele><time>2026-04-05T06:13:45.287Z</time></trkpt><trkpt lat="41.4652009" lon="12.8843392"><ele>29.0</ele><time>2026-04-05T06:13:47.288Z</time></trkpt><trkpt lat="41.4652605" lon="12.8842435"><ele>29.0</ele><time>2026-04-05T06:13:49.288Z</time></trkpt><trkpt lat="41.4653208" lon="12.8841474"><ele>29.0</ele><time>2026-04-05T06:13:51.288Z</time></trkpt><trkpt lat="41.4653799" lon="12.8840486"><ele>29.0</ele><time>2026-04-05T06:13:53.288Z</time></trkpt><trkpt lat="41.4654408" lon="12.8839478"><ele>29.0</ele><time>2026-04-05T06:13:55.288Z</time></trkpt><trkpt lat="41.4655033" lon="12.88385"><ele>29.0</ele><time>2026-04-05T06:13:57.287Z</time></trkpt><trkpt lat="41.4655632" lon="12.8837496"><ele>28.799999999999997</ele><time>2026-04-05T06:13:59.288Z</time></trkpt><trkpt lat="41.4656229" lon="12.8836485"><ele>28.599999999999998</ele><time>2026-04-05T06:14:01.288Z</time></trkpt><trkpt lat="41.4656837" lon="12.8835463"><ele>28.4</ele><time>2026-04-05T06:14:03.288Z</time></trkpt><trkpt lat="41.465749" lon="12.8834639"><ele>28.2</ele><time>2026-04-05T06:14:05.288Z</time></trkpt><trkpt lat="41.4658366" lon="12.8834405"><ele>28.0</ele><time>2026-04-05T06:14:07.288Z</time></trkpt><trkpt lat="41.46591" lon="12.8834984"><ele>28.0</ele><time>2026-04-05T06:14:09.288Z</time></trkpt><trkpt lat="41.4659876" lon="12.883556"><ele>27.999999999999996</ele><time>2026-04-05T06:14:11.288Z</time></trkpt><trkpt lat="41.4660668" lon="12.8836167"><ele>27.999999999999996</ele><time>2026-04-05T06:14:13.288Z</time></trkpt><trkpt lat="41.4661477" lon="12.883673"><ele>28.0</ele><time>2026-04-05T06:14:15.288Z</time></trkpt><trkpt lat="41.4662304" lon="12.8837299"><ele>28.0</ele><time>2026-04-05T06:14:17.288Z</time></trkpt><trkpt lat="41.466318" lon="12.8837838"><ele>27.799999999999997</ele><time>2026-04-05T06:14:19.288Z</time></trkpt><trkpt lat="41.4664044" lon="12.883843"><ele>27.599999999999998</ele><time>2026-04-05T06:14:21.288Z</time></trkpt><trkpt lat="41.4664854" lon="12.8839246"><ele>27.400000000000002</ele><time>2026-04-05T06:14:23.288Z</time></trkpt><trkpt lat="41.4665716" lon="12.8839933"><ele>27.200000000000003</ele><time>2026-04-05T06:14:25.288Z</time></trkpt><trkpt lat="41.4666598" lon="12.8840631"><ele>27.0</ele><time>2026-04-05T06:14:27.287Z</time></trkpt><trkpt lat="41.4667525" lon="12.8841224"><ele>27.0</ele><time>2026-04-05T06:14:29.288Z</time></trkpt><trkpt lat="41.4668441" lon="12.8841817"><ele>27.000000000000004</ele><time>2026-04-05T06:14:31.288Z</time></trkpt><trkpt lat="41.4669342" lon="12.8842456"><ele>27.000000000000004</ele><time>2026-04-05T06:14:33.288Z</time></trkpt><trkpt lat="41.4670231" lon="12.8843165"><ele>27.0</ele><time>2026-04-05T06:14:35.287Z</time></trkpt><trkpt lat="41.4671139" lon="12.8843954"><ele>27.0</ele><time>2026-04-05T06:14:37.288Z</time></trkpt><trkpt lat="41.4672049" lon="12.8844647"><ele>27.0</ele><time>2026-04-05T06:14:39.287Z</time></trkpt><trkpt lat="41.4673002" lon="12.8845473"><ele>27.000000000000004</ele><time>2026-04-05T06:14:41.288Z</time></trkpt><trkpt lat="41.4673829" lon="12.8846148"><ele>27.000000000000004</ele><time>2026-04-05T06:14:43.288Z</time></trkpt><trkpt lat="41.467477" lon="12.8846789"><ele>27.0</ele><time>2026-04-05T06:14:45.288Z</time></trkpt><trkpt lat="41.4675718" lon="12.8847529"><ele>27.0</ele><time>2026-04-05T06:14:47.288Z</time></trkpt><trkpt lat="41.467661" lon="12.8848162"><ele>27.0</ele><time>2026-04-05T06:14:49.287Z</time></trkpt><trkpt lat="41.4677472" lon="12.8848989"><ele>27.000000000000004</ele><time>2026-04-05T06:14:51.288Z</time></trkpt><trkpt lat="41.4678348" lon="12.8849689"><ele>27.000000000000004</ele><time>2026-04-05T06:14:53.288Z</time></trkpt><trkpt lat="41.4679263" lon="12.8850332"><ele>27.0</ele><time>2026-04-05T06:14:55.288Z</time></trkpt><trkpt lat="41.4680161" lon="12.8850992"><ele>27.0</ele><time>2026-04-05T06:14:57.288Z</time></trkpt><trkpt lat="41.4681063" lon="12.8851665"><ele>26.400000000000002</ele><time>2026-04-05T06:14:59.288Z</time></trkpt><trkpt lat="41.4681896" lon="12.8852333"><ele>25.800000000000004</ele><time>2026-04-05T06:15:01.288Z</time></trkpt><trkpt lat="41.4682721" lon="12.8852951"><ele>25.2</ele><time>2026-04-05T06:15:03.288Z</time></trkpt><trkpt lat="41.4683577" lon="12.8853679"><ele>24.6</ele><time>2026-04-05T06:15:05.287Z</time></trkpt><trkpt lat="41.468434" lon="12.8854332"><ele>24.0</ele><time>2026-04-05T06:15:07.288Z</time></trkpt><trkpt lat="41.4685167" lon="12.8854992"><ele>24.0</ele><time>2026-04-05T06:15:09.287Z</time></trkpt><trkpt lat="41.4685999" lon="12.8855653"><ele>24.0</ele><time>2026-04-05T06:15:11.288Z</time></trkpt><trkpt lat="41.4686807" lon="12.8856267"><ele>24.0</ele><time>2026-04-05T06:15:13.288Z</time></trkpt><trkpt lat="41.4687658" lon="12.885689"><ele>24.0</ele><time>2026-04-05T06:15:15.288Z</time></trkpt><trkpt lat="41.4688512" lon="12.8857529"><ele>24.0</ele><time>2026-04-05T06:15:17.288Z</time></trkpt><trkpt lat="41.4689377" lon="12.8858236"><ele>24.0</ele><time>2026-04-05T06:15:19.288Z</time></trkpt><trkpt lat="41.4690221" lon="12.8859038"><ele>24.0</ele><time>2026-04-05T06:15:21.288Z</time></trkpt><trkpt lat="41.4691111" lon="12.8859754"><ele>24.0</ele><time>2026-04-05T06:15:23.288Z</time></trkpt><trkpt lat="41.4692109" lon="12.8860491"><ele>24.0</ele><time>2026-04-05T06:15:25.287Z</time></trkpt><trkpt lat="41.4693063" lon="12.8861323"><ele>24.0</ele><time>2026-04-05T06:15:27.288Z</time></trkpt><trkpt lat="41.4694008" lon="12.8862085"><ele>23.799999999999997</ele><time>2026-04-05T06:15:29.288Z</time></trkpt><trkpt lat="41.4694876" lon="12.8862794"><ele>23.599999999999998</ele><time>2026-04-05T06:15:31.288Z</time></trkpt><trkpt lat="41.4695675" lon="12.8863489"><ele>23.4</ele><time>2026-04-05T06:15:33.288Z</time></trkpt><trkpt lat="41.4696529" lon="12.8864045"><ele>23.2</ele><time>2026-04-05T06:15:35.288Z</time></trkpt><trkpt lat="41.4697324" lon="12.8864696"><ele>23.0</ele><time>2026-04-05T06:15:37.288Z</time></trkpt><trkpt lat="41.4698095" lon="12.8865271"><ele>23.0</ele><time>2026-04-05T06:15:39.288Z</time></trkpt><trkpt lat="41.469878" lon="12.8865715"><ele>23.0</ele><time>2026-04-05T06:15:41.288Z</time></trkpt><trkpt lat="41.4699236" lon="12.8866341"><ele>23.0</ele><time>2026-04-05T06:15:43.288Z</time></trkpt><trkpt lat="41.4699428" lon="12.8867241"><ele>23.0</ele><time>2026-04-05T06:15:45.288Z</time></trkpt><trkpt lat="41.4699944" lon="12.8867995"><ele>23.0</ele><time>2026-04-05T06:15:47.288Z</time></trkpt><trkpt lat="41.4700821" lon="12.8867919"><ele>23.0</ele><time>2026-04-05T06:15:49.288Z</time></trkpt><trkpt lat="41.4701692" lon="12.8867753"><ele>23.0</ele><time>2026-04-05T06:15:51.288Z</time></trkpt><trkpt lat="41.4702551" lon="12.886806"><ele>23.0</ele><time>2026-04-05T06:15:53.288Z</time></trkpt><trkpt lat="41.4703407" lon="12.8868576"><ele>23.0</ele><time>2026-04-05T06:15:55.288Z</time></trkpt><trkpt lat="41.4704251" lon="12.8869215"><ele>23.0</ele><time>2026-04-05T06:15:57.288Z</time></trkpt><trkpt lat="41.4705097" lon="12.8869872"><ele>23.0</ele><time>2026-04-05T06:15:59.288Z</time></trkpt><trkpt lat="41.4705936" lon="12.8870579"><ele>23.0</ele><time>2026-04-05T06:16:01.288Z</time></trkpt><trkpt lat="41.4706805" lon="12.8871295"><ele>23.0</ele><time>2026-04-05T06:16:03.288Z</time></trkpt><trkpt lat="41.4707607" lon="12.8871925"><ele>23.0</ele><time>2026-04-05T06:16:05.288Z</time></trkpt><trkpt lat="41.4708398" lon="12.8872585"><ele>23.0</ele><time>2026-04-05T06:16:07.288Z</time></trkpt><trkpt lat="41.4709231" lon="12.8873233"><ele>23.0</ele><time>2026-04-05T06:16:09.288Z</time></trkpt><trkpt lat="41.4710094" lon="12.8873866"><ele>23.0</ele><time>2026-04-05T06:16:11.288Z</time></trkpt><trkpt lat="41.4711011" lon="12.8874563"><ele>23.0</ele><time>2026-04-05T06:16:13.288Z</time></trkpt><trkpt lat="41.4711923" lon="12.8875173"><ele>23.0</ele><time>2026-04-05T06:16:15.288Z</time></trkpt><trkpt lat="41.4712896" lon="12.8875838"><ele>23.0</ele><time>2026-04-05T06:16:17.288Z</time></trkpt><trkpt lat="41.4713855" lon="12.8876496"><ele>23.0</ele><time>2026-04-05T06:16:19.288Z</time></trkpt><trkpt lat="41.4714833" lon="12.8877186"><ele>22.599999999999998</ele><time>2026-04-05T06:16:21.288Z</time></trkpt><trkpt lat="41.4715773" lon="12.8877994"><ele>22.2</ele><time>2026-04-05T06:16:23.287Z</time></trkpt><trkpt lat="41.4716695" lon="12.8878753"><ele>21.8</ele><time>2026-04-05T06:16:25.288Z</time></trkpt><trkpt lat="41.4717597" lon="12.8879554"><ele>21.4</ele><time>2026-04-05T06:16:27.288Z</time></trkpt><trkpt lat="41.4718628" lon="12.8880338"><ele>21.0</ele><time>2026-04-05T06:16:29.288Z</time></trkpt><trkpt lat="41.4719743" lon="12.8881099"><ele>21.0</ele><time>2026-04-05T06:16:31.288Z</time></trkpt><trkpt lat="41.4720275" lon="12.8881587"><ele>21.0</ele><time>2026-04-05T06:16:32.288Z</time></trkpt><trkpt lat="41.4720844" lon="12.8882045"><ele>21.0</ele><time>2026-04-05T06:16:33.288Z</time></trkpt><trkpt lat="41.4721452" lon="12.8882574"><ele>21.0</ele><time>2026-04-05T06:16:34.288Z</time></trkpt><trkpt lat="41.4722056" lon="12.8883046"><ele>21.0</ele><time>2026-04-05T06:16:35.288Z</time></trkpt><trkpt lat="41.4722676" lon="12.8883497"><ele>21.0</ele><time>2026-04-05T06:16:36.288Z</time></trkpt><trkpt lat="41.4723303" lon="12.888396"><ele>21.0</ele><time>2026-04-05T06:16:37.288Z</time></trkpt><trkpt lat="41.472394" lon="12.888445"><ele>20.857142857142858</ele><time>2026-04-05T06:16:38.288Z</time></trkpt><trkpt lat="41.4724564" lon="12.8884942"><ele>20.714285714285715</ele><time>2026-04-05T06:16:39.288Z</time></trkpt><trkpt lat="41.4725164" lon="12.8885447"><ele>20.57142857142857</ele><time>2026-04-05T06:16:40.287Z</time></trkpt><trkpt lat="41.472579" lon="12.8885896"><ele>20.42857142857143</ele><time>2026-04-05T06:16:41.288Z</time></trkpt><trkpt lat="41.4726468" lon="12.8886186"><ele>20.285714285714285</ele><time>2026-04-05T06:16:42.288Z</time></trkpt><trkpt lat="41.4727191" lon="12.8886224"><ele>20.142857142857142</ele><time>2026-04-05T06:16:43.288Z</time></trkpt><trkpt lat="41.4727826" lon="12.8886003"><ele>20.0</ele><time>2026-04-05T06:16:44.288Z</time></trkpt><trkpt lat="41.4728704" lon="12.8885002"><ele>20.4</ele><time>2026-04-05T06:16:46.288Z</time></trkpt><trkpt lat="41.472933" lon="12.8883715"><ele>20.8</ele><time>2026-04-05T06:16:48.288Z</time></trkpt><trkpt lat="41.4730177" lon="12.8882856"><ele>21.200000000000003</ele><time>2026-04-05T06:16:50.288Z</time></trkpt><trkpt lat="41.4731178" lon="12.8882906"><ele>21.6</ele><time>2026-04-05T06:16:52.288Z</time></trkpt><trkpt lat="41.4732082" lon="12.8883251"><ele>22.0</ele><time>2026-04-05T06:16:54.288Z</time></trkpt><trkpt lat="41.4732934" lon="12.8883724"><ele>21.833333333333332</ele><time>2026-04-05T06:16:56.287Z</time></trkpt><trkpt lat="41.4733669" lon="12.8884259"><ele>21.666666666666664</ele><time>2026-04-05T06:16:58.288Z</time></trkpt><trkpt lat="41.473437" lon="12.8884833"><ele>21.5</ele><time>2026-04-05T06:17:00.288Z</time></trkpt><trkpt lat="41.4735111" lon="12.888532"><ele>21.333333333333332</ele><time>2026-04-05T06:17:02.287Z</time></trkpt><trkpt lat="41.4735839" lon="12.8885845"><ele>21.166666666666668</ele><time>2026-04-05T06:17:04.288Z</time></trkpt><trkpt lat="41.4736515" lon="12.8886507"><ele>21.0</ele><time>2026-04-05T06:17:06.288Z</time></trkpt><trkpt lat="41.4737277" lon="12.8887005"><ele>21.6</ele><time>2026-04-05T06:17:08.288Z</time></trkpt><trkpt lat="41.4738061" lon="12.8887542"><ele>22.200000000000003</ele><time>2026-04-05T06:17:10.287Z</time></trkpt><trkpt lat="41.4738803" lon="12.8888249"><ele>22.799999999999997</ele><time>2026-04-05T06:17:12.287Z</time></trkpt><trkpt lat="41.4739561" lon="12.8888913"><ele>23.4</ele><time>2026-04-05T06:17:14.288Z</time></trkpt><trkpt lat="41.4740398" lon="12.8889529"><ele>24.0</ele><time>2026-04-05T06:17:16.288Z</time></trkpt><trkpt lat="41.474121" lon="12.8890114"><ele>24.0</ele><time>2026-04-05T06:17:18.288Z</time></trkpt><trkpt lat="41.4742069" lon="12.889072"><ele>24.0</ele><time>2026-04-05T06:17:20.288Z</time></trkpt><trkpt lat="41.474295" lon="12.88912"><ele>24.0</ele><time>2026-04-05T06:17:22.287Z</time></trkpt><trkpt lat="41.4743836" lon="12.8891748"><ele>24.0</ele><time>2026-04-05T06:17:24.288Z</time></trkpt><trkpt lat="41.4744816" lon="12.8892223"><ele>24.0</ele><time>2026-04-05T06:17:26.288Z</time></trkpt><trkpt lat="41.4745743" lon="12.889275"><ele>24.0</ele><time>2026-04-05T06:17:28.287Z</time></trkpt><trkpt lat="41.4746587" lon="12.8893357"><ele>24.0</ele><time>2026-04-05T06:17:30.288Z</time></trkpt><trkpt lat="41.4747473" lon="12.8893989"><ele>24.0</ele><time>2026-04-05T06:17:32.287Z</time></trkpt><trkpt lat="41.474833" lon="12.8894556"><ele>24.0</ele><time>2026-04-05T06:17:34.288Z</time></trkpt><trkpt lat="41.4749199" lon="12.8895143"><ele>24.0</ele><time>2026-04-05T06:17:36.288Z</time></trkpt><trkpt lat="41.4750065" lon="12.8895751"><ele>24.0</ele><time>2026-04-05T06:17:38.288Z</time></trkpt><trkpt lat="41.4750982" lon="12.8896281"><ele>24.0</ele><time>2026-04-05T06:17:40.288Z</time></trkpt><trkpt lat="41.4751862" lon="12.8896786"><ele>24.0</ele><time>2026-04-05T06:17:42.288Z</time></trkpt><trkpt lat="41.4752753" lon="12.8897236"><ele>24.0</ele><time>2026-04-05T06:17:44.288Z</time></trkpt><trkpt lat="41.4753635" lon="12.8897788"><ele>24.0</ele><time>2026-04-05T06:17:46.288Z</time></trkpt><trkpt lat="41.4754515" lon="12.8898427"><ele>24.2</ele><time>2026-04-05T06:17:48.287Z</time></trkpt><trkpt lat="41.4755408" lon="12.8898955"><ele>24.4</ele><time>2026-04-05T06:17:50.288Z</time></trkpt><trkpt lat="41.4756259" lon="12.8899517"><ele>24.6</ele><time>2026-04-05T06:17:52.288Z</time></trkpt><trkpt lat="41.4757134" lon="12.8900112"><ele>24.8</ele><time>2026-04-05T06:17:54.288Z</time></trkpt><trkpt lat="41.4758058" lon="12.8900717"><ele>25.0</ele><time>2026-04-05T06:17:56.288Z</time></trkpt><trkpt lat="41.4758932" lon="12.8901283"><ele>24.6</ele><time>2026-04-05T06:17:58.287Z</time></trkpt><trkpt lat="41.4759794" lon="12.8901873"><ele>24.2</ele><time>2026-04-05T06:18:00.288Z</time></trkpt><trkpt lat="41.4760634" lon="12.8902447"><ele>23.799999999999997</ele><time>2026-04-05T06:18:02.288Z</time></trkpt><trkpt lat="41.4761485" lon="12.8902987"><ele>23.4</ele><time>2026-04-05T06:18:04.288Z</time></trkpt><trkpt lat="41.476238" lon="12.8903566"><ele>23.0</ele><time>2026-04-05T06:18:06.286Z</time></trkpt><trkpt lat="41.4763276" lon="12.8904137"><ele>23.0</ele><time>2026-04-05T06:18:08.287Z</time></trkpt><trkpt lat="41.4764135" lon="12.890477"><ele>23.0</ele><time>2026-04-05T06:18:10.288Z</time></trkpt><trkpt lat="41.4764997" lon="12.8905339"><ele>23.0</ele><time>2026-04-05T06:18:12.288Z</time></trkpt><trkpt lat="41.4765868" lon="12.8906048"><ele>23.0</ele><time>2026-04-05T06:18:14.288Z</time></trkpt><trkpt lat="41.4766753" lon="12.8906639"><ele>23.0</ele><time>2026-04-05T06:18:16.287Z</time></trkpt><trkpt lat="41.476762" lon="12.8907194"><ele>23.0</ele><time>2026-04-05T06:18:18.288Z</time></trkpt><trkpt lat="41.4768507" lon="12.8907771"><ele>23.0</ele><time>2026-04-05T06:18:20.288Z</time></trkpt><trkpt lat="41.4769335" lon="12.8908367"><ele>23.0</ele><time>2026-04-05T06:18:22.288Z</time></trkpt><trkpt lat="41.477025" lon="12.8908844"><ele>23.0</ele><time>2026-04-05T06:18:24.287Z</time></trkpt><trkpt lat="41.4771175" lon="12.8909428"><ele>23.0</ele><time>2026-04-05T06:18:26.288Z</time></trkpt><trkpt lat="41.4772123" lon="12.8910058"><ele>22.4</ele><time>2026-04-05T06:18:28.288Z</time></trkpt><trkpt lat="41.4773068" lon="12.8910714"><ele>21.799999999999997</ele><time>2026-04-05T06:18:30.287Z</time></trkpt><trkpt lat="41.4774003" lon="12.8911495"><ele>21.2</ele><time>2026-04-05T06:18:32.288Z</time></trkpt><trkpt lat="41.4775046" lon="12.8912183"><ele>20.6</ele><time>2026-04-05T06:18:34.289Z</time></trkpt><trkpt lat="41.4775618" lon="12.8912587"><ele>20.0</ele><time>2026-04-05T06:18:35.289Z</time></trkpt><trkpt lat="41.4776706" lon="12.8913292"><ele>20.0</ele><time>2026-04-05T06:18:37.289Z</time></trkpt><trkpt lat="41.4777813" lon="12.8913903"><ele>20.0</ele><time>2026-04-05T06:18:39.289Z</time></trkpt><trkpt lat="41.4778416" lon="12.8914192"><ele>20.0</ele><time>2026-04-05T06:18:40.289Z</time></trkpt><trkpt lat="41.4779665" lon="12.8914466"><ele>20.0</ele><time>2026-04-05T06:18:42.289Z</time></trkpt><trkpt lat="41.4780301" lon="12.8914567"><ele>20.0</ele><time>2026-04-05T06:18:43.289Z</time></trkpt><trkpt lat="41.4781537" lon="12.8914567"><ele>19.857142857142858</ele><time>2026-04-05T06:18:45.289Z</time></trkpt><trkpt lat="41.4782173" lon="12.8914502"><ele>19.714285714285715</ele><time>2026-04-05T06:18:46.289Z</time></trkpt><trkpt lat="41.4782849" lon="12.8914507"><ele>19.57142857142857</ele><time>2026-04-05T06:18:47.289Z</time></trkpt><trkpt lat="41.4783539" lon="12.8914513"><ele>19.42857142857143</ele><time>2026-04-05T06:18:48.289Z</time></trkpt><trkpt lat="41.4784282" lon="12.8914488"><ele>19.28571428571429</ele><time>2026-04-05T06:18:49.289Z</time></trkpt><trkpt lat="41.4785" lon="12.8914462"><ele>19.142857142857142</ele><time>2026-04-05T06:18:50.288Z</time></trkpt><trkpt lat="41.4785743" lon="12.8914452"><ele>19.0</ele><time>2026-04-05T06:18:51.289Z</time></trkpt><trkpt lat="41.4786494" lon="12.8914369"><ele>19.0</ele><time>2026-04-05T06:18:52.289Z</time></trkpt><trkpt lat="41.4787217" lon="12.8914355"><ele>19.0</ele><time>2026-04-05T06:18:53.288Z</time></trkpt><trkpt lat="41.478799" lon="12.8914342"><ele>19.0</ele><time>2026-04-05T06:18:54.289Z</time></trkpt><trkpt lat="41.4788713" lon="12.8914343"><ele>19.0</ele><time>2026-04-05T06:18:55.288Z</time></trkpt><trkpt lat="41.4789434" lon="12.8914326"><ele>19.0</ele><time>2026-04-05T06:18:56.289Z</time></trkpt><trkpt lat="41.4790141" lon="12.8914325"><ele>19.0</ele><time>2026-04-05T06:18:57.289Z</time></trkpt><trkpt lat="41.4790857" lon="12.8914314"><ele>19.0</ele><time>2026-04-05T06:18:58.289Z</time></trkpt><trkpt lat="41.4791547" lon="12.8914286"><ele>19.0</ele><time>2026-04-05T06:18:59.289Z</time></trkpt><trkpt lat="41.4792224" lon="12.8914221"><ele>19.0</ele><time>2026-04-05T06:19:00.289Z</time></trkpt><trkpt lat="41.4792895" lon="12.8914171"><ele>19.0</ele><time>2026-04-05T06:19:01.289Z</time></trkpt><trkpt lat="41.4793556" lon="12.8914139"><ele>19.0</ele><time>2026-04-05T06:19:02.288Z</time></trkpt><trkpt lat="41.47942" lon="12.8914106"><ele>19.0</ele><time>2026-04-05T06:19:03.289Z</time></trkpt><trkpt lat="41.4794843" lon="12.891413"><ele>19.0</ele><time>2026-04-05T06:19:04.289Z</time></trkpt><trkpt lat="41.4795481" lon="12.891409"><ele>19.0</ele><time>2026-04-05T06:19:05.289Z</time></trkpt><trkpt lat="41.4796111" lon="12.8914049"><ele>19.0</ele><time>2026-04-05T06:19:06.289Z</time></trkpt><trkpt lat="41.4797394" lon="12.8914025"><ele>19.0</ele><time>2026-04-05T06:19:08.289Z</time></trkpt><trkpt lat="41.4798056" lon="12.8914037"><ele>19.0</ele><time>2026-04-05T06:19:09.289Z</time></trkpt><trkpt lat="41.4798714" lon="12.8914022"><ele>19.0</ele><time>2026-04-05T06:19:10.288Z</time></trkpt><trkpt lat="41.4799358" lon="12.8914036"><ele>19.0</ele><time>2026-04-05T06:19:11.289Z</time></trkpt><trkpt lat="41.48006" lon="12.8914013"><ele>19.0</ele><time>2026-04-05T06:19:13.289Z</time></trkpt><trkpt lat="41.4801853" lon="12.8913984"><ele>19.0</ele><time>2026-04-05T06:19:15.289Z</time></trkpt><trkpt lat="41.4802508" lon="12.8913975"><ele>19.0</ele><time>2026-04-05T06:19:16.289Z</time></trkpt><trkpt lat="41.4803137" lon="12.8913919"><ele>19.0</ele><time>2026-04-05T06:19:17.289Z</time></trkpt><trkpt lat="41.4803766" lon="12.8913737"><ele>19.0</ele><time>2026-04-05T06:19:18.289Z</time></trkpt><trkpt lat="41.4804391" lon="12.8913601"><ele>19.0</ele><time>2026-04-05T06:19:19.288Z</time></trkpt><trkpt lat="41.4805624" lon="12.8913402"><ele>19.0</ele><time>2026-04-05T06:19:21.289Z</time></trkpt><trkpt lat="41.4806784" lon="12.8913422"><ele>19.0</ele><time>2026-04-05T06:19:23.289Z</time></trkpt><trkpt lat="41.4807894" lon="12.8913494"><ele>19.0</ele><time>2026-04-05T06:19:25.289Z</time></trkpt><trkpt lat="41.4808863" lon="12.8913345"><ele>19.0</ele><time>2026-04-05T06:19:27.288Z</time></trkpt><trkpt lat="41.4809234" lon="12.8912581"><ele>19.0</ele><time>2026-04-05T06:19:29.289Z</time></trkpt><trkpt lat="41.4809387" lon="12.8911544"><ele>19.0</ele><time>2026-04-05T06:19:32.289Z</time></trkpt><trkpt lat="41.4809602" lon="12.8910454"><ele>19.0</ele><time>2026-04-05T06:19:35.289Z</time></trkpt><trkpt lat="41.4809964" lon="12.8909528"><ele>19.0</ele><time>2026-04-05T06:19:38.289Z</time></trkpt><trkpt lat="41.4810262" lon="12.8908594"><ele>17.0</ele><time>2026-04-05T06:19:41.289Z</time></trkpt><trkpt lat="41.4810356" lon="12.8907752"><ele>17.0</ele><time>2026-04-05T06:19:44.289Z</time></trkpt><trkpt lat="41.4810521" lon="12.8906885"><ele>17.0</ele><time>2026-04-05T06:19:48.288Z</time></trkpt><trkpt lat="41.4811211" lon="12.8906686"><ele>17.0</ele><time>2026-04-05T06:20:03.289Z</time></trkpt></trkseg></trk></gpx>